[[{"header":{"parameterUnit":"m.s-1","parameterCategory":1,"la1":30.6,"la2":28.766,"lo1":-90.7593,"lo2":-88.6598,"dy":0.0162,"dx":0.0183,"nx":116,"ny":114,"refTime":"2023-07-28T12:00:00:Z","depth":0,"parameterNumber":2,"parameterNumberName":"U-component_of_WINDS"},"data":[0.0,0.0,0.0,0.0,0.0,0.0,0.0,0.0,0.0,0.0,0.0,0.0,0.0,0.0,0.0,0.0,0.0,0.0,0.0,0.0,0.0,0.0,0.0,0.0,0.0,0.0,0.0,0.0,0.0,0.0,0.0,0.0,0.0,0.0,0.0,0.0,0.0,0.0,0.0,0.0,0.0,0.0,0.0,0.0,0.0,0.0,0.0,0.0,0.0,0.0,0.0,0.0,0.0,0.0,0.0,0.0,0.0,0.0,0.0,0.0,0.0,0.0,0.0,0.0,0.0,0.0,0.0,0.0,0.0,0.0,0.0,0.0,0.0,0.0,0.0,0.0,0.0,0.0,0.0,0.0,0.0,0.0,0.0,0.0,0.0,0.0,0.0,0.0,0.0,0.0,0.0,0.0,0.0,0.0,0.0,0.0,0.0,0.0,0.0,0.0,0.0,0.0,0.0,0.0,0.0,0.0,0.0,0.0,0.0,0.0,0.0,0.0,0.0,0.0,0.0,0.0,0.0,0.0,0.0,0.0,0.0,0.0,0.0,0.0,0.0,0.0,0.0,0.0,0.0,0.0,0.0,0.0,0.0,0.0,0.0,0.0,0.0,0.0,0.0,0.0,0.0,0.0,0.0,0.0,0.0,0.0,0.0,0.0,0.0,0.0,0.0,0.0,0.0,0.0,0.0,0.0,0.0,0.0,0.0,0.0,0.0,0.0,0.0,0.0,0.0,0.0,0.0,0.0,0.0,0.0,0.0,0.0,0.0,0.0,0.0,0.0,0.0,0.0,0.0,0.0,0.0,0.0,0.0,0.0,0.0,0.0,0.0,0.0,0.0,0.0,0.0,0.0,0.0,0.0,0.0,0.0,0.0,0.0,0.0,0.0,0.0,0.0,0.0,0.0,0.0,0.0,0.0,0.0,0.0,0.0,0.0,0.0,0.0,0.0,0.0,0.0,0.0,0.0,0.0,0.0,0.0,0.0,0.0,0.0,0.0,0.0,0.0,0.0,0.0,0.0,0.0,0.0,0.0,0.0,0.0,0.0,0.0,0.0,0.0,0.0,0.0,0.0,0.0,0.0,0.0,0.0,0.0,0.0,0.0,0.0,0.0,0.0,0.0,0.0,0.0,0.0,0.0,0.0,0.0,0.0,0.0,0.0,0.0,0.0,0.0,0.0,0.0,0.0,0.0,0.0,0.0,0.0,0.0,0.0,0.0,0.0,0.0,0.0,0.0,0.0,0.0,0.0,0.0,0.0,0.0,0.0,0.0,0.0,0.0,0.0,0.0,0.0,0.0,0.0,0.0,0.0,0.0,0.0,0.0,0.0,0.0,0.0,0.0,0.0,0.0,0.0,0.0,0.0,0.0,0.0,0.0,0.0,0.0,0.0,0.0,0.0,0.0,0.0,0.0,0.0,0.0,0.0,0.0,0.0,0.0,0.0,0.0,0.0,0.0,0.0,0.0,0.0,0.0,0.0,0.0,0.0,0.0,0.0,0.0,0.0,0.0,0.0,0.0,0.0,0.0,0.0,0.0,0.0,0.0,0.0,0.0,0.0,0.0,0.0,0.0,0.0,0.0,0.0,0.0,0.0,0.0,0.0,0.0,0.0,0.0,0.0,0.0,0.0,0.0,0.0,0.0,0.0,0.0,0.0,0.0,0.0,0.0,0.0,0.0,0.0,0.0,0.0,0.0,0.0,0.0,0.0,0.0,0.0,0.0,0.0,0.0,0.0,0.0,0.0,0.0,0.0,0.0,0.0,0.0,0.0,0.0,0.0,0.0,0.0,0.0,0.0,0.0,0.0,0.0,0.0,0.0,0.0,0.0,0.0,0.0,0.0,0.0,0.0,0.0,0.0,0.0,0.0,0.0,0.0,0.0,0.0,0.0,0.0,0.0,0.0,0.0,0.0,0.0,0.0,0.0,0.0,0.0,0.0,0.0,0.0,0.0,0.0,0.0,0.0,0.0,0.0,0.0,0.0,0.0,0.0,0.0,0.0,0.0,0.0,0.0,0.0,0.0,0.0,0.0,0.0,0.0,0.0,0.0,0.0,0.0,0.0,0.0,0.0,0.0,0.0,0.0,0.0,0.0,0.0,0.0,0.0,0.0,0.0,0.0,0.0,0.0,0.0,0.0,0.0,0.0,0.0,0.0,0.0,0.0,0.0,0.0,0.0,0.0,0.0,0.0,0.0,0.0,0.0,0.0,0.0,0.0,0.0,0.0,0.0,0.0,0.0,0.0,0.0,0.0,0.0,0.0,0.0,0.0,0.0,0.0,0.0,0.0,0.0,0.0,0.0,0.0,0.0,0.0,0.0,0.0,0.0,0.0,0.0,0.0,0.0,0.0,0.0,0.0,0.0,0.0,0.0,0.0,0.0,0.0,0.0,0.0,0.0,0.0,0.0,0.0,0.0,0.0,0.0,0.0,0.0,0.0,0.0,0.0,0.0,0.0,0.0,0.0,0.0,0.0,0.0,0.0,0.0,0.0,0.0,0.0,0.0,0.0,0.0,0.0,0.0,0.0,0.0,0.0,0.0,0.0,0.0,0.0,0.0,0.0,0.0,0.0,0.0,0.0,0.0,0.0,0.0,0.0,0.0,0.0,0.0,0.0,0.0,0.0,0.0,0.0,0.0,0.0,0.0,0.0,0.0,0.0,0.0,0.0,0.0,0.0,0.0,0.0,0.0,0.0,0.0,0.0,0.0,0.0,0.0,0.0,0.0,0.0,0.0,0.0,0.0,0.0,0.0,0.0,0.0,0.0,0.0,0.0,0.0,0.0,0.0,0.0,0.0,0.0,0.0,0.0,0.0,0.0,0.0,0.0,0.0,0.0,0.0,0.0,0.0,0.0,0.0,0.0,0.0,0.0,0.0,0.0,0.0,0.0,0.0,0.0,0.0,0.0,0.0,0.0,0.0,0.0,0.0,0.0,0.0,0.0,0.0,0.0,0.0,0.0,0.0,0.0,0.0,0.0,0.0,0.0,0.0,0.0,0.0,0.0,0.0,0.0,0.0,0.0,0.0,0.0,0.0,0.0,0.0,0.0,0.0,0.0,0.0,0.0,0.0,0.0,0.0,0.0,0.0,0.0,0.0,0.0,0.0,0.0,0.0,0.0,0.0,0.0,0.0,0.0,0.0,0.0,0.0,0.0,0.0,0.0,0.0,0.0,0.0,0.0,0.0,0.0,0.0,0.0,0.0,0.0,0.0,0.0,0.0,0.0,0.0,0.0,0.0,0.0,0.0,0.0,0.0,0.0,0.0,0.0,0.0,0.0,0.0,0.0,0.0,0.0,0.0,0.0,0.0,0.0,0.0,0.0,0.0,0.0,0.0,0.0,0.0,0.0,0.0,0.0,0.0,0.0,0.0,0.0,0.0,0.0,0.0,0.0,0.0,0.0,0.0,0.0,0.0,0.0,0.0,0.0,0.0,0.0,0.0,0.0,0.0,0.0,0.0,0.0,0.0,0.0,0.0,0.0,0.0,0.0,0.0,0.0,0.0,0.0,0.0,0.0,0.0,0.0,0.0,0.0,0.0,0.0,0.0,0.0,0.0,0.0,0.0,0.0,0.0,0.0,0.0,0.0,0.0,0.0,0.0,0.0,0.0,0.0,0.0,0.0,0.0,0.0,0.0,0.0,0.0,0.0,0.0,0.0,0.0,0.0,0.0,0.0,0.0,0.0,0.0,0.0,0.0,0.0,0.0,0.0,0.0,0.0,0.0,0.0,0.0,0.0,0.0,0.0,0.0,0.0,0.0,0.0,0.0,0.0,0.0,0.0,0.0,0.0,0.0,0.0,0.0,0.0,0.0,0.0,0.0,0.0,0.0,0.0,0.0,0.0,0.0,0.0,0.0,0.0,0.0,0.0,0.0,0.0,0.0,0.0,0.0,0.0,0.0,0.0,0.0,0.0,0.0,0.0,0.0,0.0,0.0,0.0,0.0,0.0,0.0,0.0,0.0,0.0,0.0,0.0,0.0,0.0,0.0,0.0,0.0,0.0,0.0,0.0,0.0,0.0,0.0,0.0,0.0,0.0,0.0,0.0,0.0,0.0,0.0,0.0,0.0,0.0,0.0,0.0,0.0,0.0,0.0,0.0,0.0,0.0,0.0,0.0,0.0,0.0,0.0,0.0,0.0,0.0,0.0,0.0,0.0,0.0,0.0,0.0,0.0,0.0,0.0,0.0,0.0,0.0,0.0,0.0,0.0,0.0,0.0,0.0,0.0,0.0,0.0,0.0,0.0,0.0,0.0,0.0,0.0,0.0,0.0,0.0,0.0,0.0,0.0,0.0,0.0,0.0,0.0,0.0,0.0,0.0,0.0,0.0,0.0,0.0,0.0,0.0,0.0,0.0,0.0,0.0,0.0,0.0,0.0,0.0,0.0,0.0,0.0,0.0,0.0,0.0,0.0,0.0,0.0,0.0,0.0,0.0,0.0,0.0,0.0,0.0,0.0,0.0,0.0,0.0,0.0,0.0,0.0,0.0,0.0,0.0,0.0,0.0,0.0,0.0,0.0,0.0,0.0,0.0,0.0,0.0,0.0,0.0,0.0,0.0,0.0,0.0,0.0,0.0,0.0,0.0,0.0,0.0,0.0,0.0,0.0,0.0,0.0,0.0,0.0,0.0,0.0,0.0,0.0,0.0,0.0,0.0,0.0,0.0,0.0,0.0,0.0,0.0,0.0,0.0,0.0,0.0,0.0,0.0,0.0,0.0,0.0,0.0,0.0,0.0,0.0,0.0,0.0,0.0,0.0,0.0,0.0,0.0,0.0,0.0,0.0,0.0,0.0,0.0,0.0,0.0,0.0,0.0,0.0,0.0,0.0,0.0,0.0,0.0,0.0,0.0,0.0,0.0,0.0,0.0,0.0,0.0,0.0,0.0,0.0,0.0,0.0,0.0,0.0,0.0,0.0,0.0,0.0,0.0,0.0,0.0,0.0,0.0,0.0,0.0,0.0,0.0,0.0,0.0,0.0,0.0,0.0,0.0,0.0,0.0,0.0,0.0,0.0,0.0,0.0,0.0,0.0,0.0,0.0,0.0,0.0,0.0,0.0,0.0,0.0,0.0,0.0,0.0,0.0,0.0,0.0,0.0,0.0,0.0,0.0,0.0,0.0,0.0,0.0,0.0,0.0,0.0,0.0,0.0,0.0,0.0,0.0,0.0,0.0,0.0,0.0,0.0,0.0,0.0,0.0,0.0,0.0,0.0,0.0,0.0,0.0,0.0,0.0,0.0,0.0,0.0,0.0,0.0,0.0,0.0,0.0,0.0,0.0,0.0,0.0,0.0,0.0,0.0,0.0,0.0,0.0,0.0,0.0,0.0,0.0,0.0,0.0,0.0,0.0,0.0,0.0,0.0,0.0,0.0,0.0,0.0,0.0,0.0,0.0,0.0,0.0,0.0,0.0,0.0,0.0,0.0,0.0,0.0,0.0,0.0,0.0,0.0,0.0,0.0,0.0,0.0,0.0,0.0,0.0,0.0,0.0,0.0,0.0,0.0,0.0,0.0,0.0,0.0,0.0,0.0,0.0,0.0,0.0,0.0,0.0,0.0,0.0,0.0,0.0,0.0,0.0,0.0,0.0,0.0,0.0,0.0,0.0,0.0,0.0,0.0,0.0,0.0,0.0,0.0,0.0,0.0,0.0,0.0,0.0,0.0,0.0,0.0,0.0,0.0,0.0,0.0,0.0,0.0,0.0,0.0,0.0,0.0,0.0,0.0,0.0,0.0,0.0,0.0,0.0,0.0,0.0,0.0,0.0,0.0,0.0,0.0,0.0,0.0,0.0,0.0,0.0,0.0,0.0,0.0,0.0,0.0,0.0,0.0,0.0,0.0,0.0,0.0,0.0,0.0,0.0,0.0,0.0,0.0,0.0,0.0,0.0,0.0,0.0,0.0,0.0,0.0,0.0,0.0,0.0,0.0,0.0,0.0,0.0,0.0,0.0,0.0,0.0,0.0,0.0,0.0,0.0,0.0,0.0,0.0,0.0,0.0,0.0,0.0,0.0,0.0,0.0,0.0,0.0,0.0,0.0,0.0,0.0,0.0,0.0,0.0,0.0,0.0,0.0,0.0,0.0,0.0,0.0,0.0,0.0,1.4238,1.4024,0.0,0.0,0.0,0.0,0.0,0.0,0.0,0.0,0.0,0.0,0.0,0.0,0.0,0.0,0.0,0.0,0.0,0.0,0.0,0.0,0.0,0.0,0.0,0.0,0.0,0.0,0.0,0.0,0.0,0.0,0.0,0.0,0.0,0.0,0.0,0.0,0.0,0.0,0.0,0.0,0.0,0.0,0.0,0.0,0.0,0.0,0.0,0.0,0.0,0.0,0.0,0.0,0.0,0.0,0.0,0.0,0.0,0.0,0.0,0.0,0.0,0.0,0.0,0.0,0.0,0.0,0.0,0.0,0.0,0.0,0.0,0.0,0.0,0.0,0.0,0.0,0.0,0.0,0.0,0.0,0.0,0.0,0.0,0.0,0.0,0.0,0.0,0.0,0.0,0.0,0.0,0.0,0.0,0.0,0.0,0.0,0.0,0.0,0.0,0.0,0.0,0.0,0.0,0.0,0.0,0.0,0.0,0.0,0.0,0.0,0.0,0.0,0.0,0.0,1.4439,1.412,0.0,0.0,0.0,0.0,0.0,0.0,0.0,0.0,0.0,0.0,0.0,0.0,0.0,0.0,0.0,0.0,0.0,0.0,0.0,0.0,0.0,0.0,0.0,0.0,0.0,0.0,0.0,0.0,0.0,0.0,0.0,0.0,0.0,0.0,0.0,0.0,0.0,0.0,0.0,0.0,0.0,0.0,0.0,0.0,0.0,0.0,0.0,0.0,0.0,0.0,0.0,0.0,0.0,0.0,0.0,0.0,0.0,0.0,0.0,0.0,0.0,0.0,0.0,0.0,0.0,0.0,0.0,0.0,0.0,0.0,0.0,0.0,0.0,0.0,0.0,0.0,0.0,0.0,0.0,0.0,0.0,0.0,0.0,0.0,0.0,0.0,0.0,0.0,0.0,0.0,0.0,0.0,0.0,0.0,0.0,0.0,0.0,0.0,0.0,0.0,0.0,0.0,0.0,0.0,0.0,0.0,0.0,0.0,1.5041,1.5142,1.5256,1.4476,1.4476,1.5027,1.4258,1.3943,1.4003,1.3709,0.0,0.0,0.0,0.0,0.0,0.0,0.0,0.0,0.0,0.0,0.0,0.0,0.0,0.0,0.0,0.0,0.0,0.0,0.0,0.0,0.0,0.0,0.0,0.0,0.0,0.0,0.0,0.0,0.0,0.0,0.0,0.0,0.0,0.0,0.0,0.0,0.0,0.0,1.541,1.541,1.541,1.541,0.0,0.0,0.0,0.0,0.0,0.0,0.0,0.0,0.0,0.0,0.0,0.0,0.0,0.0,0.0,0.0,0.0,0.0,0.0,0.0,0.0,0.0,0.0,0.0,0.0,0.0,0.0,0.0,0.0,0.0,0.0,0.0,0.0,0.0,0.0,0.0,0.0,0.0,0.0,0.0,0.0,0.0,0.0,0.0,1.541,1.541,0.0,0.0,0.0,0.0,0.0,0.0,0.0,0.0,0.0,0.0,0.0,0.0,0.0,1.6162,1.6553,1.6562,1.6529,1.6452,1.6452,1.6008,1.5321,1.5192,1.4737,1.4016,1.3209,0.0,1.332,1.3009,0.0,0.0,0.0,0.0,0.0,0.0,0.0,0.0,0.0,0.0,0.0,0.0,0.0,0.0,0.0,0.0,0.0,0.0,0.0,0.0,0.0,0.0,0.0,0.0,0.0,0.0,0.0,0.0,0.0,0.0,0.0,0.0,0.0,0.0,0.0,0.0,1.5781,1.5781,1.5771,1.5527,1.541,1.542,1.5664,1.5752,1.5703,1.5752,0.0,0.0,0.0,0.0,0.0,0.0,0.0,0.0,0.0,0.0,0.0,0.0,0.0,0.0,0.0,0.0,0.0,0.0,0.0,0.0,0.0,0.0,0.0,0.0,0.0,0.0,0.0,0.0,0.0,0.0,0.0,0.0,0.0,0.0,0.0,0.0,0.0,0.0,0.0,1.5625,1.5684,1.5439,1.5625,1.5684,0.0,0.0,0.0,0.0,0.0,0.0,0.0,0.0,0.0,1.6797,1.7031,1.7246,1.7451,1.6826,1.6382,1.6042,1.5496,1.5105,1.4864,1.4367,1.4156,1.4214,1.3179,1.2806,1.2953,1.243,1.219,1.2168,0.0,0.0,0.0,0.0,1.2617,1.233,0.0,0.0,0.0,0.0,0.0,0.0,0.0,0.0,0.0,0.0,0.0,0.0,0.0,0.0,0.0,1.541,0.0,0.0,0.0,0.0,0.0,0.0,0.0,0.0,0.0,0.0,0.0,0.0,1.623,1.623,1.623,1.5908,1.5752,1.5771,1.6201,1.6162,1.5771,1.6094,1.6045,0.0,0.0,0.0,0.0,0.0,0.0,0.0,0.0,0.0,0.0,0.0,0.0,0.0,0.0,0.0,0.0,0.0,0.0,0.0,0.0,0.0,0.0,0.0,0.0,0.0,0.0,0.0,0.0,0.0,0.0,0.0,0.0,0.0,0.0,0.0,0.0,0.0,0.0,1.5957,1.6074,1.5625,1.6064,1.6182,0.0,0.0,0.0,0.0,0.0,0.0,1.7041,1.7363,1.7598,1.7705,1.7831,1.7903,1.7903,1.6911,1.6161,1.5683,1.4878,1.4561,1.4569,1.3895,1.3817,1.418,1.3263,1.2866,1.2856,1.2082,1.1745,1.1791,1.1949,1.2079,1.224,1.2402,1.2497,1.2445,0.0,0.0,0.0,0.0,0.0,0.0,0.0,0.0,0.0,0.0,0.0,0.0,0.0,0.0,1.541,1.541,1.541,1.541,0.0,0.0,0.0,0.0,0.0,0.0,0.0,0.0,0.0,1.6699,1.6699,1.6699,1.6699,1.668,1.6597,1.6689,1.7129,1.707,1.667,1.6689,1.6689,1.6631,0.0,0.0,0.0,0.0,0.0,0.0,0.0,0.0,0.0,0.0,0.0,0.0,0.0,0.0,0.0,0.0,0.0,0.0,0.0,0.0,0.0,0.0,0.0,0.0,0.0,0.0,0.0,0.0,0.0,0.0,0.0,0.0,0.0,0.0,0.0,0.0,0.0,0.0,0.0,1.6084,1.6797,0.0,0.0,0.0,0.0,1.7314,1.7686,1.792,1.7949,1.7969,1.8164,1.8564,1.788,1.7573,1.7721,1.6911,1.6293,1.5967,1.5899,1.5457,1.4569,1.4569,1.4045,1.3286,1.3193,1.3186,1.312,1.2278,1.1895,1.1895,1.1881,1.1706,1.1538,1.2103,1.2143,1.1955,0.0,0.0,0.0,0.0,0.0,0.0,0.0,0.0,0.0,0.0,0.0,0.0,0.0,1.541,1.541,1.541,1.541,1.541,1.541,0.0,0.0,0.0,0.0,0.0,0.0,0.0,1.6709,1.7148,1.7422,1.7559,1.7559,1.7559,1.7559,1.7588,1.8291,1.8359,1.7891,1.7891,1.7646,1.7158,1.7275,1.6894,0.0,0.0,0.0,0.0,0.0,0.0,0.0,0.0,0.0,0.0,0.0,0.0,0.0,0.0,0.0,0.0,0.0,0.0,0.0,0.0,0.0,0.0,0.0,0.0,0.0,0.0,0.0,0.0,0.0,0.0,0.0,0.0,0.0,0.0,0.0,0.0,0.0,1.7734,1.8486,0.0,1.8193,1.8428,1.8721,1.8994,1.915,1.9355,1.9639,1.9932,2.0156,2.0303,1.9491,1.912,1.9201,1.7422,1.6507,1.6392,1.5657,1.5163,1.4836,1.4836,1.4665,1.4342,1.4342,1.4342,1.4302,1.3788,1.3126,1.2486,1.2218,1.2198,1.2305,1.2512,1.2652,1.2746,0.0,0.0,0.0,0.0,0.0,0.0,0.0,0.0,0.0,0.0,0.0,1.4941,1.5371,1.541,1.541,1.541,1.541,1.541,1.541,0.0,0.0,0.0,0.0,0.0,0.0,1.6865,1.7373,1.7803,1.8232,1.8437,1.8447,1.8584,1.8652,1.8691,1.9561,1.9785,1.9521,1.9668,1.8984,1.7832,1.8105,1.7881,1.7278,0.0,0.0,0.0,0.0,0.0,0.0,0.0,0.0,0.0,0.0,0.0,0.0,0.0,0.0,0.0,0.0,0.0,0.0,0.0,0.0,0.0,0.0,0.0,0.0,0.0,0.0,0.0,0.0,0.0,0.0,0.0,0.0,0.0,0.0,1.835,1.9062,1.9062,1.9834,2.0137,1.9561,1.9766,2.0059,2.0342,2.0498,2.0703,2.0996,2.0857,2.0765,2.0765,1.9595,1.8946,1.8828,1.7045,1.6188,1.608,1.5308,1.4963,1.4963,1.4963,1.4963,1.4963,1.4963,1.4963,1.495,1.475,1.4148,1.3327,1.3126,1.3113,1.322,1.3501,1.3561,1.3654,0.0,0.0,0.0,0.0,0.0,0.0,0.0,0.0,0.0,0.0,1.4502,1.4932,1.5361,1.541,1.541,1.541,1.541,1.541,1.541,1.541,0.0,0.0,0.0,0.0,1.6777,1.7607,1.8242,1.8652,1.9092,1.9307,1.9316,1.9746,1.9951,1.999,2.0879,2.1269,2.1279,2.1719,2.0674,1.873,1.8721,1.863,1.8584,0.0,0.0,0.0,0.0,0.0,0.0,0.0,0.0,0.0,0.0,0.0,0.0,0.0,0.0,0.0,0.0,0.0,0.0,0.0,0.0,0.0,0.0,0.0,0.0,0.0,0.0,0.0,0.0,0.0,0.0,0.0,0.0,0.0,1.8601,1.9424,1.998,1.999,2.0762,2.0957,2.0098,2.0791,2.1289,2.1289,2.168,2.1924,2.1924,2.0689,1.9987,1.9987,1.8065,1.6937,1.6624,1.5798,1.5271,1.499,1.499,1.499,1.499,1.499,1.499,1.499,1.499,1.499,1.499,1.499,1.4823,1.4563,1.4543,1.4355,1.4168,1.475,1.4783,1.4536,0.0,0.0,0.0,0.0,0.0,0.0,0.0,0.0,0.0,0.0,1.4184,1.46,1.5332,1.541,1.541,1.541,1.541,1.541,1.541,0.0,0.0,0.0,0.0,0.0,1.8086,1.834,1.8682,1.9111,1.9531,1.9746,1.9756,2.0518,2.0869,2.0908,2.1777,2.1992,2.1738,2.2158,2.1816,2.0967,2.0644,2.0137,1.9541,0.0,0.0,0.0,0.0,0.0,0.0,0.0,0.0,0.0,0.0,0.0,0.0,0.0,0.0,0.0,0.0,0.0,0.0,0.0,0.0,0.0,0.0,0.0,0.0,0.0,0.0,0.0,0.0,0.0,0.0,0.0,1.9268,1.9922,1.9609,2.0596,2.1455,2.1758,2.2285,2.2519,2.2275,2.2471,2.2617,2.2617,2.2725,2.2428,2.1521,2.1153,2.0527,1.9639,1.8216,1.7497,1.7415,1.622,1.5671,1.5591,1.5591,1.5591,1.5591,1.5591,1.5591,1.5591,1.5591,1.5591,1.5591,1.5591,1.5545,1.5424,1.501,1.4663,1.4442,1.4823,1.491,1.4843,0.0,0.0,0.0,0.0,0.0,0.0,0.0,0.0,0.0,0.0,1.4077,1.4408,1.5312,1.541,1.541,1.541,1.541,1.541,1.541,0.0,0.0,0.0,0.0,1.7695,1.8553,1.8994,1.9297,1.9551,1.998,2.0283,2.0478,2.1182,2.1602,2.1797,2.2471,2.2637,2.2432,2.2676,2.2637,2.2383,2.2129,2.1621,2.0967,2.0605,2.0273,1.9922,1.9297,1.9287,1.9473,1.8975,0.0,0.0,0.0,0.0,0.0,0.0,0.0,0.0,0.0,0.0,0.0,0.0,0.0,0.0,0.0,0.0,0.0,0.0,0.0,0.0,0.0,0.0,0.0,0.0,2.0508,2.1094,2.1016,2.167,2.2305,2.2725,2.2988,2.3135,2.3135,2.3135,2.3135,2.3135,2.3135,2.2775,2.212,2.1123,2.0215,1.9497,1.7855,1.6943,1.6943,1.6197,1.5832,1.5832,1.5832,1.5832,1.5832,1.5832,1.5832,1.5832,1.5832,1.5832,1.5832,1.5832,1.5758,1.5625,0.0,0.0,0.0,0.0,1.5331,1.5331,0.0,0.0,0.0,0.0,0.0,0.0,0.0,0.0,0.0,0.0,0.0,1.4389,1.5254,1.5342,1.5322,1.5273,1.5312,1.5381,0.0,0.0,0.0,1.749,1.793,1.8369,1.8848,1.96,1.999,1.999,2.043,2.084,2.125,2.1728,2.2158,2.2529,2.2949,2.3135,2.3135,2.3135,2.3135,2.3135,2.3135,2.2891,2.2432,2.167,2.1592,2.1777,2.0937,2.0449,2.0195,2.0098,0.0,0.0,0.0,0.0,0.0,0.0,0.0,0.0,0.0,0.0,0.0,0.0,0.0,0.0,0.0,0.0,0.0,0.0,0.0,0.0,0.0,0.0,0.0,0.0,2.167,2.21,2.2519,2.2627,2.2773,2.3096,2.3135,2.3135,2.3135,2.3135,2.3047,2.2872,2.2862,2.2794,2.2568,2.0473,0.0,0.0,0.0,1.5879,1.5879,1.5845,1.5832,1.5832,1.5832,1.5832,1.5832,1.5832,1.5832,1.5832,1.5832,1.5832,1.5832,1.5832,1.5678,1.5471,1.5691,1.5798,1.5832,1.5832,1.5832,1.5832,0.0,0.0,0.0,0.0,0.0,0.0,0.0,0.0,0.0,1.397,1.4077,1.4336,1.4853,1.4902,1.4766,1.436,1.4707,1.5195,0.0,0.0,1.7139,1.834,1.8809,1.9404,2.0176,2.0352,2.0439,2.0439,2.0889,2.1152,2.125,2.2021,2.2432,2.2529,2.2949,2.3135,2.3135,2.3135,2.3135,2.3135,2.3135,2.2891,2.249,2.2324,2.2109,2.1816,2.1289,2.1494,2.1904,2.1211,2.1162,2.1309,2.0869,0.0,0.0,0.0,0.0,0.0,0.0,0.0,0.0,0.0,0.0,0.0,0.0,0.0,0.0,0.0,0.0,0.0,0.0,0.0,0.0,2.166,2.2119,2.2539,2.2959,2.332,2.3447,2.3174,2.3135,2.3135,2.3135,2.3135,2.2677,2.1747,2.1667,2.0896,1.9177,1.8635,1.8001,1.7295,1.6592,1.6186,1.6186,1.5945,1.5832,1.5832,1.5832,0.0,1.5832,1.5832,1.5832,1.5832,1.5832,1.5832,1.5832,1.5832,1.5798,1.5732,1.5545,1.5625,1.5832,1.5832,1.5832,1.5832,0.0,0.0,0.0,0.0,0.0,0.0,0.0,0.0,0.0,0.0,1.3818,1.3984,1.4414,1.4463,1.4375,1.4097,1.4727,0.0,0.0,1.7129,1.7939,1.9219,1.9482,1.9902,2.0557,2.0566,2.0566,2.0566,2.1016,2.1348,2.1572,2.2217,2.2627,2.2832,2.3047,2.3262,2.3467,2.3467,2.3584,2.3779,2.3779,2.3652,2.3418,2.2988,2.2695,2.248,2.2266,2.2324,2.2451,2.2021,2.1875,2.1807,2.1367,2.0928,2.0488,0.0,0.0,0.0,0.0,0.0,0.0,0.0,0.0,0.0,0.0,0.0,0.0,0.0,0.0,2.1221,2.1211,0.0,2.2012,2.2441,2.2871,2.3223,2.3437,2.3838,2.3945,2.3516,2.3652,2.3779,2.3779,2.3779,2.349,2.2919,2.2828,2.2355,2.1336,2.0693,1.9822,1.8731,1.7761,1.6933,1.6273,1.5979,1.5832,1.5832,1.5832,1.5832,1.5832,1.5832,1.5832,1.5832,1.5832,1.5832,1.5832,1.5832,1.5832,1.5812,1.5671,1.5705,1.5832,1.5832,1.5832,1.5832,0.0,0.0,0.0,0.0,0.0,0.0,0.0,0.0,0.0,0.0,1.3506,1.3633,1.3975,1.3961,1.399,0.0,0.0,0.0,0.0,1.7852,1.8662,1.9863,2.0,2.0205,2.0557,2.0566,2.0566,2.0566,2.1103,2.1543,2.1894,2.2402,2.2812,2.3144,2.3232,2.3506,2.3906,2.3906,2.416,2.4531,2.4453,2.4414,2.4336,2.3652,2.3389,2.3379,2.3291,2.3047,2.2754,2.2666,2.2412,2.208,2.1816,2.1621,2.1338,2.0625,2.0488,0.0,0.0,0.0,0.0,0.0,0.0,0.0,0.0,2.0879,2.1289,2.166,2.208,2.2451,2.2715,2.2822,2.2998,2.333,2.3682,2.3906,2.3906,2.4277,2.4414,2.4082,2.4268,2.4414,2.4414,2.4414,2.4322,2.4034,2.3839,2.3588,2.3373,2.223,2.1105,2.0101,1.8716,1.7595,1.6446,1.6146,1.5972,1.5919,1.5972,1.5939,1.5832,1.5885,1.5885,1.5832,1.5832,1.5832,1.5832,1.5832,1.5832,1.5832,1.5832,1.5832,1.5832,1.5832,1.5832,1.5832,0.0,0.0,0.0,0.0,0.0,0.0,0.0,0.0,0.0,0.0,0.0,0.0,0.0,0.0,0.0,0.0,0.0,0.0,1.7275,1.8125,1.8965,1.9873,2.0283,2.0518,2.0566,2.0566,2.0566,2.0566,2.1406,2.1836,2.1904,2.2705,2.3096,2.3154,2.3545,2.3955,2.4346,2.4346,2.46,2.4961,2.457,2.4414,2.4404,2.4307,2.4268,2.4228,2.3848,2.3682,2.3584,2.3203,2.3037,2.3057,2.3398,2.2978,2.2353,2.2256,2.1435,2.0635,2.0937,2.1367,2.1728,2.168,2.1943,2.2324,0.0,2.3125,2.3447,2.3496,2.3838,2.4033,2.3711,2.3955,2.4219,2.4268,2.4316,2.4346,2.4346,2.4717,2.498,2.4932,2.4629,2.4414,2.4414,2.4414,2.3942,2.2896,2.1735,2.0613,1.9867,1.8492,1.7818,1.788,1.7503,1.7252,1.7054,1.6754,1.648,1.6226,1.6486,1.6333,1.5838,1.6106,1.6079,1.5832,1.5832,1.5832,1.5832,1.5832,1.5832,1.5832,1.5832,1.5832,1.5832,1.5832,1.5832,1.5832,0.0,0.0,0.0,0.0,0.0,0.0,0.0,0.0,0.0,0.0,0.0,0.0,0.0,0.0,0.0,0.0,0.0,0.0,1.7637,1.9083,2.0237,2.1124,2.1339,2.1451,2.1451,2.0857,2.0566,2.0566,2.1445,2.1885,2.1904,2.2744,2.3271,2.3525,2.3711,2.4316,2.5185,2.5185,2.5576,2.6162,2.5742,2.5566,2.5508,2.499,2.4795,2.4707,2.4033,2.3623,0.0,0.0,2.3135,2.3164,2.335,2.3164,2.2783,2.2295,2.2109,2.21,2.2295,2.248,2.2676,2.293,2.331,2.373,2.417,2.4404,2.4609,2.4873,2.5059,2.5127,2.4961,2.4853,2.4795,2.4795,2.501,2.5098,2.4834,2.54,2.5644,2.5127,2.5137,2.5283,2.5537,2.484,2.444,2.4761,2.4254,2.3717,2.3054,2.2443,2.1804,2.1143,2.0101,1.9134,1.8346,1.725,1.6647,1.6526,1.6647,1.6486,1.6092,1.6219,1.6112,1.5832,1.5832,1.5832,1.5832,1.5832,1.5832,1.5832,1.5832,1.5832,1.5832,1.5832,1.5832,1.5832,0.0,0.0,0.0,0.0,0.0,0.0,0.0,0.0,0.0,0.0,0.0,0.0,0.0,0.0,0.0,0.0,0.0,0.0,0.0,1.9706,2.1108,2.2168,2.2339,0.0,2.2038,2.1717,2.1491,2.1191,2.2099,2.2529,2.2549,2.3083,2.3486,2.3799,2.4043,2.4805,2.5918,2.5918,2.6406,2.7148,2.6602,2.6387,2.6289,2.541,2.499,2.4775,2.3916,2.3408,0.0,0.0,2.2793,2.2812,2.293,2.2891,2.2676,2.206,2.2314,2.2842,2.3076,2.331,2.3594,2.4033,2.456,2.5078,2.5508,2.5605,2.5732,2.6182,2.6172,2.6094,2.6094,2.582,2.5605,2.5605,2.5879,2.5937,2.5498,2.5986,2.6064,2.5166,2.5054,2.5314,2.6162,2.5258,2.5195,2.6277,2.5961,2.5343,2.4627,2.4205,2.3384,2.2064,2.0793,1.9767,1.8775,1.7551,1.6907,1.6827,1.6907,1.6754,1.6393,1.6393,1.6273,1.6066,1.5985,1.5952,1.5945,1.5865,1.5832,1.5832,1.5832,1.5832,1.5832,1.5832,1.5832,1.5832,0.0,0.0,0.0,0.0,0.0,0.0,0.0,0.0,0.0,0.0,0.0,0.0,0.0,0.0,0.0,0.0,0.0,0.0,0.0,1.9677,2.1015,2.2622,2.3195,2.2999,2.2027,2.3459,2.37,2.2797,2.3724,2.4094,2.4115,2.3867,2.3779,2.3828,2.4658,2.5527,2.6367,2.6367,2.6865,2.7568,2.6728,2.6387,2.6289,2.541,2.4805,2.4326,2.3467,0.0,0.0,0.0,2.1924,2.1992,2.2402,2.2246,2.1924,2.1894,2.1904,2.21,2.292,2.374,2.4482,2.4922,2.5684,2.6435,2.6865,2.6953,2.708,2.7519,2.7275,2.6973,2.6973,2.6963,2.6953,2.6953,2.6973,2.6826,2.6406,2.6367,2.6064,2.5166,2.3895,2.3772,2.5518,2.5655,2.583,2.6357,2.4753,2.3194,2.1853,2.0538,1.922,1.7786,1.7779,1.7674,1.7674,1.7562,1.7415,1.7141,1.7422,1.7255,1.6693,1.6693,1.6687,1.666,1.638,1.6259,1.6239,1.5945,1.5832,1.5832,1.5832,1.5832,1.5832,1.5832,1.5832,1.5832,0.0,0.0,0.0,0.0,0.0,0.0,0.0,0.0,0.0,0.0,0.0,0.0,0.0,0.0,0.0,0.0,0.0,0.0,0.0,1.9467,2.1329,2.2616,2.3491,2.414,2.4494,2.4389,2.4346,2.4459,2.5021,2.4925,2.4219,2.465,2.4625,2.4248,2.5127,2.5996,2.6807,2.6807,2.7295,2.7959,2.6533,2.6133,2.623,2.4775,2.4131,2.3848,0.0,0.0,0.0,0.0,2.1885,2.1904,2.2051,2.2002,2.1943,2.2217,2.251,2.292,2.376,2.4629,2.5469,2.6182,2.6797,2.7344,2.7764,2.7861,2.79,2.8057,2.7744,2.7441,2.7441,2.6982,2.6602,2.6602,2.6602,2.6445,2.6016,2.6201,2.5957,2.4775,2.4756,2.4948,2.5303,2.4752,2.4984,2.6248,2.5833,2.5107,2.4421,2.3899,2.3393,2.2985,2.2064,2.1651,2.1651,2.0735,1.9774,1.875,1.7538,1.7001,1.6987,1.6593,1.6526,1.67,1.66,1.6446,1.6266,1.6166,1.6005,1.5832,1.5832,1.5832,1.5832,1.5832,1.5832,1.5832,0.0,0.0,0.0,0.0,0.0,0.0,0.0,0.0,0.0,0.0,0.0,0.0,0.0,0.0,0.0,0.0,0.0,0.0,0.0,0.0,2.102,2.2395,2.3254,2.3997,2.4613,2.4597,2.4634,2.4757,2.5615,2.5712,2.5018,2.5656,2.5735,2.5358,2.6372,2.6916,2.7122,2.7232,2.726,2.7275,2.6006,2.5576,2.5547,2.4277,2.3789,0.0,0.0,0.0,0.0,0.0,2.1416,2.1416,2.1416,2.1523,2.1768,2.2344,2.293,2.3613,2.4609,2.5527,2.6367,2.707,2.7685,2.8223,2.8652,2.8623,2.8516,2.8516,2.7939,2.7393,2.7236,2.6631,2.6103,2.5937,2.5918,2.582,2.5537,2.5742,2.5596,2.4746,2.5146,2.5381,2.5098,2.4524,2.4815,2.6338,2.624,2.5828,2.5039,2.502,2.4815,2.4304,2.3384,2.2976,2.2976,2.2156,2.0977,1.9456,1.7749,1.7068,1.7141,1.6867,1.684,1.7014,1.6907,1.676,1.6567,1.6359,1.6159,1.5979,1.5872,1.5832,1.5832,1.5832,1.5832,1.5832,0.0,0.0,0.0,0.0,0.0,0.0,0.0,0.0,0.0,0.0,0.0,0.0,0.0,0.0,0.0,0.0,0.0,0.0,0.0,0.0,0.0,2.1794,2.2432,2.2722,2.2627,2.4206,2.4699,2.3979,2.5692,2.6439,2.6422,2.6837,2.7004,2.6986,2.8064,2.8065,2.7411,2.7516,2.6884,2.5664,2.5261,2.481,2.4307,2.3887,0.0,0.0,0.0,0.0,0.0,2.0869,2.0576,2.0596,2.0596,2.0918,2.1465,2.2295,2.3154,2.4102,2.542,2.6377,2.7129,2.7588,2.8301,2.8994,2.9414,2.917,2.8848,2.8828,2.7822,2.6816,2.6396,2.5986,2.5566,2.5137,2.5088,2.5098,2.5098,2.5098,2.5098,2.5068,2.5107,2.5127,2.5107,2.5127,2.5498,2.6357,2.5996,2.5137,2.3926,2.38,2.3176,2.1954,2.1853,2.1853,2.1853,2.1752,2.0881,1.9272,1.8151,1.7422,1.7181,1.7442,1.7562,1.7549,1.7268,1.7134,1.7061,1.6506,1.6266,1.6219,1.6034,1.5832,1.5832,1.5825,1.5832,1.5832,0.0,0.0,0.0,0.0,0.0,0.0,0.0,0.0,0.0,0.0,0.0,0.0,0.0,0.0,0.0,0.0,0.0,0.0,0.0,0.0,0.0,0.0,0.0,0.0,0.0,0.0,0.0,0.0,0.0,2.5853,2.5344,2.5853,2.5835,2.5524,2.6399,2.6831,2.6833,2.6662,2.6495,2.608,0.0,2.4097,2.3693,0.0,0.0,0.0,0.0,0.0,0.0,2.0967,2.0791,2.1064,2.1064,2.1582,2.2295,2.2822,2.3584,2.4551,2.5859,2.6611,2.7197,2.7949,2.8291,2.8476,2.8594,2.8291,2.79,2.7568,2.6738,2.5928,2.5488,2.5312,2.5205,2.5088,2.5352,2.5566,2.5566,2.5566,2.5439,2.5107,2.5644,2.5928,2.5596,2.5859,2.6269,2.6816,2.6162,2.5673,2.5685,2.5398,2.502,2.4707,2.4707,2.4707,2.4707,2.2667,2.15,2.1006,1.854,1.7335,1.7468,1.7328,1.7261,1.7255,1.7181,1.6901,1.6486,1.6333,1.6146,1.6027,1.6885,1.6669,1.592,1.685,1.6574,1.5832,0.0,0.0,0.0,0.0,0.0,0.0,0.0,0.0,0.0,0.0,0.0,0.0,0.0,0.0,0.0,0.0,0.0,0.0,0.0,0.0,0.0,0.0,0.0,0.0,0.0,0.0,0.0,0.0,0.0,0.0,0.0,2.5309,2.5581,2.5451,2.6382,2.6569,2.6184,0.0,0.0,0.0,0.0,0.0,0.0,0.0,0.0,0.0,0.0,0.0,0.0,2.1602,2.1582,2.1797,2.1797,2.2383,2.3154,2.3574,2.4316,2.5205,2.6133,2.6699,2.7178,2.7851,2.8018,2.8066,2.8252,2.7822,2.7256,2.6826,2.5898,2.5019,2.459,2.4346,2.4219,2.4228,2.4443,2.4736,2.5107,2.5322,2.5498,2.5625,2.6084,2.6367,2.6299,2.6357,2.6641,2.7256,2.6328,2.5928,2.6367,2.5977,2.582,2.6016,2.584,2.5742,2.5742,2.3583,2.218,2.1403,1.9271,1.7964,1.7388,1.7964,1.7874,1.725,1.8339,1.826,1.7316,1.7741,1.7765,1.7675,1.828,1.8041,1.7483,1.8226,1.8041,1.739,0.0,0.0,0.0,0.0,0.0,0.0,0.0,0.0,0.0,0.0,0.0,0.0,0.0,0.0,0.0,0.0,0.0,0.0,0.0,0.0,0.0,0.0,0.0,0.0,0.0,0.0,0.0,0.0,0.0,0.0,0.0,0.0,0.0,0.0,0.0,0.0,0.0,0.0,0.0,0.0,0.0,0.0,0.0,0.0,0.0,0.0,0.0,0.0,0.0,0.0,2.2646,2.2617,2.2734,2.331,2.4053,2.4531,2.5185,2.584,2.6338,2.6699,2.7031,2.7471,2.7539,2.7598,2.7959,2.7373,2.6641,2.6211,2.5176,2.4189,2.3711,2.3359,2.3144,2.3154,2.3213,2.3564,2.4463,2.4863,2.542,2.6357,2.6475,2.6621,2.6982,2.6738,2.6846,2.7529,2.6494,2.6016,2.6455,2.6006,2.5908,2.6289,2.5937,2.5742,2.5742,2.4402,2.3008,2.1477,2.0397,1.9177,1.7811,1.9192,1.9045,1.7844,2.0114,2.0189,1.8754,1.9589,1.9906,1.9824,1.9795,1.967,1.9497,1.967,1.967,1.9497,0.0,0.0,0.0,0.0,0.0,0.0,0.0,0.0,0.0,0.0,0.0,0.0,0.0,0.0,0.0,0.0,0.0,0.0,0.0,0.0,0.0,0.0,0.0,0.0,0.0,0.0,0.0,0.0,2.0969,0.0,0.0,0.0,0.0,0.0,0.0,0.0,0.0,0.0,0.0,0.0,0.0,0.0,0.0,0.0,0.0,0.0,0.0,0.0,0.0,0.0,2.334,2.3174,2.3867,2.4434,2.5,2.581,2.5898,2.5908,2.6689,2.6709,2.6602,2.7021,2.6865,2.6631,2.6699,2.6035,2.5283,2.4844,2.4297,2.3662,2.2881,2.2969,2.3154,2.3144,2.3447,2.4111,2.5332,2.5254,2.5527,2.6758,2.6904,2.6934,2.7012,2.7275,2.7353,2.7148,2.6602,2.6465,2.6885,2.6162,2.5771,2.585,2.5781,2.5742,2.5742,2.4402,2.3547,2.3277,2.1921,2.1212,2.0953,2.1221,2.105,2.0512,2.0999,2.0629,1.9833,1.9956,1.9851,1.9671,2.0602,2.0395,1.9579,2.0666,2.0395,1.9497,0.0,0.0,0.0,0.0,0.0,0.0,0.0,0.0,0.0,0.0,1.3066,1.3331,0.0,0.0,0.0,0.0,0.0,0.0,0.0,0.0,0.0,0.0,0.0,0.0,0.0,1.9155,1.9581,1.9951,0.0,2.0454,2.0795,2.1105,2.1428,2.1898,2.2708,2.3216,0.0,0.0,0.0,0.0,0.0,0.0,0.0,0.0,0.0,0.0,0.0,0.0,0.0,0.0,2.332,2.334,2.4414,2.5059,2.5498,2.5928,2.5908,2.582,2.624,2.6201,2.6094,2.6299,2.6025,2.5703,2.5703,2.5029,2.4346,2.4131,2.375,2.333,2.291,2.2832,2.2969,2.3408,2.3281,2.3652,2.5176,2.5205,2.5469,2.6562,2.6689,2.6865,2.7314,2.7139,2.7197,2.7646,2.6875,2.6572,2.6992,2.6621,2.6201,2.5752,2.5957,2.5967,2.5742,2.502,2.4402,2.3683,2.3076,2.2366,2.1752,2.2458,2.2153,2.1295,2.2682,2.2554,2.1456,2.211,2.2188,2.2117,2.2665,2.2444,2.1807,2.2357,2.2039,2.1409,0.0,0.0,0.0,0.0,0.0,0.0,0.0,1.2881,1.2881,1.2881,1.3302,1.3647,1.389,1.4596,0.0,0.0,0.0,0.0,0.0,0.0,0.0,0.0,0.0,0.0,0.0,0.0,0.0,1.9648,1.9703,0.0,0.0,0.0,0.0,0.0,2.1547,2.191,2.197,2.3101,0.0,0.0,0.0,2.3246,0.0,0.0,0.0,0.0,0.0,0.0,0.0,0.0,2.3018,2.3203,2.4316,2.5088,2.5635,2.582,2.581,2.5742,2.5742,2.5664,2.5566,2.5478,2.5117,2.4795,2.4795,2.4199,2.3652,2.3652,2.3379,2.3105,2.3018,2.2734,2.2734,2.3408,2.2949,2.3115,2.4824,2.5068,2.543,2.6406,2.6523,2.6787,2.7461,2.6924,2.6943,2.7949,2.709,2.6592,2.6728,2.6738,2.6435,2.5762,2.6074,2.6084,2.5742,2.5742,2.5128,2.4097,2.4097,2.3592,2.2567,2.3683,2.3413,2.2316,2.4315,2.4421,2.3084,2.4034,2.4307,2.4141,2.4141,2.3935,2.3652,2.3652,2.3437,2.3135,0.0,0.0,0.0,0.0,0.0,0.0,0.0,1.2881,1.2881,1.2881,1.3352,1.3919,1.4455,1.4918,0.0,0.0,0.0,0.0,0.0,0.0,0.0,0.0,0.0,0.0,0.0,0.0,0.0,1.9071,1.9336,0.0,0.0,0.0,0.0,0.0,0.0,2.1076,2.1055,2.1783,0.0,0.0,0.0,0.0,0.0,0.0,0.0,0.0,0.0,2.2839,2.2274,2.2656,2.2739,2.2656,2.3174,2.416,2.5293,2.6094,2.6045,2.5742,2.5742,2.5439,2.5029,2.4639,2.4219,2.3906,2.3906,2.3545,2.3193,2.3193,2.3164,2.3027,2.2637,2.2539,2.2539,2.2617,2.2568,2.3115,2.4824,2.5068,2.5537,2.6807,2.6953,2.6992,2.707,2.7002,2.7002,2.7129,2.7021,2.6631,2.5898,2.585,2.582,2.5742,2.5781,2.5781,2.5742,2.5742,2.5635,2.5528,2.5528,2.543,2.5323,2.543,2.5411,2.5275,2.5577,2.51,2.4229,2.4322,2.3955,2.3252,2.3252,2.3232,2.3193,2.3193,2.3174,2.3135,0.0,0.0,0.0,0.0,0.0,0.0,0.0,1.3094,1.3094,1.3094,1.3571,1.4175,1.4778,1.5444,1.6011,0.0,0.0,0.0,0.0,0.0,0.0,0.0,0.0,0.0,0.0,0.0,1.8827,1.9133,1.9633,0.0,0.0,0.0,0.0,0.0,0.0,2.0588,2.0165,2.1148,0.0,0.0,0.0,0.0,0.0,0.0,0.0,0.0,0.0,0.0,2.164,2.1917,2.1902,2.1816,2.2256,2.2744,2.3369,2.4492,2.4883,2.5,2.5264,2.5205,2.4961,2.4521,2.3906,2.3408,2.3398,2.3066,2.2832,2.3086,2.3135,2.3086,2.292,2.2685,2.2598,2.2852,2.2461,2.2637,2.4092,2.4072,2.4385,2.5693,2.584,2.6152,2.6943,2.6553,2.625,2.625,2.6494,2.6377,2.5771,2.5986,2.6006,2.5742,2.5742,2.5742,2.5742,2.5742,2.5742,2.5742,2.5742,2.5742,2.5742,2.5742,2.5742,2.5723,2.5449,2.5137,2.4785,2.4521,2.4219,2.3906,2.3906,2.375,2.3525,2.3525,2.3359,2.3135,0.0,0.0,0.0,0.0,0.0,0.0,1.3372,1.3362,1.3362,1.3362,1.3803,1.4374,1.5133,1.5922,1.6579,1.709,0.0,0.0,0.0,0.0,0.0,0.0,0.0,0.0,0.0,0.0,1.8667,1.9093,1.9575,2.0072,0.0,0.0,2.0699,2.0287,0.0,0.0,0.0,0.0,0.0,0.0,0.0,0.0,0.0,0.0,0.0,0.0,0.0,0.0,0.0,0.0,0.0,2.1094,2.1396,0.0,0.0,2.3037,2.3711,2.4111,2.4424,2.459,2.458,2.4141,2.3496,2.2998,2.3115,2.2812,2.2627,2.3057,2.3135,2.3135,2.3135,2.29,2.2793,0.0,0.0,2.2617,2.3643,2.3633,2.3906,2.4941,2.5068,2.5527,2.6709,2.6396,2.6016,2.5752,2.6143,2.6201,2.5762,2.6025,2.6055,2.5752,2.5742,2.5742,2.5742,2.5742,2.5742,2.5742,2.5742,2.5674,2.5547,2.5674,2.5596,2.5332,2.5146,2.4922,2.4668,2.4355,2.416,2.4043,2.4043,2.3857,2.3594,2.3594,2.3408,2.3135,0.0,0.0,0.0,0.0,0.0,0.0,0.0,1.3763,1.3763,1.3763,1.3926,1.4419,1.5553,1.6171,1.6883,1.7818,0.0,0.0,0.0,0.0,0.0,0.0,0.0,0.0,0.0,0.0,1.8302,1.8798,1.8946,1.9543,2.0515,2.0528,2.0692,2.0949,0.0,0.0,0.0,0.0,0.0,0.0,0.0,0.0,0.0,0.0,0.0,0.0,0.0,0.0,0.0,0.0,0.0,0.0,0.0,0.0,0.0,0.0,2.2842,2.3174,2.3184,2.3486,2.3701,2.3262,2.2832,2.2627,2.3047,2.2812,2.2627,2.3057,2.3135,2.3135,2.3135,2.3135,2.3135,2.3135,2.3135,2.3281,2.3721,2.4141,2.457,2.501,2.5068,2.542,2.6309,2.6768,2.665,2.5801,2.6143,2.6201,2.5762,2.5742,2.5742,2.5742,2.5742,2.5742,2.5742,2.5742,2.5742,2.5742,2.5742,2.5508,2.5088,2.5537,2.5264,2.4453,2.4883,2.459,2.3799,2.3799,2.3545,2.3154,2.3154,2.3154,2.3144,2.3144,2.3144,2.3135,0.0,0.0,0.0,0.0,0.0,0.0,0.0,1.4444,1.4444,1.4444,1.4536,1.5054,1.6176,1.655,1.7166,1.8305,0.0,0.0,0.0,0.0,0.0,0.0,0.0,0.0,0.0,0.0,0.0,1.8798,1.9209,1.9679,2.0177,2.1038,2.1227,2.0885,2.1207,2.0882,0.0,0.0,0.0,0.0,0.0,0.0,2.3478,0.0,0.0,0.0,0.0,0.0,0.0,0.0,0.0,0.0,0.0,0.0,0.0,0.0,0.0,2.2353,2.2637,2.2812,2.2881,2.2744,2.2168,2.1748,2.2187,2.2178,2.2207,2.2627,2.2939,2.3135,2.3135,2.3135,2.3135,2.3135,2.3135,2.3184,2.333,2.3711,2.415,2.457,2.542,2.5967,2.5947,2.6338,2.6348,2.5781,2.5869,2.5889,2.5742,2.5742,2.5742,2.5742,2.5742,2.5742,2.5742,2.5742,2.5742,2.5742,2.5742,2.5664,2.5518,2.5352,2.5127,2.4834,2.4385,2.4043,2.3769,2.3467,2.3262,2.3135,2.3135,2.3135,2.3135,2.3135,2.3135,2.3135,0.0,0.0,0.0,0.0,0.0,0.0,0.0,1.5028,1.5028,1.5028,1.513,1.5614,1.6758,1.7034,1.7571,1.8732,0.0,0.0,0.0,0.0,0.0,0.0,0.0,0.0,0.0,0.0,1.853,1.8637,1.8901,1.9313,1.978,2.0625,2.1046,2.1061,2.1323,2.1186,0.0,0.0,0.0,0.0,0.0,0.0,2.2434,0.0,0.0,0.0,0.0,0.0,0.0,0.0,0.0,0.0,0.0,0.0,0.0,0.0,2.0264,2.1074,2.1826,2.2148,2.2275,2.2275,2.1748,2.1348,2.1787,2.1758,2.1758,2.2187,2.2607,2.29,2.29,2.3027,2.3135,2.3135,2.3135,2.3135,2.3135,2.3516,2.3945,2.4365,2.5439,2.5967,2.5527,2.5889,2.6025,2.5752,2.5742,2.5742,2.5742,2.5742,2.5742,2.5742,2.5742,2.5742,2.5742,2.5742,2.5742,2.5742,2.5742,2.5644,2.5478,2.5195,2.4893,2.456,2.4023,2.3691,0.0,2.3252,2.3135,2.3135,2.3135,2.3135,2.3135,2.3135,2.3135,2.3135,0.0,0.0,0.0,0.0,0.0,0.0,0.0,0.0,0.0,0.0,1.5635,1.6107,1.7243,1.7509,1.8056,0.0,0.0,0.0,0.0,0.0,0.0,0.0,0.0,0.0,0.0,1.8239,1.856,1.8422,1.8159,1.8499,1.9333,1.9456,2.0172,2.1283,2.1001,2.1164,0.0,0.0,0.0,0.0,0.0,0.0,0.0,0.0,0.0,0.0,0.0,0.0,0.0,0.0,0.0,0.0,0.0,0.0,0.0,0.0,0.0,0.0,0.0,2.1416,2.1748,2.1748,2.1465,2.1289,2.1699,2.1504,0.0,2.1758,2.2178,2.2471,2.2471,2.2812,2.3096,2.3096,2.3125,2.3135,2.3135,2.3545,2.3975,2.4375,2.5195,2.5547,2.5068,2.5459,2.5723,2.5693,2.5723,2.5723,2.5693,2.5723,2.5742,2.5742,2.5742,2.5742,2.5742,2.5742,2.5742,2.5742,2.5742,2.5508,2.5068,2.5039,2.457,2.3789,2.375,2.3516,2.3135,2.3135,2.3135,2.3135,2.3135,2.3135,2.3135,2.3135,2.3135,2.3135,0.0,0.0,0.0,0.0,0.0,0.0,0.0,0.0,0.0,0.0,0.0,1.6345,1.7143,1.754,0.0,0.0,0.0,0.0,0.0,0.0,0.0,0.0,0.0,0.0,0.0,1.8549,1.8839,1.8691,1.7961,1.7924,1.8651,1.8826,1.9376,2.0177,2.1061,0.0,0.0,0.0,0.0,0.0,0.0,0.0,0.0,0.0,0.0,0.0,1.9454,1.9196,0.0,0.0,0.0,0.0,0.0,0.0,0.0,0.0,1.9023,1.9355,1.9658,0.0,2.0381,2.0381,2.0547,2.0752,0.0,0.0,2.126,2.1367,0.0,2.2031,2.2031,2.2373,2.2656,2.2656,2.293,2.3135,2.3135,2.3789,2.4307,2.4404,2.5195,2.543,2.4648,2.5283,2.5596,2.5254,2.5547,2.5586,2.5244,2.5557,2.5742,2.5742,2.5742,2.5742,2.5742,2.5742,2.5742,2.5742,2.5742,2.5508,2.5059,2.4727,2.4287,2.3769,2.3437,2.3232,2.3135,2.3135,2.3135,2.3135,2.3135,2.3135,2.3135,2.3135,2.3135,2.3135,0.0,0.0,0.0,0.0,0.0,0.0,0.0,0.0,0.0,0.0,0.0,0.0,0.0,0.0,0.0,0.0,0.0,0.0,0.0,0.0,0.0,0.0,0.0,0.0,0.0,1.8521,1.8811,1.8798,1.7897,1.7635,1.7954,1.7827,1.8266,1.9304,2.0732,0.0,0.0,0.0,0.0,0.0,1.9922,0.0,0.0,0.0,0.0,0.0,1.8742,1.8575,0.0,1.7874,1.7871,1.8066,0.0,0.0,0.0,0.0,1.8516,1.8701,1.8701,1.915,1.9629,1.9629,1.9805,2.0029,2.0225,0.0,0.0,0.0,0.0,0.0,2.1592,2.1934,2.2295,2.248,2.2705,2.2988,2.3379,2.3838,2.4277,2.4668,2.5137,2.5322,2.5049,2.5459,2.5635,2.5391,2.541,2.541,2.5371,2.541,2.5527,2.5732,2.5742,2.5742,2.5742,2.5742,2.5742,2.5742,2.5527,2.5303,2.5049,2.4414,2.4004,2.3769,2.333,2.3135,2.3135,2.3135,2.3135,2.3135,2.3135,2.3135,2.3135,2.3135,2.3135,2.3135,0.0,0.0,0.0,0.0,0.0,0.0,0.0,0.0,0.0,0.0,0.0,0.0,0.0,0.0,0.0,0.0,0.0,0.0,0.0,0.0,0.0,0.0,0.0,0.0,1.7912,1.8301,1.8556,1.8665,1.7831,1.7403,1.7306,1.68,1.7333,1.8802,2.0333,0.0,0.0,0.0,2.0635,2.0107,1.9605,0.0,0.0,0.0,0.0,0.0,0.0,0.0,0.0,1.7655,1.7625,1.7626,1.7554,0.0,0.0,0.0,0.0,0.0,1.7988,1.8535,1.9111,1.917,1.9238,1.9375,1.9736,0.0,0.0,0.0,0.0,0.0,2.1123,2.1543,2.2002,2.2353,2.2578,2.3008,2.3867,2.3984,2.4228,2.4893,2.5088,2.5264,2.5518,2.5654,2.5684,2.5547,2.5244,2.5176,2.543,2.5205,2.5244,2.5625,2.5703,2.5742,2.5742,2.5742,2.5742,2.5732,2.5283,2.5029,2.4941,2.415,2.375,2.3672,2.3301,2.3135,2.3135,2.3135,2.3135,2.3135,2.3135,2.3135,2.3135,2.3135,2.3135,2.3135,0.0,0.0,0.0,0.0,0.0,0.0,0.0,0.0,0.0,0.0,0.0,0.0,0.0,0.0,0.0,0.0,0.0,0.0,0.0,0.0,0.0,0.0,0.0,1.799,1.7513,1.7887,1.8067,1.7959,1.7015,1.6751,1.7027,1.6464,1.7346,1.9487,2.0153,2.089,2.1698,2.1169,2.0786,2.0529,1.9998,0.0,0.0,0.0,0.0,0.0,0.0,0.0,0.0,1.7169,1.717,1.7378,1.7162,0.0,0.0,0.0,0.0,0.0,1.791,1.8105,1.8291,1.8643,1.9014,1.9307,1.9365,0.0,0.0,0.0,0.0,0.0,2.0596,2.1328,2.1904,2.1973,2.2891,2.3896,2.4746,2.4873,2.4785,2.4551,2.5176,2.5361,2.4687,2.5293,2.543,2.4678,2.4902,2.4785,2.4121,2.4707,2.5098,2.5166,2.5537,2.5742,2.5742,2.5742,2.5742,2.5732,2.5283,2.4873,2.4502,2.4014,2.3584,2.3232,2.3164,2.3135,2.3135,2.3135,2.3135,2.3135,2.3135,2.3135,2.3135,2.3135,2.3135,2.3135,0.0,0.0,0.0,0.0,0.0,0.0,0.0,0.0,0.0,0.0,0.0,0.0,0.0,0.0,0.0,0.0,0.0,0.0,0.0,0.0,0.0,0.0,1.8204,1.7953,1.7388,1.7568,1.775,1.7894,1.7117,1.6738,1.68,1.6656,1.7529,1.9245,2.0088,2.0986,2.1949,2.1537,2.1094,2.0582,0.0,0.0,0.0,0.0,0.0,0.0,0.0,0.0,0.0,0.0,1.6831,1.7053,1.7023,0.0,0.0,0.0,0.0,0.0,1.7559,1.75,1.748,1.8135,1.8447,1.8594,1.8594,1.8769,0.0,0.0,0.0,2.0049,2.0478,2.1094,2.1758,2.2451,2.3252,2.4014,2.4629,2.4717,2.4727,2.4766,2.5127,2.5312,2.5146,2.5498,2.5566,2.5166,2.5088,2.5,2.4853,2.4766,2.4941,2.541,2.5166,2.5254,2.5732,2.5264,2.5146,2.5371,2.4922,2.4492,2.4062,2.3633,2.333,2.3135,2.3135,2.3135,2.3135,2.3135,2.3135,2.3135,2.3135,2.3135,2.3135,2.3135,2.3135,2.3135,0.0,0.0,0.0,0.0,0.0,0.0,0.0,0.0,0.0,0.0,0.0,0.0,0.0,0.0,0.0,0.0,0.0,0.0,0.0,0.0,1.9007,1.8053,1.8016,1.7752,1.7187,1.7187,1.733,1.765,1.7103,1.6785,1.6596,1.687,1.7745,1.912,2.0153,2.1175,2.2185,2.1851,2.14,2.0828,0.0,0.0,0.0,0.0,0.0,0.0,0.0,0.0,0.0,0.0,0.0,0.0,0.0,0.0,0.0,1.694,1.6822,1.6733,1.7238,1.7111,1.6929,1.7488,0.0,1.791,1.8115,1.8408,1.8906,1.9873,2.0068,2.0234,2.0771,2.123,2.1914,2.3105,2.3652,2.4092,2.4512,2.4658,2.4853,2.5185,2.5225,2.5361,2.5703,2.5742,2.5693,2.5586,2.5264,2.5137,2.5273,2.4736,2.4678,2.5264,2.4717,2.4746,2.542,2.4756,2.4639,2.5059,2.4531,2.4102,2.3769,2.334,2.3135,2.3135,2.3135,2.3135,2.3135,2.3135,2.3135,2.3135,2.3135,2.3135,2.3135,2.3135,2.3135,2.3135,0.0,0.0,0.0,0.0,0.0,0.0,0.0,0.0,0.0,0.0,0.0,0.0,0.0,0.0,0.0,0.0,0.0,0.0,0.0,0.0,1.8053,1.7463,1.7438,1.7174,1.6597,1.6572,1.6597,1.6591,1.651,1.6495,1.6596,1.687,1.7883,1.9602,2.0265,2.1175,2.2197,2.1963,2.1765,2.1588,2.1285,0.0,0.0,0.0,0.0,0.0,0.0,0.0,0.0,0.0,0.0,0.0,0.0,0.0,1.6842,1.6953,1.6788,1.6648,1.7099,1.7189,1.7026,1.6545,1.6953,1.7637,1.8418,1.8613,1.8994,2.0264,2.0518,2.0781,2.1631,2.2139,2.2705,2.3594,2.4092,2.4521,2.4961,2.5381,2.5654,2.5684,2.5684,2.5703,2.5732,2.5742,2.5566,2.5146,2.5088,2.4736,2.3965,2.4238,2.4268,2.3935,2.4248,2.4443,2.4512,2.4453,2.4639,2.5059,2.4228,2.3818,2.3769,2.334,2.3135,2.3135,2.3135,2.3135,2.3135,2.3135,2.3135,2.3135,2.3135,2.3135,2.3135,2.3135,2.3135,2.3135,0.0,0.0,0.0,0.0,0.0,0.0,0.0,0.0,0.0,0.0,0.0,0.0,0.0,0.0,0.0,0.0,0.0,0.0,0.0,0.0,1.7953,1.74,1.7388,1.7112,1.6522,1.6522,1.6522,1.6522,1.6436,1.6547,1.6873,1.7207,1.8073,1.9353,2.0061,2.0775,2.1448,2.1644,2.1547,2.1339,2.1346,2.1146,0.0,0.0,0.0,0.0,0.0,0.0,0.0,0.0,1.7357,1.7545,0.0,1.706,1.6944,1.649,1.6374,1.6471,1.704,1.7395,1.7486,1.7104,1.7592,0.0,0.0,1.8057,1.8535,1.9561,2.0195,2.0918,2.207,2.2402,2.2793,2.3652,2.3926,2.418,2.46,2.4814,2.4912,2.4912,2.5156,2.5322,2.5322,2.5576,2.5664,2.5498,2.5488,2.5215,2.4619,2.4482,2.4346,2.418,2.3818,2.3877,2.4414,2.3887,2.3838,2.4268,2.4209,2.3896,2.3389,2.3496,2.3398,2.3135,2.3135,2.3135,2.3135,2.3135,2.3135,2.3135,2.3135,2.3135,2.3135,2.3135,2.3135,2.3135,0.0,0.0,0.0,0.0,0.0,0.0,0.0,0.0,0.0,0.0,0.0,0.0,0.0,0.0,0.0,0.0,0.0,0.0,0.0,0.0,1.7501,1.7124,1.7112,1.6923,1.6522,1.6522,1.6522,1.6522,1.6436,1.6647,1.7069,1.7445,1.8129,1.9019,1.9912,2.0496,2.0865,2.1305,2.146,2.1416,2.1509,2.1416,0.0,0.0,0.0,0.0,0.0,0.0,0.0,0.0,1.7577,0.0,0.0,0.0,0.0,1.6407,1.6373,1.6567,1.7137,1.7554,1.7777,1.7768,0.0,0.0,1.8157,1.83,1.8701,1.9697,2.0586,2.1494,2.2519,2.2607,2.2754,2.3467,2.3701,2.3896,2.418,2.4336,2.4414,2.4414,2.4678,2.4912,2.5059,2.5352,2.5586,2.5723,2.5605,2.5332,2.4883,2.4453,2.416,2.4014,2.3447,2.3418,2.4004,2.3428,2.3291,2.3584,2.4014,2.3838,2.3154,2.3447,2.3418,2.3135,2.3135,2.3135,2.3135,2.3135,2.3135,2.3135,2.3135,2.3135,2.3135,2.3135,2.3135,2.3135,0.0,0.0,0.0,0.0,0.0,0.0,0.0,0.0,0.0,0.0,0.0,0.0,0.0,0.0,0.0,0.0,0.0,0.0,0.0,1.6522,1.6522,1.6522,1.6522,1.6522,1.6522,1.6522,1.6522,1.6522,1.6436,1.6691,1.7231,1.7612,1.8093,1.8658,1.9899,2.0424,2.0436,2.094,2.1555,2.2064,2.1888,2.1606,2.1332,0.0,0.0,0.0,0.0,0.0,0.0,0.0,1.7919,1.7709,0.0,0.0,0.0,1.6815,1.6813,1.6859,1.7335,1.7634,1.7845,1.8385,0.0,0.0,1.9494,1.9576,1.9648,2.0967,2.1914,2.2637,2.3057,2.2793,2.2656,2.3076,2.3496,2.3779,2.3779,2.4141,2.4404,2.4404,2.4414,2.458,2.501,2.5059,2.5254,2.5693,2.5322,2.4883,2.4443,2.4014,2.3584,2.3154,2.3135,2.3135,2.3135,2.3135,2.3135,2.3144,2.3574,2.3555,2.3135,2.3144,2.3144,2.3135,2.3135,2.3135,2.3135,2.3135,2.3135,2.3135,2.3135,2.3135,2.3135,2.3135,2.3135,2.3135,0.0,0.0,0.0,0.0,0.0,0.0,0.0,0.0,0.0,0.0,0.0,0.0,0.0,0.0,0.0,0.0,0.0,0.0,0.0,1.6522,1.6522,1.6522,1.6522,1.6522,1.6522,1.6522,1.6522,1.6522,1.6479,1.6767,1.7343,1.7447,1.7822,1.8359,1.8696,1.8883,1.8896,1.9703,2.02,2.0412,2.1026,2.1219,2.0998,0.0,0.0,0.0,0.0,0.0,0.0,0.0,0.0,0.0,0.0,0.0,0.0,1.6949,1.7043,1.742,1.8097,1.9077,1.974,1.9055,1.9276,1.9583,1.9505,1.8889,1.8926,2.084,2.168,2.2295,2.3008,2.3037,2.2998,2.3115,2.3242,2.333,2.333,2.3437,2.3516,2.3516,2.3789,2.4023,2.416,2.4717,2.5127,2.5254,2.5137,2.4883,2.4443,2.4014,2.3584,2.3154,2.3135,2.3135,2.3135,2.3135,2.3135,2.3135,2.3271,2.3262,2.3154,2.3457,2.3428,2.3135,2.3135,2.3135,2.3135,2.3135,2.3135,2.3135,2.3135,2.3135,2.3135,2.3135,2.3135,2.3135,0.0,0.0,0.0,0.0,0.0,0.0,0.0,0.0,0.0,0.0,0.0,0.0,0.0,0.0,0.0,0.0,0.0,0.0,0.0,0.0,1.6522,1.6522,1.6522,1.6522,1.6522,1.6522,1.6522,1.6522,1.6522,1.6697,1.7049,1.7275,1.7438,1.7551,1.8003,1.8078,1.794,1.8709,1.927,1.9718,2.0283,2.0625,2.0742,0.0,0.0,0.0,0.0,0.0,0.0,0.0,0.0,0.0,0.0,0.0,0.0,1.7228,1.7319,1.7721,1.8625,1.9709,2.0438,2.0093,2.0095,2.0081,1.9687,1.9322,1.9492,2.1152,2.1699,2.2139,2.2988,2.2998,2.2939,2.3105,2.3135,2.3135,2.3135,2.3135,2.3135,2.3135,2.3369,2.3603,2.3769,2.4258,2.4629,2.4795,2.4648,2.4443,2.418,2.376,2.3408,2.3144,2.3135,2.3135,2.3135,2.3135,2.3135,2.3135,2.3135,2.3135,2.3154,2.3408,2.3389,2.3135,2.3135,2.3135,2.3135,2.3135,2.3135,2.3135,2.3135,2.3135,2.3135,2.3135,2.3135,2.3135,0.0,0.0,0.0,0.0,0.0,0.0,0.0,0.0,0.0,0.0,0.0,0.0,0.0,0.0,0.0,0.0,0.0,0.0,0.0,0.0,1.6522,1.6522,1.6522,1.6522,1.6522,1.6522,1.6522,1.6522,1.6522,1.6522,1.6522,1.7049,1.7024,1.6559,1.7589,1.7777,1.7338,1.789,1.8694,1.9585,1.9635,1.9922,2.0291,2.0064,0.0,0.0,0.0,0.0,0.0,0.0,0.0,0.0,1.8177,1.7634,1.7245,1.7568,1.7702,1.7934,1.8958,1.9785,2.0471,2.1157,2.0535,1.9841,2.013,2.0534,2.1045,2.1907,2.2145,2.2369,2.3103,2.285,2.2732,2.3066,2.3135,2.3135,2.3135,2.3135,2.3135,2.3135,2.3135,2.3291,2.3691,2.3769,2.3945,2.4336,2.4004,2.3789,2.3789,2.3379,2.3135,2.3135,2.3135,2.3135,2.3135,2.3135,2.3135,2.3135,2.3135,2.3135,2.3135,2.3135,2.3135,2.3135,2.3135,2.3135,2.3135,2.3135,2.3135,2.3135,2.3135,2.3135,2.3135,2.3135,2.3135,2.3135,0.0,0.0,0.0,0.0,0.0,0.0,0.0,0.0,0.0,0.0,0.0,0.0,0.0,0.0,0.0,0.0,0.0,0.0,0.0,0.0,1.6522,1.6522,1.6522,1.6522,1.6522,1.6522,1.6522,1.6522,1.6522,1.6522,1.6522,0.0,0.0,1.6522,0.0,1.681,1.6735,1.7313,1.7689,1.794,1.838,1.8618,1.8695,1.8523,1.861,0.0,0.0,0.0,0.0,0.0,0.0,0.0,1.8797,1.8548,1.8425,1.84,1.8474,1.866,1.9327,2.0337,2.1287,2.14,2.1692,2.1712,2.113,2.1603,2.2386,2.3046,2.3688,2.4073,2.3857,2.3721,2.3551,2.3153,2.3135,2.3135,2.3135,2.3135,2.3135,2.3135,2.3135,2.3174,2.3271,2.3584,2.3828,2.3916,2.3838,2.3789,2.3789,2.3379,2.3135,2.3135,2.3135,2.3135,2.3135,2.3135,2.3135,2.3135,2.3135,2.3135,2.3135,2.3135,2.3135,2.3135,2.3135,2.3135,2.3135,2.3135,2.3135,2.3135,2.3135,2.3135,2.3135,2.3135,2.3135,2.3135,0.0,0.0,0.0,0.0,0.0,0.0,0.0,0.0,0.0,0.0,0.0,0.0,0.0,0.0,0.0,0.0,0.0,0.0,0.0,0.0,0.0,0.0,1.6522,1.6522,1.6522,1.6522,1.6522,1.6522,1.6522,0.0,0.0,0.0,0.0,1.6522,0.0,1.6522,1.6534,1.6835,1.7137,1.74,1.7689,1.7965,1.8204,1.8097,1.8211,1.8411,1.8314,0.0,0.0,0.0,0.0,0.0,0.0,0.0,1.8859,1.8821,1.8821,1.9021,1.9558,2.0385,2.1162,2.1264,2.2031,2.2657,2.205,2.2858,2.3845,2.4412,2.4545,2.4326,2.3787,2.3627,2.3464,2.2935,2.2676,2.2676,2.3086,2.2969,2.291,2.3115,2.3135,2.3135,2.3135,2.335,2.3477,2.3477,2.3477,2.3477,2.3477,2.3262,2.3135,2.3135,2.3135,2.3135,2.3135,2.3135,2.3135,2.3135,2.3135,2.3135,2.3135,2.3135,2.3135,2.3135,2.3135,2.3135,2.3135,2.3135,2.3135,2.3135,2.3135,2.3135,2.3135,2.3135,2.3135,2.3135,0.0,0.0,0.0,0.0,0.0,0.0,0.0,0.0,0.0,0.0,0.0,0.0,0.0,0.0,0.0,0.0,0.0,0.0,0.0,0.0,0.0,0.0,1.6522,1.6522,1.6522,1.6522,1.6522,1.6522,0.0,0.0,0.0,0.0,0.0,1.6522,0.0,1.6522,1.6522,1.6522,1.6798,1.7237,1.7237,1.7501,1.7915,1.7915,1.7919,1.79,1.79,1.7867,1.7932,1.8511,0.0,0.0,0.0,0.0,1.8907,1.8945,1.8983,1.9145,1.966,2.0225,2.0807,2.1114,2.2089,2.2944,2.2793,2.3735,2.4808,2.5234,2.4908,2.4427,2.3824,2.3594,2.3293,2.2725,2.2193,2.2158,2.292,2.2734,2.2666,2.3086,2.3135,2.3135,2.3135,2.3135,2.3135,2.3135,2.3135,2.3135,2.3135,2.3135,2.3135,2.3135,2.3135,2.3135,2.3135,2.3135,2.3135,2.3135,2.3135,2.3135,2.3135,2.3135,2.3135,2.3135,2.3135,2.3135,2.3135,2.3135,2.3135,2.3135,2.3135,2.3135,2.3135,2.3135,2.3135,2.3135,0.0,0.0,0.0,0.0,0.0,0.0,0.0,0.0,0.0,0.0,0.0,0.0,0.0,0.0,0.0,0.0,0.0,0.0,1.6522,0.0,0.0,1.6522,1.6522,1.6522,1.6522,1.6522,1.6522,1.6522,0.0,0.0,0.0,0.0,0.0,1.6522,0.0,1.6522,1.6522,1.6522,1.6559,1.6635,1.6635,1.6672,1.6748,1.6748,1.7049,1.7488,1.7488,1.7743,1.8169,1.8232,1.8269,0.0,0.0,0.0,1.8405,1.8833,1.8983,1.9145,1.966,2.0225,2.0928,2.1918,2.2243,2.2502,2.2932,2.3629,2.413,2.4205,2.5261,2.599,2.5386,2.4657,2.3897,2.3262,2.2451,2.2051,2.2529,2.2549,2.2666,2.3086,2.3135,2.3135,2.3135,2.3135,2.3135,2.3135,2.3135,2.3135,2.3135,2.3135,2.3135,2.3135,2.3135,2.3135,2.3135,2.3135,2.3135,2.3135,2.3135,2.3135,2.3135,2.3135,2.3135,2.3135,2.3135,2.3135,2.3135,2.3135,2.3135,2.3135,2.3135,2.3135,2.3135,2.3135,2.3135,2.3135,0.0,0.0,0.0,0.0,0.0,0.0,0.0,0.0,0.0,0.0,0.0,0.0,0.0,0.0,0.0,1.6522,1.6522,1.6522,1.6522,1.6522,1.6522,1.6522,1.6522,1.6522,1.6522,1.6522,1.6522,0.0,0.0,0.0,0.0,1.6522,1.6522,0.0,0.0,0.0,0.0,1.6522,1.6522,1.6522,1.6522,1.6522,1.6522,1.6522,1.6672,1.6898,1.6898,1.7061,1.7313,1.7639,1.7739,1.7802,1.8103,0.0,0.0,0.0,1.8733,1.9145,1.966,2.0225,2.0832,2.1267,2.1857,2.2372,2.2623,2.3364,2.4004,2.4004,2.482,2.5418,2.4885,2.4704,2.4465,2.3875,2.3214,2.3065,2.3714,2.3113,2.2961,2.3969,2.3536,2.3555,2.4378,2.4261,2.4324,2.4935,2.4724,2.4493,2.4493,2.4493,2.4127,2.3223,2.3213,2.3102,2.2783,2.2549,2.2549,2.2783,2.2783,2.291,2.3135,2.3135,2.3135,2.3135,2.3135,2.3135,2.3135,2.3135,2.3135,2.3135,2.3135,2.3135,2.3135,2.3135,2.3135,2.3135,0.0,0.0,0.0,0.0,0.0,0.0,0.0,0.0,0.0,0.0,0.0,0.0,0.0,0.0,0.0,0.0,1.6522,1.6522,1.6522,1.6522,1.6522,1.6522,1.6522,1.6522,1.6522,1.6522,0.0,0.0,0.0,0.0,1.6522,1.6522,1.6522,0.0,1.6522,1.6522,0.0,1.6522,1.6522,1.6522,1.6522,1.6522,1.6522,1.6522,1.6522,1.6522,1.6522,1.6522,1.6584,1.7024,1.7162,1.7237,1.7639,1.7777,0.0,0.0,0.0,1.912,1.9497,2.0012,2.0489,2.068,2.128,2.197,2.2246,2.2962,2.3615,2.3753,2.4217,2.4539,2.4171,2.4393,2.4449,2.4016,2.3464,2.3408,2.4314,2.3525,2.3371,2.467,2.4108,2.4089,2.5258,2.5037,2.5127,2.5965,2.5663,2.5371,2.5371,2.5371,2.4875,2.3732,2.3402,2.3267,2.3059,2.2939,2.2939,2.3069,2.3385,2.3598,2.3715,2.3577,2.3724,2.3887,2.3387,2.3135,2.3135,2.3135,2.3135,2.3135,2.3135,2.3135,2.3135,2.3135,2.3135,2.3135,0.0,0.0,0.0,0.0,0.0,0.0,0.0,0.0,0.0,0.0,0.0,0.0,0.0,1.6522,1.6522,1.6522,1.6522,1.6522,1.6522,1.6522,1.6522,1.6522,1.6522,0.0,1.6522,1.6522,1.6522,0.0,0.0,0.0,1.6522,1.6522,1.6522,1.6522,1.6522,1.6522,1.6522,1.6522,1.6522,1.6522,1.6522,1.6522,1.6522,1.6522,1.6522,1.6522,1.6522,1.6522,1.6479,1.6559,1.6559,1.6572,1.6597,1.6609,1.671,0.0,0.0,0.0,1.9008,1.9447,1.9974,2.058,2.0756,2.1029,2.2071,2.2359,2.2548,2.3015,2.364,2.4054,2.4004,2.3697,2.3372,2.3329,2.2548,2.2332,2.3216,2.3338,2.3671,2.4715,2.4748,2.4748,2.4859,2.4837,2.4848,2.4893,2.4882,2.4859,2.4859,2.4859,2.477,2.4748,2.3801,2.3732,2.4703,2.5134,2.5134,2.4714,2.5747,2.6028,2.5444,2.4913,2.5294,2.6224,2.4059,2.3135,2.3135,2.3135,2.3135,2.3135,2.3135,2.3135,2.3135,2.3135,2.3135,2.3135,0.0,0.0,0.0,0.0,0.0,0.0,0.0,0.0,0.0,0.0,0.0,0.0,0.0,1.5467,1.5605,1.5957,1.6308,1.6522,1.6522,1.6522,1.6522,1.6522,1.6522,1.6522,1.6522,1.6522,1.6522,0.0,0.0,1.6522,1.6522,1.6522,1.6522,1.6522,1.6522,1.6522,1.6522,1.6522,1.6522,1.6522,1.6522,1.6522,1.6522,1.6522,1.6522,1.6522,1.6522,1.6522,1.6522,1.6522,1.6522,1.6522,1.6522,1.6522,1.6635,1.7212,1.7664,1.8129,1.8783,1.9171,1.9434,1.9974,2.0388,2.0819,2.1167,2.1531,2.1945,2.2498,2.2774,2.3025,2.3376,2.3852,2.4263,2.4263,2.3989,2.3911,2.4218,2.3696,2.3804,2.5157,2.4449,2.4494,2.625,2.5721,2.5745,2.6854,2.6612,2.6419,2.6419,2.6419,2.597,2.4966,2.4574,2.4276,2.3966,2.4457,2.4614,2.4446,2.4803,2.5217,2.5561,2.5403,2.5749,2.6472,2.5641,2.5305,2.5231,2.4457,2.4211,2.4125,2.3387,2.3135,2.3135,2.3135,2.3135,2.3135,0.0,0.0,0.0,0.0,0.0,0.0,0.0,0.0,0.0,0.0,0.0,0.0,0.0,0.0,1.513,1.5643,1.6195,1.6522,1.6522,1.6522,1.6522,1.6522,1.6522,1.6522,1.6522,1.6522,1.6522,0.0,0.0,0.0,0.0,1.6522,1.6522,1.6522,1.6522,1.6522,1.6522,1.6522,1.6522,1.6522,1.6522,1.6522,1.6522,1.6522,1.6522,1.6522,1.6522,1.6522,1.6522,1.6522,1.6522,1.6522,1.6522,1.6522,1.6597,1.6974,1.7225,1.7539,1.8279,1.8744,1.912,1.9459,1.9962,2.0426,2.0668,2.1008,2.1368,2.192,2.2033,2.2209,2.2761,2.3477,2.4042,2.423,2.4255,2.433,2.4519,2.3993,2.3969,2.5206,2.462,2.4719,2.6296,2.5937,2.5988,2.6929,2.6666,2.6527,2.6703,2.6716,2.6198,2.5016,2.53,2.4992,2.4036,2.4835,2.5156,2.4993,2.5331,2.5762,2.6174,2.6198,2.6633,2.73,2.714,2.6801,2.6472,2.5714,2.5378,2.5294,2.4553,2.4221,2.4221,2.4221,2.4221,2.4221,0.0,0.0,0.0,0.0,0.0,0.0,0.0,0.0,0.0,0.0,0.0,0.0,0.0,0.0,0.0,1.5643,1.6195,1.6522,1.6522,1.6522,1.6522,1.6522,1.6522,1.6522,1.6522,1.6522,1.6522,0.0,0.0,0.0,0.0,0.0,1.6522,1.6522,1.6522,1.6522,1.6522,1.6522,1.6522,1.6522,1.6522,1.6522,1.6522,1.6522,1.6522,1.6522,1.6522,1.6522,1.6522,1.6522,1.6522,1.6522,1.6522,1.6522,1.6522,1.6522,1.6911,1.7363,0.0,0.0,0.0,1.8983,1.9409,1.9949,2.0567,2.0706,2.0869,2.1355,2.1481,2.1656,2.2184,2.2284,2.2472,2.2965,2.3065,2.3265,2.3891,2.3966,2.418,2.4732,2.5222,2.5335,2.487,2.5259,2.5347,2.4858,2.482,2.5046,2.5548,2.5573,2.5407,2.504,2.5988,2.6,2.5075,2.6544,2.6992,2.6546,2.7544,2.7783,2.7318,2.7279,2.7839,2.8863,2.8319,2.7487,2.6543,2.6554,2.6554,2.6565,2.6472,2.6483,2.6483,2.6483,2.6483,2.6307,0.0,0.0,0.0,0.0,0.0,0.0,0.0,0.0,0.0,0.0,0.0,0.0,0.0,0.0,1.553,1.568,1.6195,1.6522,1.6522,1.6522,1.6522,1.6522,1.6522,1.6522,1.6522,1.6522,1.6522,1.6522,0.0,0.0,0.0,0.0,0.0,0.0,1.6522,1.6522,1.6522,1.6522,1.6522,1.6522,1.6522,1.6522,1.6522,1.6522,1.6522,1.6522,1.6522,1.6522,1.6522,1.6522,1.6522,1.6522,1.6522,1.6522,1.6522,1.6522,1.6635,1.6848,1.7262,0.0,0.0,0.0,0.0,0.0,1.9999,2.0363,2.0756,2.092,2.1204,2.1543,2.1681,2.1719,2.1895,2.2447,2.2874,2.3188,2.3351,2.3376,2.359,2.4155,2.3991,2.4079,2.4757,2.4594,2.4544,2.4808,2.482,2.4883,2.5021,2.5034,2.514,2.5462,2.569,2.589,2.6094,2.6534,2.6684,2.6533,2.6766,2.7042,2.7293,2.7294,2.7642,2.8335,2.8176,2.8147,2.822,2.7782,2.7683,2.7602,2.6801,2.6483,2.6483,2.6483,2.6483,2.6472,0.0,0.0,0.0,0.0,0.0,0.0,0.0,0.0,0.0,0.0,0.0,0.0,0.0,0.0,0.0,1.5693,1.6195,1.6522,1.6522,1.6522,1.6522,1.6522,1.6522,1.6522,1.6522,1.6522,1.6522,1.6522,0.0,0.0,0.0,0.0,0.0,0.0,0.0,1.665,1.665,1.665,1.6607,1.6522,1.6522,1.6522,1.6522,1.6522,1.6522,1.6522,1.6522,1.6672,1.6835,1.6597,1.6522,1.6522,1.6522,1.6522,1.6522,1.6522,1.6522,1.6597,1.6936,1.7601,1.8279,1.8606,0.0,0.0,1.9522,1.9911,2.0238,2.0024,2.0413,2.0865,2.1104,2.1142,2.133,2.1882,2.2435,2.2874,2.304,2.3078,2.3263,2.3602,2.3552,2.3653,2.4079,2.4054,2.4042,2.4117,2.4117,2.423,2.4469,2.4695,2.4958,2.5259,2.5272,2.5435,2.5774,2.5774,2.5887,2.6101,2.6101,2.6389,2.6942,2.718,2.7457,2.777,2.8009,2.8411,2.8875,2.8537,2.856,2.8767,2.8131,2.7879,2.7879,2.7879,2.7879,2.7799,0.0,0.0,0.0,0.0,0.0,0.0,0.0,0.0,0.0,0.0,0.0,0.0,0.0,0.0,0.0,0.0,1.6275,1.6565,1.6565,1.6522,0.0,1.6522,1.6522,1.6522,1.6522,1.6522,1.6522,1.6522,0.0,0.0,0.0,0.0,0.0,0.0,0.0,0.0,1.6918,1.696,1.682,1.6637,1.6565,1.6565,1.6595,1.6522,1.6552,1.6595,1.6522,1.6886,1.73,1.6785,1.6572,1.6522,1.6522,1.6522,1.6522,1.6522,1.6522,1.6522,1.6522,1.73,1.8129,1.8191,1.897,0.0,1.9158,1.9522,1.9748,1.9221,1.9535,2.0037,2.0489,2.0618,2.0752,2.1305,2.1807,2.2347,2.2962,2.3027,2.3078,2.3078,2.359,2.3703,2.3128,2.3602,2.369,2.3115,2.3078,2.3364,2.3879,2.4368,2.4657,2.4732,2.4732,2.4757,2.482,2.4883,2.5146,2.5598,2.5661,2.5963,2.6546,2.703,2.7281,2.7318,2.7871,2.8411,2.8925,2.8925,2.9277,2.9792,2.9792,2.9792,2.9792,2.9792,2.9792,2.9624,1.6876,0.0,0.0,0.0,0.0,0.0,0.0,0.0,0.0,0.0,0.0,0.0,0.0,0.0,0.0,0.0,1.6811,1.6833,1.6918,1.6748,0.0,1.6675,1.6565,1.6522,1.6522,1.6522,1.6522,1.6522,0.0,0.0,0.0,0.0,0.0,0.0,0.0,0.0,1.7157,1.7282,1.7352,1.7434,1.6876,1.685,1.7118,1.668,1.6752,1.7076,1.6637,1.6886,1.7363,1.725,1.6911,1.6522,1.6522,1.6522,1.6522,1.6522,1.6522,1.6522,1.6522,1.7024,1.7652,1.8091,1.8694,0.0,1.9572,2.0087,2.0338,1.9773,2.01,2.0388,2.0037,1.9974,2.0162,2.074,2.097,2.133,2.2334,2.2862,2.3078,2.3078,2.3178,2.3263,2.3078,2.3238,2.3263,2.3078,2.3078,2.3128,2.3301,2.3341,2.3678,2.4142,2.4167,2.4368,2.482,2.5234,2.5498,2.5598,2.6063,2.642,2.6546,2.703,2.7281,2.7318,2.7871,2.8411,2.8925,2.8925,2.9277,2.9792,2.9792,2.9792,2.9792,2.9792,2.9792,2.9792,1.7086,0.0,0.0,0.0,0.0,0.0,0.0,0.0,0.0,0.0,0.0,0.0,0.0,0.0,0.0,0.0,0.0,0.0,0.0,1.7044,1.6918,1.6846,1.6705,1.662,1.6693,1.662,1.662,1.6693,0.0,0.0,0.0,0.0,0.0,0.0,0.0,0.0,1.7693,1.7774,1.7841,1.7854,1.7434,1.7421,1.7666,1.7394,1.7312,1.7271,1.6993,1.7135,1.7463,1.8016,1.7827,1.7363,1.7363,1.7363,1.73,1.7036,1.6948,1.6886,1.6597,1.6936,1.7513,1.8066,1.8618,0.0,0.0,1.9836,2.0075,1.9522,1.9849,2.015,1.9861,1.9798,1.9899,2.0188,2.0476,2.0953,2.1782,2.2133,2.2523,2.3015,2.2887,2.2836,2.3053,2.3078,2.3078,2.3078,2.3078,2.3078,2.3078,2.3078,2.3263,2.3552,2.3565,2.3703,2.3979,2.4243,2.4657,2.5209,2.5498,2.5937,2.6546,2.703,2.7281,2.7318,2.7871,2.8411,2.8925,2.8925,2.9277,2.9792,2.9792,2.9792,2.9792,2.9792,2.9792,2.9792,1.7282,0.0,0.0,0.0,0.0,0.0,0.0,0.0,0.0,0.0,0.0,0.0,1.6753,1.725,1.7598,1.7639,0.0,0.0,1.7598,1.7393,1.724,1.7086,1.6876,1.6803,1.6876,1.6803,1.6803,1.6876,0.0,0.0,0.0,0.0,0.0,0.0,0.0,0.0,1.8307,1.8347,1.8319,1.8302,1.8173,1.8173,1.8263,1.8145,1.7907,1.7612,1.7604,1.7519,1.7551,1.8656,1.8593,1.8041,1.81,1.7965,1.779,1.735,1.7212,1.7112,1.6647,1.6861,1.7375,1.8041,1.8543,1.892,0.0,0.0,0.0,1.9258,1.951,1.9798,1.9798,1.9798,1.9798,1.9798,2.0188,2.0727,2.1393,2.1393,2.182,2.3138,2.2723,2.2573,2.3238,2.3301,2.3263,2.3078,2.3238,2.319,2.3078,2.3078,2.3078,2.3078,2.3078,2.3078,2.3078,2.3251,2.3816,2.482,2.4921,2.5498,2.6546,2.703,2.7344,2.7469,2.8021,2.8586,2.9089,2.9089,2.9365,2.9792,2.9792,2.9792,2.9792,2.9792,2.9792,2.9792,1.772,1.7989,0.0,0.0,0.0,0.0,0.0,0.0,0.0,0.0,0.0,1.6728,1.7344,1.7866,1.8266,1.8461,1.8422,1.8344,1.8226,1.7908,1.7611,1.7363,1.7099,1.696,1.6876,1.6876,1.6876,1.6876,0.0,0.0,0.0,0.0,0.0,0.0,1.8422,1.8592,1.876,1.8798,1.8921,1.908,1.9161,1.9035,1.8765,1.8302,1.838,1.8729,1.8792,1.8203,1.7597,1.8788,1.8425,1.7521,1.7644,1.72,1.6697,1.6635,1.6609,1.6609,1.6534,1.6572,1.6873,1.794,1.8254,1.8543,1.9497,0.0,1.9786,1.9723,0.0,1.9798,1.9798,0.0,0.0,1.9798,1.9861,2.0275,2.1343,2.1066,2.1543,2.3653,2.2962,2.2736,2.3791,2.3904,2.369,2.3115,2.3615,2.3678,2.3103,2.3078,2.3078,2.3078,2.3078,2.3078,2.3078,2.364,2.4205,2.4833,2.5285,2.5837,2.6546,2.703,2.7544,2.8047,2.8599,2.9164,2.9691,2.9691,2.9729,2.9792,2.9792,2.9792,2.9792,2.9792,2.9792,2.9792,1.7693,1.8055,0.0,0.0,0.0,0.0,0.0,0.0,0.0,0.0,1.6479,1.7071,1.7711,1.8285,1.8669,1.8784,1.8822,1.8784,1.8669,1.8383,1.8121,1.7935,1.7529,1.7323,1.7337,1.717,1.7115,0.0,1.7282,0.0,0.0,0.0,0.0,0.0,1.8912,1.9064,1.9139,1.9176,1.9288,1.9435,1.9487,1.9472,1.9332,1.9132,1.8968,1.8936,1.9359,1.898,1.8455,1.9727,1.9351,1.8384,1.8766,1.8252,1.7501,1.7501,1.7275,1.6948,1.6609,1.6522,1.6785,1.7928,1.8204,1.848,1.956,1.9798,1.9798,1.9798,0.0,0.0,0.0,0.0,0.0,0.0,1.9798,2.0253,2.1428,2.1167,2.1479,2.3276,2.2689,2.2305,2.278,2.3621,2.3695,2.2711,2.3489,2.3753,2.3103,2.3078,2.3078,2.3078,2.3078,2.3078,2.3078,2.3376,2.3791,2.4356,2.4895,2.5435,2.5988,2.6879,2.7406,2.767,2.8549,2.9063,2.9289,2.9289,2.9289,2.9289,2.9289,2.9503,2.9792,2.9792,2.9792,2.9792,1.7516,0.0,0.0,0.0,0.0,0.0,0.0,0.0,1.6257,1.6902,1.7238,1.7679,1.8382,1.8825,1.9101,1.9124,1.9199,1.9213,1.9064,1.8808,1.8616,1.8422,1.7988,1.7774,1.7842,1.7502,1.7406,0.0,0.0,0.0,0.0,0.0,0.0,0.0,1.9317,1.9413,1.9487,1.9487,1.9523,1.9647,1.9647,1.9669,1.969,1.969,1.9369,1.8984,1.9613,1.9461,1.9085,2.0202,1.9759,1.8877,1.9298,1.875,1.7953,1.779,1.7576,1.725,1.6672,1.6635,1.703,1.7999,1.8364,1.8717,1.9648,1.9811,1.9798,1.9798,1.9798,0.0,0.0,0.0,1.9798,1.9798,0.0,2.0125,2.1096,2.1094,2.1619,2.3283,2.3047,2.2539,2.1922,2.284,2.3301,2.2898,2.3633,2.3901,2.3489,2.3242,2.3272,2.3412,2.3185,2.3078,2.3078,2.3078,2.3427,2.4004,2.4406,2.4946,2.5624,2.6452,2.6992,2.7318,2.8134,2.8561,2.8699,2.8699,2.8699,2.8699,2.8699,2.8963,2.9365,2.9679,2.9792,2.9767,1.7365,1.7988,0.0,1.9191,1.8882,0.0,0.0,1.7555,1.7729,1.8342,1.8446,1.8747,1.9471,1.9574,1.9596,1.969,1.969,1.9581,1.9413,1.9258,1.9058,1.8784,1.8461,1.8254,1.8202,1.7842,1.776,1.7882,0.0,0.0,0.0,0.0,0.0,0.0,1.9538,1.9647,1.969,1.969,1.969,1.969,1.969,1.969,1.969,1.969,1.9369,1.8979,1.9509,1.9346,1.9017,1.9749,1.9239,1.8249,1.8392,1.7969,1.73,1.6735,1.6961,1.725,1.6672,1.7011,1.7702,1.8228,1.8786,1.9282,1.9864,1.9862,1.9798,1.9798,1.9798,1.9798,1.9798,1.9798,1.9798,1.9798,1.9798,0.0,0.0,2.0671,2.1963,2.4256,2.4674,2.3872,2.1716,2.1548,2.234,2.4171,2.4396,2.4372,2.4353,2.3657,2.3598,2.4221,2.3484,2.3078,2.3078,2.3078,2.3427,2.4004,2.4017,2.4582,2.5598,2.5636,2.6251,2.7281,2.7318,2.7645,2.8134,2.8134,2.8134,2.8134,2.8134,2.8147,2.8298,2.939,2.9792,2.9716,1.7323,0.0,1.8464,1.895,1.9075,1.8939,1.841,1.7966,1.7888,1.8559,1.8648,1.8902,1.9594,1.9669,1.9705,1.969,1.969,1.969,1.9581,1.9435,1.9288,1.9176,1.886,1.8669,1.8606,1.8372,1.8254,1.8321,1.8358,0.0,0.0,0.0,0.0,0.0,1.9632,1.969,1.969,1.969,1.969,1.969,1.969,1.969,1.969,1.969,1.9603,1.9494,2.0121,1.9947,1.9555,2.0225,1.9979,1.9404,1.9796,1.9293,1.8468,1.8262,1.8372,1.8315,1.7346,1.8166,1.9235,1.9107,1.9521,2.0035,2.0343,2.0359,2.0258,2.0118,2.022,2.0258,1.9978,2.0067,2.0169,2.0003,1.9939,1.9976,0.0,2.1311,2.2828,2.4416,2.4058,2.3547,2.3249,2.321,2.3227,2.3326,2.4082,2.4477,2.4405,2.4136,2.4327,2.4993,2.4781,2.461,2.461,2.461,2.4717,2.4918,2.4799,2.4948,2.5275,2.5521,2.5799,2.6214,2.6954,2.7394,2.7557,2.7557,2.7557,2.7557,2.7557,2.7557,2.7657,2.8398,2.8674,2.8599,1.7282,1.7814,1.8347,1.8822,1.925,1.9411,1.9121,1.8687,1.8568,1.9001,1.9046,1.9211,1.963,1.969,1.969,1.969,1.969,1.969,1.969,1.9581,1.9523,1.9523,1.9213,1.9064,1.9026,1.8784,1.8683,1.8697,1.876,1.8912,0.0,0.0,0.0,0.0,1.969,1.969,1.969,1.969,1.969,1.969,1.969,1.969,1.969,1.969,1.969,1.975,2.0183,2.0228,2.0124,2.0557,2.0494,2.0287,2.0364,1.9935,1.9349,1.9141,1.9246,1.9237,1.8557,1.9233,2.0094,2.0027,2.0301,2.0683,2.0992,2.1028,2.0917,2.0782,2.0795,2.0795,2.056,2.051,2.0472,2.022,2.0182,2.0169,0.0,2.1238,2.2405,2.3337,2.3621,2.397,2.4381,2.4587,2.4267,2.3151,2.3794,2.4236,2.4103,2.4436,2.4765,2.5057,2.4856,2.4791,2.5066,2.5066,2.5177,2.5412,2.5287,2.5189,2.5129,2.5605,2.573,2.5636,2.6625,2.7056,2.6992,2.6992,2.6992,2.6992,2.6992,2.6992,2.708,2.7821,2.7984,2.7758,1.7157,1.7774,1.8386,1.8822,1.9347,1.969,1.969,1.969,1.969,1.969,1.969,1.969,1.969,1.969,1.969,1.969,1.972,1.972,1.969,1.972,1.972,1.969,1.9523,1.9413,1.9413,1.913,1.9003,1.9101,1.913,1.9242,0.0,0.0,0.0,0.0,1.969,1.969,1.969,1.969,1.969,1.969,1.969,1.969,1.969,1.969,1.969,1.969,1.972,2.0154,2.0722,2.0752,2.0858,2.0889,2.0255,2.0019,1.9918,1.9392,1.9628,2.0043,2.0114,2.0172,2.0354,2.1013,2.1094,2.1189,2.1801,2.1819,2.1758,2.1697,2.1582,2.1465,2.1417,2.114,2.0782,2.0481,2.0434,2.0395,2.026,2.0479,2.0885,2.1353,2.3472,2.4966,2.5103,2.5505,2.5177,2.3721,2.358,2.3589,2.3598,2.4452,2.4824,2.4503,2.3839,2.381,2.4457,2.4457,2.4761,2.5425,2.5356,2.5295,2.5117,2.5836,2.5935,2.5643,2.6349,2.6621,2.6445,2.6471,2.6471,2.6445,2.6508,2.6533,2.6647,2.7632,2.7695,2.7243,1.7282,1.8082,1.8836,1.9228,1.9508,1.969,1.969,1.969,1.969,1.969,1.969,1.969,1.969,1.969,1.969,1.969,2.0154,2.0228,1.972,2.0168,2.0228,1.9705,1.9654,1.9596,1.9538,1.9908,1.9832,1.9339,1.987,1.9945,1.9538,0.0,0.0,0.0,1.969,1.969,1.969,1.969,1.969,1.969,1.969,1.969,1.969,1.969,1.969,1.975,2.0258,2.0557,2.0797,2.1276,2.1794,2.2218,2.2055,2.1975,2.1882,2.1354,2.1554,2.177,2.0932,2.1341,2.1987,2.1886,2.1823,2.1931,2.2278,2.2314,2.2267,2.2021,2.2114,2.2081,2.1779,2.1684,2.1589,2.1188,2.1144,2.0979,2.0585,2.0628,2.0852,2.1335,2.2909,2.4609,2.6184,2.5052,2.4018,2.3627,2.3615,2.3599,2.3584,2.3836,2.4229,2.4846,2.4703,2.4815,2.5282,2.5282,2.537,2.5546,2.497,2.4977,2.5374,2.5439,2.5676,2.6069,2.6069,2.6096,2.6025,2.5902,2.5586,2.5322,2.6138,2.6533,2.6559,2.6779,2.6791,2.6747,1.7365,1.8226,1.9026,1.9413,1.9596,1.969,1.969,1.969,1.969,1.969,1.969,1.969,1.969,1.969,1.969,1.969,2.0049,2.0228,2.0139,2.0498,2.0543,2.0154,2.0139,1.9967,1.9647,1.9975,1.9938,1.9523,1.9938,1.9975,1.9632,0.0,0.0,0.0,1.969,1.969,1.969,1.969,1.969,1.969,1.969,1.969,0.0,1.969,1.969,1.9779,2.0468,2.0902,2.1246,2.1904,2.2547,2.3041,2.2798,2.2724,2.2626,2.2359,2.2443,2.2602,2.2207,2.238,2.2691,2.276,2.2542,2.2479,2.2863,2.2965,2.292,2.277,2.283,2.2754,2.248,2.263,2.2474,2.1677,2.1505,2.1361,2.1328,2.1481,2.1741,2.202,2.297,2.4055,2.5267,2.4288,2.3595,2.3599,2.2527,2.2381,2.3522,2.3584,2.3837,2.4387,2.4805,2.4893,2.4743,2.5282,2.5615,2.5615,2.5191,2.5028,2.5078,2.5592,2.5793,2.5795,2.627,2.6652,2.6787,2.6367,2.5999,2.5704,2.5719,2.5749,2.5749,2.5749,2.5887,2.605,1.7447,1.8266,1.9064,1.9501,1.9632,1.969,1.969,1.969,1.969,1.969,1.969,1.969,1.969,1.969,1.969,1.969,1.9765,2.0034,2.0543,2.0662,2.0677,2.0587,2.0572,2.0303,1.969,1.9779,1.9779,1.969,1.9869,1.9854,0.0,0.0,0.0,0.0,1.969,1.969,1.969,1.969,1.969,1.969,1.969,1.969,1.969,1.969,1.969,1.9779,2.0468,2.1141,2.1799,2.2458,2.3086,2.3505,2.2966,2.2742,2.2739,2.2813,2.2742,2.2817,2.343,2.3146,2.2817,2.3445,2.3131,2.2847,2.346,2.3595,2.3595,2.3595,2.348,2.3304,2.3319,2.3639,2.345,2.2069,2.1677,2.1725,2.2314,2.2752,2.3008,2.2981,2.3363,0.0,2.361,2.3585,2.3615,2.3623,2.147,2.1183,2.3473,2.3595,2.3581,2.3593,2.4387,2.4552,2.3939,2.488,2.539,2.548,2.539,2.5032,2.4529,2.576,2.5981,2.5424,2.6574,2.7371,2.7765,2.7175,2.6871,2.663,2.5141,2.4695,2.4808,2.4657,2.4933,2.5335,1.7909,1.8606,1.9139,1.9376,1.9581,1.969,1.969,1.969,1.969,1.969,1.969,1.969,1.969,1.969,1.969,1.969,2.0213,2.0348,1.9884,2.0393,2.0453,1.9884,1.9869,1.9809,1.969,2.0243,2.0258,1.969,2.0797,2.0767,0.0,0.0,0.0,0.0,1.969,1.969,1.969,1.969,1.969,1.969,1.969,1.969,1.969,1.969,1.969,1.9779,2.0468,2.1141,2.1799,2.2458,2.3086,2.358,2.3475,2.3086,2.2787,2.3295,2.3071,2.2817,2.343,2.3146,2.2817,2.3445,2.3131,2.2847,2.346,2.3595,2.3595,2.3595,2.3551,2.3508,2.3406,2.4268,2.4401,2.2461,2.2099,2.2348,2.3228,2.3431,2.3491,2.3481,2.3539,2.3583,2.361,2.3611,2.358,2.3591,2.32,2.3126,2.3559,2.3595,2.3628,2.3591,2.3754,2.449,2.5803,2.4595,2.4238,2.4792,2.4223,2.4149,2.4609,2.482,2.5473,2.6326,2.5959,2.6175,2.6743,2.6467,2.6275,2.5897,2.4111,2.3942,2.4707,2.3716,2.3791,2.433,1.8214,1.876,1.9176,1.9465,1.9617,1.969,1.969,1.969,1.969,1.969,1.969,1.969,1.969,1.969,1.969,1.969,1.9989,2.0183,2.0228,2.0528,2.0572,2.0228,2.0228,2.0049,1.969,2.0004,2.0183,2.0228,2.0872,2.1036,0.0,2.1066,2.0857,2.0198,1.9854,1.969,1.969,1.969,1.969,1.969,1.969,1.969,1.969,1.969,1.969,1.9735,2.0064,2.0617,2.1291,2.1949,2.2368,2.2607,2.2607,2.2413,2.2293,2.2936,2.2906,2.2817,2.343,2.3385,2.3236,2.3535,2.337,2.3236,2.3535,2.3595,2.3595,2.3595,2.3595,2.3553,2.3526,2.4597,2.5363,2.5044,2.4766,2.4815,2.5572,2.4492,2.36,2.3603,2.3616,2.3601,2.3613,2.3613,2.3595,2.3599,2.358,2.4225,2.56,2.3053,2.2204,2.3568,2.3588,2.3996,2.4879,2.4516,2.4023,2.3404,2.285,2.2966,2.3625,2.3954,2.4822,2.6093,2.6066,2.6623,2.7524,2.7097,2.6428,2.5575,2.4286,2.4089,2.4465,2.3567,2.3631,2.4111,1.8305,1.8822,1.9265,1.9538,1.9669,1.969,1.969,1.969,1.969,1.969,1.969,1.969,1.969,1.969,1.969,1.969,1.969,1.9914,2.0453,2.0498,2.0498,2.0498,2.0498,2.0243,1.969,1.969,1.9944,2.0498,2.0782,2.1111,2.1485,2.1769,2.1485,2.0677,1.9989,1.969,1.969,1.969,1.969,1.969,1.969,1.969,1.969,1.969,1.969,1.969,1.969,2.0034,2.0572,2.1096,2.1455,2.1695,2.1695,2.1605,2.162,2.2278,2.2473,2.2607,2.3236,2.349,2.3595,2.3595,2.3595,2.3595,2.3595,2.3595,2.3595,2.3595,2.3595,2.3598,2.3599,2.4443,2.5711,2.7348,2.678,2.6291,2.6689,2.492,2.3608,2.3588,2.3092,2.2757,2.2761,2.3277,2.3588,2.359,2.3074,2.3948,2.6591,2.2274,2.0641,2.2724,2.3295,2.3581,2.3612,2.4344,2.3876,2.2304,2.1794,2.1939,2.2739,2.3176,2.4133,2.5435,2.6093,2.7066,2.8106,2.7234,2.6237,2.5214,2.4476,2.4212,2.4106,2.3513,2.3668,2.4036,1.8066,1.8793,1.9413,1.9574,1.9669,1.969,1.969,1.969,1.969,1.969,1.969,1.969,1.969,1.969,1.969,1.969,1.969,1.972,1.9779,1.9779,1.9779,1.9779,1.9779,1.975,1.969,1.969,1.972,1.9779,2.1006,2.1335,2.0842,2.2024,2.1919,2.0677,1.9989,1.969,1.969,1.969,1.969,1.969,1.969,1.969,1.969,1.969,1.969,1.969,1.969,1.9735,1.9794,1.9854,2.0677,2.1695,2.1695,2.1291,2.0932,2.1605,2.1784,2.1934,2.2577,2.3176,2.3595,2.3595,2.3595,2.3595,2.3595,2.3595,2.3595,2.3595,2.3595,2.3598,2.3599,2.3689,2.4638,2.716,2.5516,2.3896,2.3951,2.3748,2.3585,2.3603,2.1497,2.0049,2.0059,2.2209,2.3625,2.3603,2.1422,2.1196,2.3816,2.1284,1.9812,2.0061,2.2363,2.3599,2.3599,2.369,2.3239,2.2304,2.144,2.1639,2.2724,2.2783,2.3475,2.4701,2.542,2.6108,2.6673,2.5348,2.4718,2.4519,2.3784,2.3475,2.3475,2.3423,2.3412,2.343,1.8535,1.9035,1.9465,1.9574,1.9669,1.969,1.969,1.969,1.969,1.969,1.969,1.969,1.969,1.969,1.969,1.969,1.969,1.969,1.969,1.969,1.969,1.969,1.969,1.969,1.969,1.969,1.9884,2.0303,2.0842,2.138,2.1889,2.2024,2.1605,2.0677,1.9989,1.969,1.969,1.969,1.969,1.969,1.969,1.969,1.969,1.969,1.969,1.969,1.969,1.969,1.969,1.969,2.0049,2.0483,2.0483,2.0303,2.0228,2.0902,2.1111,2.1261,2.1904,2.245,2.2832,2.2832,2.322,2.3625,2.3625,2.3618,2.3595,2.3595,2.3595,2.3596,2.3584,2.36,2.3955,2.5028,2.4283,2.3585,2.3596,2.3608,2.3613,2.3605,2.1281,2.0302,2.1903,2.1575,2.1909,2.3478,2.2607,2.1825,2.1287,2.0282,2.1152,2.4353,2.546,2.4462,2.1309,2.1245,2.1078,2.074,2.0368,2.0466,2.0937,2.1989,2.323,2.4627,2.533,2.5749,2.5989,2.5405,2.4923,2.4523,2.421,2.4115,2.4067,2.3617,2.3509,2.3461,1.8855,1.9221,1.9523,1.9596,1.9654,1.969,1.969,1.969,1.969,1.969,1.969,1.969,1.969,1.969,1.969,1.969,1.969,1.969,1.969,1.969,1.969,1.969,1.969,1.969,1.969,1.969,1.9929,2.0423,2.0617,2.1186,2.2084,2.162,2.1156,2.0677,1.9989,1.969,1.969,1.969,1.969,1.969,1.969,1.969,1.969,1.969,1.969,1.969,1.969,1.969,1.969,1.969,1.969,1.969,1.969,1.969,1.9779,2.0273,2.0557,2.0812,2.1276,2.1843,2.2294,2.2294,2.2682,2.3147,2.3498,2.3614,2.3583,2.3583,2.3601,2.3603,2.3603,2.3584,2.3585,2.3596,2.3599,2.3629,2.3581,2.3583,2.3299,2.2526,2.0813,2.043,2.2286,2.0786,2.0475,2.2325,2.3167,2.2775,2.0976,2.0841,2.2207,2.518,2.6783,2.5045,1.9754,1.9691,1.9708,1.9708,1.9707,1.9693,1.9771,2.1774,2.3375,2.4597,2.4896,2.5136,2.53,2.5091,2.4747,2.4328,2.4328,2.4328,2.4224,2.3741,2.355,2.3512,1.8817,1.9332,1.969,1.969,1.969,1.969,1.969,1.969,1.969,1.969,1.969,1.969,1.969,1.969,1.969,1.969,1.969,1.969,1.969,1.969,1.969,1.969,1.969,1.969,1.969,1.969,1.969,1.969,2.0378,2.0722,2.0737,2.0737,2.0722,2.0677,1.9989,1.969,1.969,1.969,1.969,1.969,1.969,1.969,1.969,1.969,1.969,1.969,1.969,1.969,1.969,1.969,1.969,1.969,1.969,1.969,1.969,1.969,2.0183,2.0722,2.0722,2.1497,2.2294,2.2294,2.1994,2.2064,2.3302,2.3606,2.3621,2.3621,2.3621,2.3599,2.3599,2.3601,2.361,2.3595,2.361,2.361,2.3595,2.3583,2.2637,2.0033,1.9725,1.9717,1.9762,1.9712,1.9717,1.9762,2.2134,2.3585,2.3551,2.3539,2.2424,1.9886,2.4855,2.5061,1.9735,1.9716,1.969,1.969,1.969,1.9693,1.9801,2.241,2.3945,2.4552,2.3924,2.4014,2.4537,2.3909,2.3625,2.361,2.361,2.361,2.361,2.361,2.361,2.3584,1.9406,1.9566,1.969,1.969,1.969,1.969,1.969,1.969,1.969,1.969,1.969,1.969,1.969,1.969,1.969,1.969,1.969,1.969,1.969,1.969,1.969,1.969,1.969,1.969,1.969,1.969,1.969,1.969,1.9899,2.0019,2.0034,2.0498,2.0468,2.0004,1.9794,1.969,1.969,1.969,1.969,1.969,1.969,1.9874,2.0089,2.0089,2.0089,2.0089,2.0089,1.9929,1.969,1.969,1.969,1.969,1.969,1.969,1.969,1.969,1.9839,2.0019,2.0019,2.0265,2.0512,2.0512,2.0414,2.0463,2.0855,2.0931,2.0931,2.0931,2.0951,2.1489,2.3262,2.3586,2.3595,2.3595,2.3616,2.358,2.358,2.3585,2.2631,1.9997,2.128,2.2359,2.2352,2.0752,1.9691,1.9686,2.0494,2.1719,2.3504,2.1906,2.0554,1.9712,2.1342,2.1386,1.9735,1.9692,1.969,1.969,1.969,1.9693,1.9771,2.1505,2.2877,2.3912,2.3696,2.3729,2.3909,2.3684,2.3595,2.3595,2.3595,2.3595,2.3595,2.3595,2.3613,2.3614,1.9639,1.969,1.969,1.969,1.969,1.969,1.969,1.969,1.969,1.969,1.969,1.969,1.969,1.969,1.969,1.969,1.969,1.969,1.969,1.969,1.969,1.969,1.969,1.969,1.969,1.969,1.969,1.969,1.969,1.969,1.969,2.0124,2.0094,1.969,1.969,1.969,1.9726,1.9874,1.9945,1.9929,2.012,2.033,2.055,2.055,2.055,2.055,2.0348,2.0158,1.9909,1.9747,1.969,1.969,1.969,1.969,1.969,1.969,1.969,1.969,1.969,1.969,1.969,1.969,1.9715,1.9701,1.9701,1.9683,1.9691,1.9715,1.9724,2.0491,2.3115,2.3586,2.3608,2.3588,2.3606,2.3258,2.2252,2.2146,2.1554,1.9899,2.1137,2.2139,2.2139,2.0682,1.9685,1.971,2.1535,2.2946,2.3569,2.112,2.0159,2.1122,2.1173,2.0679,1.9712,1.9708,1.969,1.969,1.969,1.9693,1.9719,2.0568,2.1924,2.3599,2.3618,2.3595,2.3595,2.3595,2.3595,2.3595,2.3595,2.3595,2.3595,2.3595,2.3599,2.36,1.9662,1.972,1.969,1.975,1.972,1.969,1.969,1.969,1.969,1.969,1.969,1.969,1.969,1.969,1.969,1.969,1.969,1.969,1.969,1.969,1.969,1.969,1.969,1.969,1.969,1.969,1.969,1.969,1.969,1.969,1.969,1.969,1.969,1.969,1.969,1.969,1.9726,2.0124,2.0314,2.0348,2.0829,2.1023,2.1023,2.1023,2.1023,2.0991,2.055,2.0348,2.0246,1.9874,1.9711,1.969,1.969,1.969,1.969,1.969,1.969,1.969,1.969,1.969,1.969,1.969,1.969,1.969,1.969,1.969,1.9692,1.9715,1.9851,2.0728,2.3167,2.3613,2.3606,2.3618,2.3451,2.2469,2.0027,1.9682,1.971,1.9685,1.9691,1.9698,1.9698,1.9698,1.9708,1.9692,2.4277,2.6037,2.3739,2.127,2.1097,2.352,2.3608,2.2332,1.9742,1.9693,1.969,1.969,1.969,1.9693,1.9689,1.972,2.1142,2.3599,2.3588,2.358,2.3595,2.3595,2.3595,2.3595,2.3595,2.3595,2.3608,2.3608,2.3608,2.3608,2.0326,2.0049,1.9854,2.0378,2.0034,1.969,1.969,1.969,1.969,1.969,1.969,1.969,1.969,1.969,1.969,1.969,1.969,1.969,1.969,1.969,1.969,1.969,1.969,1.969,1.969,1.969,1.969,1.969,1.969,1.969,1.969,1.969,1.969,1.969,1.969,1.969,1.9726,2.0124,2.0314,2.0348,2.0829,2.1181,2.146,2.146,2.146,2.143,2.1321,2.0862,2.028,2.0177,1.9929,1.969,1.969,1.969,1.969,1.969,1.969,1.969,1.969,1.969,1.969,1.969,1.969,1.969,1.969,1.969,1.9705,1.9707,2.1303,2.2858,2.3502,2.3576,2.358,2.3606,2.1943,2.0393,1.9789,1.9698,1.97,1.9701,1.9678,1.9722,1.9722,1.9722,1.9723,1.9696,2.087,2.2143,2.3546,2.3017,2.2959,2.3566,2.3584,2.2324,1.9742,1.9693,1.969,1.969,1.969,1.9693,1.9689,1.971,2.1124,2.3599,2.3603,2.3586,2.3595,2.3595,2.3595,2.3595,2.3595,2.3603,2.3591,2.3591,2.3591,2.3591,2.0168,1.9944,1.9794,2.0183,1.9929,1.969,1.969,1.969,1.969,1.969,1.969,1.969,1.969,1.969,1.969,1.969,1.969,1.969,1.969,1.969,1.969,1.969,1.969,1.969,1.969,1.969,1.969,1.969,1.969,1.969,1.969,1.969,1.969,1.969,1.969,1.969,1.9747,2.0364,2.0616,2.0682,2.1323,2.1721,2.1928,2.1928,2.1928,2.1899,2.1688,2.129,2.0878,2.0682,2.033,1.9965,1.9965,1.9839,1.969,1.969,1.969,1.969,1.969,1.969,1.969,1.969,1.969,1.9683,1.9708,1.9707,1.9685,1.968,2.0833,2.2174,2.3371,2.3613,2.3606,2.3618,2.2415,2.1089,1.9874,1.9701,1.969,1.969,1.969,1.969,1.969,1.969,1.97,1.9713,1.9691,2.0327,2.176,2.2951,2.3622,2.3594,2.2425,2.1129,1.9703,1.9683,1.9701,1.9701,1.9713,1.9693,1.9757,2.0938,2.161,2.1875,2.3068,2.3588,2.3595,2.3595,2.3595,2.3595,2.3595,2.3591,2.348,2.2273,2.1812,2.1984,1.9824,1.975,1.972,1.9824,1.975,1.969,1.969,1.969,1.969,1.969,1.969,1.969,1.969,1.969,1.969,1.969,1.969,1.969,1.969,1.969,1.969,1.969,1.969,1.969,1.969,1.969,1.969,1.969,1.969,1.969,1.969,1.969,1.969,1.969,1.969,1.969,1.9747,2.0565,2.0926,2.1055,2.1886,2.2237,2.231,2.231,2.231,2.2254,2.1853,2.1658,2.1552,2.1213,2.0797,2.0382,2.0314,2.007,1.9782,1.9711,1.969,1.969,1.969,1.969,1.969,1.969,1.9683,1.9715,1.9706,2.0005,2.0176,1.9774,2.001,2.0951,2.3178,2.3623,2.3588,2.3611,2.3274,2.2221,2.0013,1.97,1.9698,1.969,1.969,1.969,1.969,1.969,1.9705,1.9713,1.971,1.9883,2.0266,2.2369,2.3608,2.3595,2.1469,2.0287,2.0269,2.0304,2.0082,1.9695,1.9708,1.9716,1.9788,2.2398,2.2385,2.0428,2.2653,2.3608,2.3595,2.3595,2.3595,2.3595,2.3595,2.3593,2.3325,2.1098,2.0302,2.0614,2.0438,2.0094,1.9869,2.0453,2.0079,1.969,1.969,1.969,1.969,1.969,1.969,1.969,1.969,1.969,1.969,1.969,1.969,1.969,1.969,1.969,1.969,1.969,1.969,1.969,1.969,1.969,1.969,1.969,1.969,1.969,1.969,1.969,1.969,1.969,1.969,1.969,1.9711,2.0193,2.0616,2.1023,2.1538,2.1957,2.231,2.231,2.231,2.2282,2.2209,2.1928,2.1582,2.1521,2.1244,2.0829,2.0416,2.0246,2.0158,1.9818,1.969,1.969,1.969,1.969,1.969,1.969,1.9686,1.9706,1.9713,2.1431,2.2352,2.0179,2.1447,2.3141,2.3542,2.3616,2.3611,2.36,2.1756,2.0169,1.9748,1.9701,1.9716,1.972,1.969,1.969,1.969,1.969,1.9722,1.9715,1.9689,2.0637,2.2862,2.3379,2.3583,2.3595,2.3197,2.2985,2.2964,2.3007,2.1913,1.9713,1.971,1.9706,1.9764,2.2405,2.3366,2.302,2.3405,2.3613,2.3595,2.3595,2.3595,2.3595,2.3595,2.358,2.3554,2.313,2.2979,2.3061,2.0094,1.9899,1.9794,2.0109,1.9899,1.969,1.969,1.969,1.969,1.969,1.969,1.969,1.969,1.969,1.969,1.969,1.969,1.969,1.969,1.969,1.969,1.969,1.969,1.969,1.969,1.969,1.969,1.969,1.969,1.969,1.969,1.969,1.969,1.969,1.969,1.9818,2.007,2.0483,2.0926,2.1368,2.1794,2.2106,2.231,2.231,2.231,2.231,2.231,2.2163,2.1974,2.1974,2.1675,2.1275,2.107,2.0846,2.0616,2.0431,2.0085,1.969,1.969,1.969,1.969,1.969,1.9694,2.0091,2.1467,2.2738,2.3268,2.2058,2.2768,2.3588,2.3613,2.3606,2.3595,2.3595,2.3788,2.3447,2.1988,2.0592,1.9696,1.9704,1.9689,1.9689,1.9689,1.9689,1.971,1.9701,2.0996,2.2325,2.3538,2.3595,2.3603,2.3595,2.3603,2.3591,2.3621,2.3605,2.2996,2.1802,2.1789,2.1809,2.1845,2.3046,2.3614,2.3595,2.3603,2.3618,2.3595,2.3616,2.3598,2.3583,2.3614,2.3616,2.3448,2.2028,2.2378,2.3588,1.969,1.969,1.969,1.969,1.969,1.969,1.969,1.969,1.969,1.969,1.969,1.969,1.969,1.969,1.969,1.969,1.969,1.969,1.969,1.969,1.969,1.969,1.969,1.9747,1.9839,1.9839,1.9839,1.9839,1.9839,1.9782,1.969,1.9782,1.9839,1.9839,1.9945,2.0158,2.0483,2.0862,2.1244,2.1628,2.2003,2.2209,2.231,2.231,2.231,2.231,2.231,2.231,2.231,2.231,2.2061,2.1718,2.1628,2.1399,2.1118,2.1039,2.0548,1.9945,1.9747,1.9702,1.9707,1.9696,1.9701,2.0371,2.2992,2.3619,2.3616,2.3606,2.3601,2.361,2.3608,2.3595,2.3593,2.3586,2.5341,2.5957,2.3871,2.1879,2.0629,2.0596,2.0596,2.0596,2.0596,2.0596,2.0611,2.0604,2.2469,2.3614,2.3591,2.3618,2.3595,2.3595,2.3595,2.3591,2.3591,2.3591,2.3591,2.3591,2.36,2.3616,2.3591,2.3591,2.3613,2.3595,2.3595,2.3595,2.358,2.3606,2.3247,2.2694,2.2707,2.2682,2.2514,2.1099,2.1865,2.3591,1.969,1.969,1.969,1.969,1.969,1.969,1.969,1.969,1.969,1.969,1.969,1.969,1.969,1.969,1.969,1.969,1.969,1.969,1.969,1.969,1.969,1.969,1.969,1.9874,2.0246,2.0246,2.0246,2.0246,2.0246,2.007,1.9726,2.0089,2.0246,2.028,2.0731,2.0926,2.0959,2.1007,2.1244,2.1582,2.1658,2.1899,2.231,2.231,2.231,2.231,2.231,2.231,2.231,2.231,2.2282,2.2163,2.1718,2.1582,2.1491,2.1118,2.0959,2.0731,1.9925,1.9693,1.9695,1.9687,1.9683,2.0356,2.2983,2.361,2.3593,2.3595,2.358,2.3623,2.3595,2.3595,2.3598,2.3585,2.3762,2.3829,2.3651,2.3447,2.3295,2.3293,2.3302,2.3302,2.3302,2.3302,2.3329,2.3314,2.3466,2.3606,2.3593,2.3595,2.3595,2.3595,2.3595,2.3595,2.3608,2.3608,2.3608,2.3608,2.3593,2.3593,2.3608,2.3608,2.358,2.3595,2.3595,2.3595,2.358,2.3606,2.2162,1.9976,1.999,1.9984,2.0262,2.247,2.3417,2.3614,1.969,1.969,1.969,1.969,1.969,1.969,1.969,1.969,1.969,1.969,1.969,1.969,1.969,1.969,1.969,1.969,1.969,1.969,1.969,1.969,1.969,1.969,1.969,1.9782,1.9929,2.0193,2.0314,2.0314,2.0583,2.0665,2.0514,2.0665,2.0715,2.0748,2.0926,2.115,2.1368,2.1368,2.1628,2.2032,2.2032,2.2135,2.231,2.231,2.231,2.231,2.231,2.231,2.231,2.231,2.231,2.2282,2.2106,2.2032,2.1945,2.1491,2.1584,2.1568,2.0539,2.0175,2.002,1.9773,1.9683,2.0389,2.2996,2.3595,2.3595,2.3595,2.3595,2.3595,2.3595,2.3595,2.3596,2.3613,2.3583,2.3595,2.3595,2.3591,2.3586,2.3606,2.3591,2.3591,2.3591,2.3591,2.3595,2.3616,2.3573,2.3576,2.3595,2.3595,2.3595,2.3595,2.3595,2.3595,2.3595,2.3595,2.3595,2.3595,2.3595,2.3595,2.3595,2.3595,2.3595,2.3595,2.3595,2.3595,2.3608,2.3605,2.2054,1.9727,1.9695,1.9713,2.0011,2.264,2.2568,2.1414,1.969,1.969,1.969,1.969,1.969,1.969,1.969,1.969,1.969,1.969,1.969,1.969,1.969,1.969,1.969,1.969,1.969,1.9747,1.9874,2.0015,1.998,1.9711,1.9818,1.9874,1.9874,2.0296,2.0449,2.0314,2.0616,2.0653,2.0447,2.0576,2.059,2.0505,2.0884,2.121,2.1491,2.1724,2.2003,2.231,2.231,2.231,2.231,2.231,2.231,2.231,2.231,2.231,2.231,2.231,2.231,2.231,2.231,2.231,2.2237,2.1899,2.2032,2.2118,2.1346,2.1023,2.0728,1.9897,1.9693,2.0371,2.2998,2.3611,2.3603,2.3603,2.3603,2.3603,2.3603,2.361,2.3601,2.3601,2.3606,2.3596,2.3599,2.3613,2.3613,2.3613,2.3585,2.3614,2.361,2.3598,2.3612,2.361,2.3595,2.3595,2.3595,2.3595,2.3595,2.3595,2.3595,2.3595,2.3595,2.3595,2.3595,2.3595,2.3595,2.3595,2.3595,2.3595,2.3595,2.3595,2.3591,2.3603,2.3601,2.3619,2.2061,1.9715,1.9686,1.9686,1.9921,2.1712,2.1242,1.9969,1.969,1.969,1.969,1.969,1.969,1.969,1.969,1.969,1.969,1.969,1.969,1.969,1.969,1.969,1.969,1.9711,1.9711,1.9874,2.028,2.0748,2.0599,1.9747,2.0089,2.0314,2.0314,2.0748,2.0797,2.0314,2.0314,1.994,1.9225,1.9688,1.9731,1.9476,2.0663,2.1204,2.1254,2.1989,2.231,2.231,2.231,2.231,2.231,2.231,2.231,2.231,2.231,2.231,2.231,2.231,2.231,2.231,2.231,2.231,2.231,2.231,2.231,2.231,2.231,2.2295,2.1894,2.0141,1.9714,2.0401,2.3006,2.3617,2.3599,2.3599,2.3599,2.3599,2.3599,2.3621,2.3611,2.3611,2.3625,2.3612,2.3599,2.3612,2.3612,2.3612,2.3603,2.3591,2.3626,2.3615,2.3615,2.3581,2.3595,2.3595,2.3595,2.3595,2.3595,2.3595,2.3595,2.3595,2.3595,2.3595,2.3595,2.3595,2.3595,2.3595,2.3595,2.3595,2.3595,2.358,2.3622,2.3584,2.3564,2.3561,2.2056,1.9698,1.97,1.9686,1.9683,1.9685,1.9715,1.9688,1.969,1.969,1.969,1.969,1.969,1.969,1.969,1.969,1.969,1.969,1.969,1.969,1.969,1.969,1.9803,2.0089,2.0124,2.033,2.0764,2.075,2.0606,2.036,2.0635,2.0797,2.0797,2.1213,2.1368,2.1228,2.1013,2.0829,2.0586,2.0185,1.99,1.9848,2.0187,2.067,2.1221,2.1414,2.1837,2.231,2.231,2.231,2.231,2.231,2.231,2.231,2.231,2.231,2.231,2.231,2.231,2.231,2.231,2.231,2.231,2.231,2.231,2.231,2.231,2.2304,2.2174,2.1648,2.059,2.0788,2.4851,2.5767,2.576,2.576,2.576,2.5763,2.5767,2.5774,2.529,2.3834,2.3621,2.3581,2.3584,2.5221,2.6399,2.6399,2.4744,2.4341,2.6209,2.468,2.3612,2.361,2.3595,2.3595,2.3595,2.361,2.3599,2.3599,2.36,2.3597,2.3597,2.3595,2.3595,2.3595,2.3595,2.3595,2.3595,2.3595,2.3576,2.3622,2.3588,2.257,2.0856,2.087,2.0391,1.9698,1.97,1.9698,1.97,1.9683,1.9685,1.9701,1.969,1.969,1.969,1.969,1.969,1.969,1.969,1.969,1.969,1.969,1.969,1.969,1.969,1.969,1.9818,2.0035,2.0398,2.0748,2.1213,2.1256,2.1252,2.1252,2.1437,2.1203,2.0559,2.0668,2.0639,2.0492,2.0315,2.0179,2.003,1.9562,1.9244,1.914,1.9427,1.9841,2.0314,2.095,2.1448,2.1887,2.2192,2.231,2.231,2.231,2.231,2.231,2.231,2.231,2.231,2.231,2.231,2.231,2.231,2.231,2.231,2.231,2.231,2.231,2.231,2.231,2.2293,2.2319,2.1504,2.177,2.5779,2.6683,2.669,2.669,2.669,2.67,2.6705,2.6031,2.5068,2.3798,2.3585,2.3603,2.3606,2.5001,2.6037,2.6037,2.4579,2.4251,2.5873,2.4529,2.3599,2.361,2.3595,2.3595,2.3595,2.3588,2.3963,2.4801,2.4847,2.4812,2.4812,2.4845,2.441,2.3598,2.3621,2.3595,2.3595,2.3595,2.3588,2.3538,2.2486,2.1173,1.9704,1.9692,1.9707,1.9707,1.9718,1.9688,1.9703,1.9717,1.969,1.9705,1.969,1.969,1.969,1.969,1.969,1.969,1.969,1.969,1.969,1.969,1.969,1.969,1.969,1.969,1.9711,1.9747,2.0514,2.1181,2.1552,2.202,2.2316,2.231,2.23,2.1507,1.9759,1.9528,1.9246,1.8834,1.8847,1.8679,1.8348,1.8299,1.8079,1.7845,1.8504,1.8843,1.8995,2.045,2.1109,2.1271,2.2006,2.231,2.231,2.231,2.231,2.231,2.231,2.231,2.231,2.231,2.231,2.231,2.231,2.231,2.231,2.231,2.231,2.231,2.231,2.231,2.231,2.231,2.2304,2.3062,2.6018,2.6487,2.6296,2.6311,2.6497,2.6702,2.6691,2.5139,2.3887,2.3883,2.3861,2.3865,2.3899,2.3731,2.3586,2.3586,2.3777,2.3792,2.362,2.3581,2.3585,2.3625,2.3608,2.3593,2.3593,2.3594,2.4552,2.6639,2.672,2.6695,2.6695,2.6689,2.5654,2.3605,2.3598,2.3593,2.3593,2.358,2.3601,2.3442,2.0861,1.9782,1.9945,1.9916,1.994,1.9924,1.9927,1.9854,1.9691,1.9688,1.9707,1.9687,1.969,1.969,1.969,1.969,1.969,1.969,1.969,1.969,1.969,1.969,1.969,1.969,1.969,1.969,1.9854,2.0158,2.0698,2.1118,2.1423,2.1993,2.23,2.2299,2.2287,2.1037,1.8323,1.9325,1.9645,1.9197,1.9185,1.9051,1.8757,1.8162,1.7872,1.7811,1.798,1.8369,1.8961,1.9875,2.0619,2.1271,2.2006,2.231,2.231,2.231,2.231,2.231,2.231,2.231,2.231,2.231,2.231,2.231,2.231,2.231,2.231,2.231,2.231,2.231,2.231,2.231,2.231,2.231,2.2308,2.3059,2.6026,2.491,2.3257,2.325,2.5077,2.6705,2.6706,2.6337,2.6016,2.6019,2.6032,2.6026,2.6005,2.4641,2.3608,2.3608,2.5045,2.5394,2.3759,2.3616,2.3583,2.361,2.3595,2.3594,2.3594,2.3592,2.4558,2.6636,2.6697,2.6705,2.6705,2.6709,2.5642,2.3593,2.359,2.3594,2.361,2.3603,2.3599,2.3444,2.0835,2.0487,2.1729,2.1746,2.173,2.173,2.173,2.0893,1.9699,1.9696,1.9694,1.971,1.969,1.969,1.969,1.969,1.969,1.969,1.969,1.969,1.969,1.969,1.969,1.969,1.969,1.9567,1.9716,2.0337,2.0861,2.1364,2.1786,2.2123,2.231,2.2313,2.2297,2.0879,1.7873,1.8557,1.8829,1.8572,1.8589,1.8521,1.837,1.7985,1.7817,1.7792,1.78,1.8217,1.8944,1.9681,2.0467,2.1271,2.2006,2.231,2.231,2.231,2.231,2.231,2.231,2.231,2.231,2.231,2.231,2.231,2.231,2.231,2.231,2.231,2.231,2.231,2.231,2.231,2.231,2.231,2.2303,2.3064,2.6034,2.4437,2.2285,2.2292,2.354,2.4601,2.4605,2.4592,2.461,2.4597,2.4593,2.5102,2.6507,2.5762,2.5077,2.507,2.6044,2.5876,2.3815,2.3626,2.3585,2.3585,2.3619,2.4029,2.5029,2.5088,2.5573,2.6673,2.6689,2.6691,2.6691,2.6689,2.6142,2.5102,2.508,2.4555,2.3606,2.359,2.3608,2.3501,2.1708,2.146,2.2289,2.2311,2.2292,2.2308,2.2302,2.174,2.094,2.0943,2.0927,2.0943,1.969,1.969,1.969,1.969,1.969,1.969,1.969,1.9747,1.9818,1.9818,1.9889,1.9909,1.9909,1.9541,1.9657,2.0463,2.0836,2.1262,2.1821,2.1874,2.1752,2.1538,2.1529,2.036,1.7859,1.7805,1.7811,1.7811,1.7811,1.7788,1.7799,1.8053,1.8047,1.7786,1.7799,1.8238,1.9022,1.9714,2.0467,2.1271,2.2006,2.231,2.231,2.231,2.231,2.231,2.231,2.231,2.231,2.231,2.231,2.231,2.231,2.231,2.231,2.231,2.231,2.231,2.231,2.231,2.231,2.231,2.2298,2.2941,2.5379,2.4059,2.2304,2.23,2.23,2.2291,2.2322,2.2308,2.2294,2.2297,2.2292,2.3325,2.6269,2.6703,2.6699,2.6689,2.6395,2.564,2.4244,2.4139,2.4121,2.4121,2.4151,2.4878,2.6591,2.6717,2.6714,2.6714,2.669,2.6708,2.6708,2.6708,2.6708,2.6708,2.67,2.5783,2.4141,2.4135,2.4122,2.4053,2.2815,2.2295,2.2312,2.2281,2.231,2.2299,2.2287,2.2315,2.2305,2.2291,2.231,2.231,1.969,1.969,1.969,1.969,1.969,1.969,1.969,2.0,2.0212,2.0212,2.0565,2.0829,2.0829,2.0226,2.0017,2.0536,1.9863,1.9599,2.0037,2.0042,1.9547,1.8453,1.8402,1.8222,1.7802,1.7805,1.7811,1.7811,1.7811,1.7805,1.7833,1.9103,1.9009,1.7802,1.7793,1.8341,1.9278,1.9807,2.0467,2.1271,2.2006,2.231,2.231,2.231,2.231,2.231,2.231,2.231,2.231,2.231,2.231,2.231,2.231,2.231,2.231,2.231,2.231,2.231,2.231,2.231,2.231,2.231,2.2299,2.2383,2.2813,2.2579,2.23,2.2293,2.2288,2.2304,2.2293,2.2293,2.2286,2.2291,2.2294,2.3333,2.6298,2.6691,2.6708,2.6691,2.5114,2.4601,2.6128,2.6286,2.6292,2.6292,2.6295,2.6396,2.6667,2.6687,2.6691,2.6691,2.6708,2.6708,2.6721,2.6708,2.6708,2.6721,2.6689,2.6551,2.6277,2.6262,2.6286,2.6135,2.3456,2.2283,2.2304,2.2299,2.231,2.2282,2.2288,2.232,2.2308,2.2312,2.2298,2.2312,1.969,1.969,1.969,1.969,1.969,1.969,1.969,2.0035,2.0314,2.0314,2.0715,2.0847,2.0431,2.0084,1.9874,1.9887,2.0498,2.0969,2.1133,2.1148,2.0154,1.7914,1.7786,1.7815,1.7815,1.78,1.7811,1.7811,1.7811,1.7794,1.7803,1.846,1.9326,2.0302,2.031,1.9617,1.8501,1.9292,1.9967,2.0568,2.0863,2.1015,2.1049,2.1515,2.1956,2.2304,2.23,2.2307,2.2296,2.2304,2.231,2.231,2.231,2.231,2.231,2.231,2.231,2.231,2.231,2.231,2.231,2.231,2.231,2.231,2.231,2.2293,2.2281,2.2299,2.231,2.231,2.231,2.231,2.2308,2.2304,2.3667,2.522,2.6514,2.6703,2.6723,2.6691,2.5883,2.568,2.6607,2.6703,2.6712,2.6712,2.6719,2.6705,2.6705,2.6708,2.6691,2.6691,2.6691,2.6708,2.669,2.8373,2.8373,2.669,2.6708,2.6691,2.6705,2.6703,2.5782,2.416,2.2881,2.2314,2.2299,2.2298,2.231,2.231,2.231,2.3323,2.4764,2.4764,2.371,2.2298]},{"header":{"parameterUnit":"m.s-1","parameterCategory":1,"la1":30.6,"la2":28.766,"lo1":-90.7593,"lo2":-88.6598,"dy":0.0162,"dx":0.0183,"nx":116,"ny":114,"refTime":"2023-07-28T12:00:00:Z","depth":0,"parameterNumber":3,"parameterNumberName":"V-component_of_WINDS"},"data":[0.0,0.0,0.0,0.0,0.0,0.0,0.0,0.0,0.0,0.0,0.0,0.0,0.0,0.0,0.0,0.0,0.0,0.0,0.0,0.0,0.0,0.0,0.0,0.0,0.0,0.0,0.0,0.0,0.0,0.0,0.0,0.0,0.0,0.0,0.0,0.0,0.0,0.0,0.0,0.0,0.0,0.0,0.0,0.0,0.0,0.0,0.0,0.0,0.0,0.0,0.0,0.0,0.0,0.0,0.0,0.0,0.0,0.0,0.0,0.0,0.0,0.0,0.0,0.0,0.0,0.0,0.0,0.0,0.0,0.0,0.0,0.0,0.0,0.0,0.0,0.0,0.0,0.0,0.0,0.0,0.0,0.0,0.0,0.0,0.0,0.0,0.0,0.0,0.0,0.0,0.0,0.0,0.0,0.0,0.0,0.0,0.0,0.0,0.0,0.0,0.0,0.0,0.0,0.0,0.0,0.0,0.0,0.0,0.0,0.0,0.0,0.0,0.0,0.0,0.0,0.0,0.0,0.0,0.0,0.0,0.0,0.0,0.0,0.0,0.0,0.0,0.0,0.0,0.0,0.0,0.0,0.0,0.0,0.0,0.0,0.0,0.0,0.0,0.0,0.0,0.0,0.0,0.0,0.0,0.0,0.0,0.0,0.0,0.0,0.0,0.0,0.0,0.0,0.0,0.0,0.0,0.0,0.0,0.0,0.0,0.0,0.0,0.0,0.0,0.0,0.0,0.0,0.0,0.0,0.0,0.0,0.0,0.0,0.0,0.0,0.0,0.0,0.0,0.0,0.0,0.0,0.0,0.0,0.0,0.0,0.0,0.0,0.0,0.0,0.0,0.0,0.0,0.0,0.0,0.0,0.0,0.0,0.0,0.0,0.0,0.0,0.0,0.0,0.0,0.0,0.0,0.0,0.0,0.0,0.0,0.0,0.0,0.0,0.0,0.0,0.0,0.0,0.0,0.0,0.0,0.0,0.0,0.0,0.0,0.0,0.0,0.0,0.0,0.0,0.0,0.0,0.0,0.0,0.0,0.0,0.0,0.0,0.0,0.0,0.0,0.0,0.0,0.0,0.0,0.0,0.0,0.0,0.0,0.0,0.0,0.0,0.0,0.0,0.0,0.0,0.0,0.0,0.0,0.0,0.0,0.0,0.0,0.0,0.0,0.0,0.0,0.0,0.0,0.0,0.0,0.0,0.0,0.0,0.0,0.0,0.0,0.0,0.0,0.0,0.0,0.0,0.0,0.0,0.0,0.0,0.0,0.0,0.0,0.0,0.0,0.0,0.0,0.0,0.0,0.0,0.0,0.0,0.0,0.0,0.0,0.0,0.0,0.0,0.0,0.0,0.0,0.0,0.0,0.0,0.0,0.0,0.0,0.0,0.0,0.0,0.0,0.0,0.0,0.0,0.0,0.0,0.0,0.0,0.0,0.0,0.0,0.0,0.0,0.0,0.0,0.0,0.0,0.0,0.0,0.0,0.0,0.0,0.0,0.0,0.0,0.0,0.0,0.0,0.0,0.0,0.0,0.0,0.0,0.0,0.0,0.0,0.0,0.0,0.0,0.0,0.0,0.0,0.0,0.0,0.0,0.0,0.0,0.0,0.0,0.0,0.0,0.0,0.0,0.0,0.0,0.0,0.0,0.0,0.0,0.0,0.0,0.0,0.0,0.0,0.0,0.0,0.0,0.0,0.0,0.0,0.0,0.0,0.0,0.0,0.0,0.0,0.0,0.0,0.0,0.0,0.0,0.0,0.0,0.0,0.0,0.0,0.0,0.0,0.0,0.0,0.0,0.0,0.0,0.0,0.0,0.0,0.0,0.0,0.0,0.0,0.0,0.0,0.0,0.0,0.0,0.0,0.0,0.0,0.0,0.0,0.0,0.0,0.0,0.0,0.0,0.0,0.0,0.0,0.0,0.0,0.0,0.0,0.0,0.0,0.0,0.0,0.0,0.0,0.0,0.0,0.0,0.0,0.0,0.0,0.0,0.0,0.0,0.0,0.0,0.0,0.0,0.0,0.0,0.0,0.0,0.0,0.0,0.0,0.0,0.0,0.0,0.0,0.0,0.0,0.0,0.0,0.0,0.0,0.0,0.0,0.0,0.0,0.0,0.0,0.0,0.0,0.0,0.0,0.0,0.0,0.0,0.0,0.0,0.0,0.0,0.0,0.0,0.0,0.0,0.0,0.0,0.0,0.0,0.0,0.0,0.0,0.0,0.0,0.0,0.0,0.0,0.0,0.0,0.0,0.0,0.0,0.0,0.0,0.0,0.0,0.0,0.0,0.0,0.0,0.0,0.0,0.0,0.0,0.0,0.0,0.0,0.0,0.0,0.0,0.0,0.0,0.0,0.0,0.0,0.0,0.0,0.0,0.0,0.0,0.0,0.0,0.0,0.0,0.0,0.0,0.0,0.0,0.0,0.0,0.0,0.0,0.0,0.0,0.0,0.0,0.0,0.0,0.0,0.0,0.0,0.0,0.0,0.0,0.0,0.0,0.0,0.0,0.0,0.0,0.0,0.0,0.0,0.0,0.0,0.0,0.0,0.0,0.0,0.0,0.0,0.0,0.0,0.0,0.0,0.0,0.0,0.0,0.0,0.0,0.0,0.0,0.0,0.0,0.0,0.0,0.0,0.0,0.0,0.0,0.0,0.0,0.0,0.0,0.0,0.0,0.0,0.0,0.0,0.0,0.0,0.0,0.0,0.0,0.0,0.0,0.0,0.0,0.0,0.0,0.0,0.0,0.0,0.0,0.0,0.0,0.0,0.0,0.0,0.0,0.0,0.0,0.0,0.0,0.0,0.0,0.0,0.0,0.0,0.0,0.0,0.0,0.0,0.0,0.0,0.0,0.0,0.0,0.0,0.0,0.0,0.0,0.0,0.0,0.0,0.0,0.0,0.0,0.0,0.0,0.0,0.0,0.0,0.0,0.0,0.0,0.0,0.0,0.0,0.0,0.0,0.0,0.0,0.0,0.0,0.0,0.0,0.0,0.0,0.0,0.0,0.0,0.0,0.0,0.0,0.0,0.0,0.0,0.0,0.0,0.0,0.0,0.0,0.0,0.0,0.0,0.0,0.0,0.0,0.0,0.0,0.0,0.0,0.0,0.0,0.0,0.0,0.0,0.0,0.0,0.0,0.0,0.0,0.0,0.0,0.0,0.0,0.0,0.0,0.0,0.0,0.0,0.0,0.0,0.0,0.0,0.0,0.0,0.0,0.0,0.0,0.0,0.0,0.0,0.0,0.0,0.0,0.0,0.0,0.0,0.0,0.0,0.0,0.0,0.0,0.0,0.0,0.0,0.0,0.0,0.0,0.0,0.0,0.0,0.0,0.0,0.0,0.0,0.0,0.0,0.0,0.0,0.0,0.0,0.0,0.0,0.0,0.0,0.0,0.0,0.0,0.0,0.0,0.0,0.0,0.0,0.0,0.0,0.0,0.0,0.0,0.0,0.0,0.0,0.0,0.0,0.0,0.0,0.0,0.0,0.0,0.0,0.0,0.0,0.0,0.0,0.0,0.0,0.0,0.0,0.0,0.0,0.0,0.0,0.0,0.0,0.0,0.0,0.0,0.0,0.0,0.0,0.0,0.0,0.0,0.0,0.0,0.0,0.0,0.0,0.0,0.0,0.0,0.0,0.0,0.0,0.0,0.0,0.0,0.0,0.0,0.0,0.0,0.0,0.0,0.0,0.0,0.0,0.0,0.0,0.0,0.0,0.0,0.0,0.0,0.0,0.0,0.0,0.0,0.0,0.0,0.0,0.0,0.0,0.0,0.0,0.0,0.0,0.0,0.0,0.0,0.0,0.0,0.0,0.0,0.0,0.0,0.0,0.0,0.0,0.0,0.0,0.0,0.0,0.0,0.0,0.0,0.0,0.0,0.0,0.0,0.0,0.0,0.0,0.0,0.0,0.0,0.0,0.0,0.0,0.0,0.0,0.0,0.0,0.0,0.0,0.0,0.0,0.0,0.0,0.0,0.0,0.0,0.0,0.0,0.0,0.0,0.0,0.0,0.0,0.0,0.0,0.0,0.0,0.0,0.0,0.0,0.0,0.0,0.0,0.0,0.0,0.0,0.0,0.0,0.0,0.0,0.0,0.0,0.0,0.0,0.0,0.0,0.0,0.0,0.0,0.0,0.0,0.0,0.0,0.0,0.0,0.0,0.0,0.0,0.0,0.0,0.0,0.0,0.0,0.0,0.0,0.0,0.0,0.0,0.0,0.0,0.0,0.0,0.0,0.0,0.0,0.0,0.0,0.0,0.0,0.0,0.0,0.0,0.0,0.0,0.0,0.0,0.0,0.0,0.0,0.0,0.0,0.0,0.0,0.0,0.0,0.0,0.0,0.0,0.0,0.0,0.0,0.0,0.0,0.0,0.0,0.0,0.0,0.0,0.0,0.0,0.0,0.0,0.0,0.0,0.0,0.0,0.0,0.0,0.0,0.0,0.0,0.0,0.0,0.0,0.0,0.0,0.0,0.0,0.0,0.0,0.0,0.0,0.0,0.0,0.0,0.0,0.0,0.0,0.0,0.0,0.0,0.0,0.0,0.0,0.0,0.0,0.0,0.0,0.0,0.0,0.0,0.0,0.0,0.0,0.0,0.0,0.0,0.0,0.0,0.0,0.0,0.0,0.0,0.0,0.0,0.0,0.0,0.0,0.0,0.0,0.0,0.0,0.0,0.0,0.0,0.0,0.0,0.0,0.0,0.0,0.0,0.0,0.0,0.0,0.0,0.0,0.0,0.0,0.0,0.0,0.0,0.0,0.0,0.0,0.0,0.0,0.0,0.0,0.0,0.0,0.0,0.0,0.0,0.0,0.0,0.0,0.0,0.0,0.0,0.0,0.0,0.0,0.0,0.0,0.0,0.0,0.0,0.0,0.0,0.0,0.0,0.0,0.0,0.0,0.0,0.0,0.0,0.0,0.0,0.0,0.0,0.0,0.0,0.0,0.0,0.0,0.0,0.0,0.0,0.0,0.0,0.0,0.0,0.0,0.0,0.0,0.0,0.0,0.0,0.0,0.0,0.0,0.0,0.0,0.0,0.0,0.0,0.0,0.0,0.0,0.0,0.0,0.0,0.0,0.0,0.0,0.0,0.0,0.0,0.0,0.0,0.0,0.0,0.0,0.0,0.0,0.0,0.0,0.0,0.0,0.0,0.0,0.0,0.0,0.0,0.0,0.0,0.0,0.0,0.0,0.0,0.0,0.0,0.0,0.0,0.0,0.0,0.0,0.0,0.0,0.0,0.0,0.0,0.0,0.0,0.0,0.0,0.0,0.0,0.0,0.0,0.0,0.0,0.0,0.0,0.0,0.0,0.0,0.0,0.0,0.0,0.0,0.0,0.0,0.0,0.0,0.0,0.0,0.0,0.0,0.0,0.0,0.0,0.0,0.0,0.0,0.0,0.0,0.0,0.0,0.0,0.0,0.0,0.0,0.0,0.0,0.0,0.0,0.0,0.0,0.0,0.0,0.0,0.0,0.0,0.0,0.0,0.0,0.0,0.0,0.0,0.0,0.0,0.0,0.0,0.0,0.0,0.0,0.0,0.0,0.0,0.0,0.0,0.0,0.0,0.0,0.0,0.0,0.0,0.0,0.0,0.0,0.0,0.0,0.0,0.0,0.0,0.0,0.0,0.0,0.0,0.0,0.0,0.0,0.0,0.0,0.0,0.0,0.0,0.0,0.0,0.0,0.0,0.0,0.0,0.0,0.0,0.0,0.0,0.0,0.0,0.0,0.0,0.0,0.0,0.0,0.0,0.0,0.0,0.0,0.0,0.0,0.0,0.0,0.0,0.0,0.0,0.0,0.0,0.0,0.0,0.0,0.0,0.0,0.0,0.0,0.0,0.0,0.0,0.0,0.0,0.0,0.0,0.0,0.0,0.0,0.0,0.0,0.0,0.0,0.0,0.0,0.0,0.0,0.0,0.0,0.0,0.0,0.0,0.0,0.0,0.0,0.0,0.0,0.0,0.0,0.0,0.0,0.0,0.0,0.0,0.0,0.0,0.0,0.0,0.0,0.0,0.0,0.0,0.0,0.0,0.0,0.0,0.0,0.0,0.0,0.0,0.0,0.0,0.0,0.0,0.0,0.0,0.0,-2.4661,-2.4537,0.0,0.0,0.0,0.0,0.0,0.0,0.0,0.0,0.0,0.0,0.0,0.0,0.0,0.0,0.0,0.0,0.0,0.0,0.0,0.0,0.0,0.0,0.0,0.0,0.0,0.0,0.0,0.0,0.0,0.0,0.0,0.0,0.0,0.0,0.0,0.0,0.0,0.0,0.0,0.0,0.0,0.0,0.0,0.0,0.0,0.0,0.0,0.0,0.0,0.0,0.0,0.0,0.0,0.0,0.0,0.0,0.0,0.0,0.0,0.0,0.0,0.0,0.0,0.0,0.0,0.0,0.0,0.0,0.0,0.0,0.0,0.0,0.0,0.0,0.0,0.0,0.0,0.0,0.0,0.0,0.0,0.0,0.0,0.0,0.0,0.0,0.0,0.0,0.0,0.0,0.0,0.0,0.0,0.0,0.0,0.0,0.0,0.0,0.0,0.0,0.0,0.0,0.0,0.0,0.0,0.0,0.0,0.0,0.0,0.0,0.0,0.0,0.0,0.0,-2.6319,-2.587,0.0,0.0,0.0,0.0,0.0,0.0,0.0,0.0,0.0,0.0,0.0,0.0,0.0,0.0,0.0,0.0,0.0,0.0,0.0,0.0,0.0,0.0,0.0,0.0,0.0,0.0,0.0,0.0,0.0,0.0,0.0,0.0,0.0,0.0,0.0,0.0,0.0,0.0,0.0,0.0,0.0,0.0,0.0,0.0,0.0,0.0,0.0,0.0,0.0,0.0,0.0,0.0,0.0,0.0,0.0,0.0,0.0,0.0,0.0,0.0,0.0,0.0,0.0,0.0,0.0,0.0,0.0,0.0,0.0,0.0,0.0,0.0,0.0,0.0,0.0,0.0,0.0,0.0,0.0,0.0,0.0,0.0,0.0,0.0,0.0,0.0,0.0,0.0,0.0,0.0,0.0,0.0,0.0,0.0,0.0,0.0,0.0,0.0,0.0,0.0,0.0,0.0,0.0,0.0,0.0,0.0,0.0,0.0,-2.8589,-2.8933,-2.9622,-3.0011,-3.0011,-2.9652,-2.8442,-2.7814,-2.7631,-2.7647,0.0,0.0,0.0,0.0,0.0,0.0,0.0,0.0,0.0,0.0,0.0,0.0,0.0,0.0,0.0,0.0,0.0,0.0,0.0,0.0,0.0,0.0,0.0,0.0,0.0,0.0,0.0,0.0,0.0,0.0,0.0,0.0,0.0,0.0,0.0,0.0,0.0,0.0,-2.6691,-2.6691,-2.6691,-2.6691,0.0,0.0,0.0,0.0,0.0,0.0,0.0,0.0,0.0,0.0,0.0,0.0,0.0,0.0,0.0,0.0,0.0,0.0,0.0,0.0,0.0,0.0,0.0,0.0,0.0,0.0,0.0,0.0,0.0,0.0,0.0,0.0,0.0,0.0,0.0,0.0,0.0,0.0,0.0,0.0,0.0,0.0,0.0,0.0,-2.6691,-2.6691,0.0,0.0,0.0,0.0,0.0,0.0,0.0,0.0,0.0,0.0,0.0,0.0,0.0,-2.7994,-2.867,-2.8687,-2.8774,-2.8931,-2.8931,-2.9178,-2.9589,-2.9655,-2.9884,-3.0229,-3.0378,0.0,-2.8894,-2.822,0.0,0.0,0.0,0.0,0.0,0.0,0.0,0.0,0.0,0.0,0.0,0.0,0.0,0.0,0.0,0.0,0.0,0.0,0.0,0.0,0.0,0.0,0.0,0.0,0.0,0.0,0.0,0.0,0.0,0.0,0.0,0.0,0.0,0.0,0.0,0.0,-2.7334,-2.7334,-2.7317,-2.6894,-2.6691,-2.6708,-2.7131,-2.7283,-2.7199,-2.7283,0.0,0.0,0.0,0.0,0.0,0.0,0.0,0.0,0.0,0.0,0.0,0.0,0.0,0.0,0.0,0.0,0.0,0.0,0.0,0.0,0.0,0.0,0.0,0.0,0.0,0.0,0.0,0.0,0.0,0.0,0.0,0.0,0.0,0.0,0.0,0.0,0.0,0.0,0.0,-2.7063,-2.7165,-2.6742,-2.7063,-2.7165,0.0,0.0,0.0,0.0,0.0,0.0,0.0,0.0,0.0,-2.9093,-2.9499,-2.9871,-3.0226,-3.0512,-3.0973,-3.1655,-3.1948,-3.2393,-3.2998,-3.3239,-3.335,-3.3283,-3.3245,-3.293,-3.2262,-3.0008,-2.9071,-2.9017,0.0,0.0,0.0,0.0,-2.9016,-2.9224,0.0,0.0,0.0,0.0,0.0,0.0,0.0,0.0,0.0,0.0,0.0,0.0,0.0,0.0,0.0,-2.6691,0.0,0.0,0.0,0.0,0.0,0.0,0.0,0.0,0.0,0.0,0.0,0.0,-2.8112,-2.8112,-2.8112,-2.7554,-2.7283,-2.7317,-2.8061,-2.7994,-2.7317,-2.7875,-2.7791,0.0,0.0,0.0,0.0,0.0,0.0,0.0,0.0,0.0,0.0,0.0,0.0,0.0,0.0,0.0,0.0,0.0,0.0,0.0,0.0,0.0,0.0,0.0,0.0,0.0,0.0,0.0,0.0,0.0,0.0,0.0,0.0,0.0,0.0,0.0,0.0,0.0,0.0,-2.7638,-2.7841,-2.7063,-2.7824,-2.8027,0.0,0.0,0.0,0.0,0.0,0.0,-2.9516,-3.0074,-3.048,-3.0666,-3.1516,-3.1969,-3.1969,-3.2659,-3.3319,-3.402,-3.4422,-3.4939,-3.5612,-3.5964,-3.5994,-3.5768,-3.5473,-3.5349,-3.5082,-3.1889,-3.0597,-3.0516,-2.9761,-2.9709,-3.0107,-3.0505,-3.093,-3.1393,0.0,0.0,0.0,0.0,0.0,0.0,0.0,0.0,0.0,0.0,0.0,0.0,0.0,0.0,-2.6691,-2.6691,-2.6691,-2.6691,0.0,0.0,0.0,0.0,0.0,0.0,0.0,0.0,0.0,-2.8924,-2.8924,-2.8924,-2.8924,-2.889,-2.8892,-2.8907,-2.9668,-2.9567,-2.8873,-2.8907,-2.8907,-2.8805,0.0,0.0,0.0,0.0,0.0,0.0,0.0,0.0,0.0,0.0,0.0,0.0,0.0,0.0,0.0,0.0,0.0,0.0,0.0,0.0,0.0,0.0,0.0,0.0,0.0,0.0,0.0,0.0,0.0,0.0,0.0,0.0,0.0,0.0,0.0,0.0,0.0,0.0,0.0,-2.7858,-2.9093,0.0,0.0,0.0,0.0,-2.9989,-3.0632,-3.1038,-3.1089,-3.1123,-3.1461,-3.2154,-3.3451,-3.4119,-3.4042,-3.5256,-3.5545,-3.4835,-3.4888,-3.5129,-3.5612,-3.5612,-3.5884,-3.6256,-3.6248,-3.6229,-3.6046,-3.3505,-3.246,-3.246,-3.2423,-3.1946,-3.1488,-3.3028,-3.3138,-3.2625,0.0,0.0,0.0,0.0,0.0,0.0,0.0,0.0,0.0,0.0,0.0,0.0,0.0,-2.6691,-2.6691,-2.6691,-2.6691,-2.6691,-2.6691,0.0,0.0,0.0,0.0,0.0,0.0,0.0,-2.8941,-2.9702,-3.0176,-3.0412,-3.0412,-3.0412,-3.0412,-3.0463,-3.1681,-3.1799,-3.1145,-3.1145,-3.0565,-2.9719,-2.9922,-2.9262,0.0,0.0,0.0,0.0,0.0,0.0,0.0,0.0,0.0,0.0,0.0,0.0,0.0,0.0,0.0,0.0,0.0,0.0,0.0,0.0,0.0,0.0,0.0,0.0,0.0,0.0,0.0,0.0,0.0,0.0,0.0,0.0,0.0,0.0,0.0,0.0,0.0,-3.0717,-3.2019,0.0,-3.1512,-3.1918,-3.2425,-3.2899,-3.3169,-3.3525,-3.4015,-3.4523,-3.4912,-3.5165,-3.6465,-3.7123,-3.7082,-3.8229,-3.8654,-3.8385,-3.8753,-3.8991,-3.9159,-3.9159,-3.9223,-3.9405,-3.9405,-3.9405,-3.9294,-3.7881,-3.6064,-3.4073,-3.3568,-3.3513,-3.3807,-3.4376,-3.4761,-3.5018,0.0,0.0,0.0,0.0,0.0,0.0,0.0,0.0,0.0,0.0,0.0,-2.5879,-2.6623,-2.6691,-2.6691,-2.6691,-2.6691,-2.6691,-2.6691,0.0,0.0,0.0,0.0,0.0,0.0,-2.9211,-3.0091,-3.0835,-3.1579,-3.1935,-3.1952,-3.2188,-3.2307,-3.2374,-3.388,-3.4269,-3.3812,-3.4066,-3.2882,-3.0886,-3.136,-3.097,-3.0078,0.0,0.0,0.0,0.0,0.0,0.0,0.0,0.0,0.0,0.0,0.0,0.0,0.0,0.0,0.0,0.0,0.0,0.0,0.0,0.0,0.0,0.0,0.0,0.0,0.0,0.0,0.0,0.0,0.0,0.0,0.0,0.0,0.0,0.0,-3.1782,-3.3017,-3.3017,-3.4353,-3.4878,-3.388,-3.4235,-3.4742,-3.5233,-3.5504,-3.5859,-3.6366,-3.7053,-3.7462,-3.7462,-3.8876,-3.95,-3.9253,-4.0399,-4.0834,-4.0562,-4.0943,-4.1111,-4.1111,-4.1111,-4.1111,-4.1111,-4.1111,-4.1111,-4.1075,-4.0524,-3.8872,-3.6615,-3.6064,-3.6028,-3.6321,-3.6842,-3.7257,-3.7514,0.0,0.0,0.0,0.0,0.0,0.0,0.0,0.0,0.0,0.0,-2.5118,-2.5862,-2.6607,-2.6691,-2.6691,-2.6691,-2.6691,-2.6691,-2.6691,-2.6691,0.0,0.0,0.0,0.0,-2.9059,-3.0497,-3.1596,-3.2307,-3.3068,-3.344,-3.3457,-3.4201,-3.4556,-3.4624,-3.6163,-3.684,-3.6857,-3.7618,-3.5808,-3.2442,-3.2425,-3.2432,-3.2188,0.0,0.0,0.0,0.0,0.0,0.0,0.0,0.0,0.0,0.0,0.0,0.0,0.0,0.0,0.0,0.0,0.0,0.0,0.0,0.0,0.0,0.0,0.0,0.0,0.0,0.0,0.0,0.0,0.0,0.0,0.0,0.0,0.0,-3.2381,-3.3643,-3.4607,-3.4624,-3.596,-3.6299,-3.481,-3.6011,-3.6874,-3.6874,-3.755,-3.7973,-3.7973,-3.8504,-3.8808,-3.8808,-4.0574,-4.1142,-4.0384,-4.1697,-4.1956,-4.1185,-4.1185,-4.1185,-4.1185,-4.1185,-4.1185,-4.1185,-4.1185,-4.1185,-4.1185,-4.1185,-4.0726,-4.001,-3.9955,-3.9441,-3.8927,-4.0524,-4.0616,-3.9937,0.0,0.0,0.0,0.0,0.0,0.0,0.0,0.0,0.0,0.0,-2.4692,-2.5287,-2.6556,-2.6691,-2.6691,-2.6691,-2.6691,-2.6691,-2.6691,0.0,0.0,0.0,0.0,0.0,-3.1326,-3.1765,-3.2357,-3.3102,-3.3829,-3.4201,-3.4218,-3.5537,-3.6146,-3.6214,-3.7719,-3.8091,-3.7652,-3.8379,-3.7787,-3.6315,-3.5757,-3.4878,-3.3846,0.0,0.0,0.0,0.0,0.0,0.0,0.0,0.0,0.0,0.0,0.0,0.0,0.0,0.0,0.0,0.0,0.0,0.0,0.0,0.0,0.0,0.0,0.0,0.0,0.0,0.0,0.0,0.0,0.0,0.0,0.0,-3.3372,-3.4506,-3.3964,-3.5673,-3.7161,-3.7686,-3.8599,-3.9005,-3.8582,-3.892,-3.9174,-3.9174,-3.936,-3.9642,-4.0053,-4.0205,-4.0506,-4.0944,-4.1895,-4.2242,-4.2044,-4.2812,-4.3057,-4.2837,-4.2837,-4.2837,-4.2837,-4.2837,-4.2837,-4.2837,-4.2837,-4.2837,-4.2837,-4.2837,-4.2708,-4.2378,-4.124,-4.0286,-3.968,-4.0726,-4.0965,-4.0781,0.0,0.0,0.0,0.0,0.0,0.0,0.0,0.0,0.0,0.0,-2.4506,-2.5082,-2.6522,-2.6691,-2.6691,-2.6691,-2.6691,-2.6691,-2.6691,0.0,0.0,0.0,0.0,-3.0649,-3.2297,-3.2899,-3.3423,-3.3863,-3.4607,-3.5131,-3.547,-3.6688,-3.7415,-3.7753,-3.892,-3.9208,-3.8853,-3.9276,-3.9208,-3.8768,-3.8328,-3.7449,-3.6315,-3.569,-3.5115,-3.4506,-3.3423,-3.3406,-3.3728,-3.2865,0.0,0.0,0.0,0.0,0.0,0.0,0.0,0.0,0.0,0.0,0.0,0.0,0.0,0.0,0.0,0.0,0.0,0.0,0.0,0.0,0.0,0.0,0.0,0.0,-3.552,-3.6535,-3.64,-3.7533,-3.8633,-3.936,-3.9817,-4.007,-4.007,-4.007,-4.007,-4.007,-4.007,-4.0254,-4.0528,-4.1013,-4.1446,-4.181,-4.258,-4.3014,-4.3014,-4.3321,-4.3497,-4.3497,-4.3497,-4.3497,-4.3497,-4.3497,-4.3497,-4.3497,-4.3497,-4.3497,-4.3497,-4.3497,-4.3296,-4.2928,0.0,0.0,0.0,0.0,-4.2121,-4.2121,0.0,0.0,0.0,0.0,0.0,0.0,0.0,0.0,0.0,0.0,0.0,-2.5048,-2.642,-2.6573,-2.6539,-2.6454,-2.6522,-2.664,0.0,0.0,0.0,-3.0294,-3.1055,-3.1816,-3.2645,-3.3947,-3.4624,-3.4624,-3.5385,-3.6096,-3.6806,-3.7635,-3.8379,-3.9022,-3.9749,-4.007,-4.007,-4.007,-4.007,-4.007,-4.007,-3.9648,-3.8853,-3.7533,-3.7398,-3.7719,-3.6265,-3.5419,-3.4979,-3.481,0.0,0.0,0.0,0.0,0.0,0.0,0.0,0.0,0.0,0.0,0.0,0.0,0.0,0.0,0.0,0.0,0.0,0.0,0.0,0.0,0.0,0.0,0.0,0.0,-3.7533,-3.8278,-3.9005,-3.9191,-3.9445,-4.0003,-4.007,-4.007,-4.007,-4.007,-4.0121,-4.0221,-4.0204,-4.0288,-4.0504,-4.1515,0.0,0.0,0.0,-4.3626,-4.3626,-4.3534,-4.3497,-4.3497,-4.3497,-4.3497,-4.3497,-4.3497,-4.3497,-4.3497,-4.3497,-4.3497,-4.3497,-4.3497,-4.3075,-4.2506,-4.3112,-4.3406,-4.3497,-4.3497,-4.3497,-4.3497,0.0,0.0,0.0,0.0,0.0,0.0,0.0,0.0,0.0,-2.432,-2.4506,-2.4831,-2.5727,-2.5812,-2.5575,-2.4997,-2.5473,-2.6319,0.0,0.0,-2.9685,-3.1765,-3.2577,-3.3609,-3.4945,-3.525,-3.5402,-3.5402,-3.618,-3.6637,-3.6806,-3.8142,-3.8853,-3.9022,-3.9749,-4.007,-4.007,-4.007,-4.007,-4.007,-4.007,-3.9648,-3.8954,-3.8667,-3.8294,-3.7787,-3.6874,-3.7229,-3.7939,-3.6738,-3.6654,-3.6907,-3.6146,0.0,0.0,0.0,0.0,0.0,0.0,0.0,0.0,0.0,0.0,0.0,0.0,0.0,0.0,0.0,0.0,0.0,0.0,0.0,0.0,-3.7516,-3.8311,-3.9039,-3.9766,-4.0392,-4.0612,-4.0138,-4.007,-4.007,-4.007,-4.007,-4.0286,-4.0685,-4.075,-4.1457,-4.3072,-4.3373,-4.3999,-4.5056,-4.4674,-4.447,-4.447,-4.3809,-4.3497,-4.3497,-4.3497,0.0,-4.3497,-4.3497,-4.3497,-4.3497,-4.3497,-4.3497,-4.3497,-4.3497,-4.3406,-4.3222,-4.2708,-4.2928,-4.3497,-4.3497,-4.3497,-4.3497,0.0,0.0,0.0,0.0,0.0,0.0,0.0,0.0,0.0,0.0,-2.3934,-2.4222,-2.4966,-2.505,-2.4898,-2.454,-2.5507,0.0,0.0,-2.9668,-3.1072,-3.3288,-3.3744,-3.4472,-3.5605,-3.5622,-3.5622,-3.5622,-3.64,-3.6975,-3.7364,-3.8481,-3.9191,-3.9546,-3.9918,-4.029,-4.0646,-4.0646,-4.0849,-4.1187,-4.1187,-4.0967,-4.0561,-3.9817,-3.9309,-3.8937,-3.8565,-3.8667,-3.8886,-3.8142,-3.7889,-3.777,-3.7009,-3.6248,-3.5487,0.0,0.0,0.0,0.0,0.0,0.0,0.0,0.0,0.0,0.0,0.0,0.0,0.0,0.0,-3.6755,-3.6738,0.0,-3.8125,-3.887,-3.9614,-4.0223,-4.0595,-4.1288,-4.1474,-4.073,-4.0967,-4.1187,-4.1187,-4.1187,-4.1308,-4.156,-4.161,-4.2043,-4.3028,-4.3384,-4.4003,-4.4944,-4.4517,-4.44,-4.4709,-4.3901,-4.3497,-4.3497,-4.3497,-4.3497,-4.3497,-4.3497,-4.3497,-4.3497,-4.3497,-4.3497,-4.3497,-4.3497,-4.3497,-4.3442,-4.3057,-4.3149,-4.3497,-4.3497,-4.3497,-4.3497,0.0,0.0,0.0,0.0,0.0,0.0,0.0,0.0,0.0,0.0,-2.3393,-2.3613,-2.4205,-2.4303,-2.4354,0.0,0.0,0.0,0.0,-3.092,-3.2324,-3.4404,-3.4641,-3.4996,-3.5605,-3.5622,-3.5622,-3.5622,-3.6552,-3.7313,-3.7922,-3.8802,-3.9512,-4.0087,-4.024,-4.0713,-4.1407,-4.1407,-4.1847,-4.2489,-4.2354,-4.2286,-4.2151,-4.0967,-4.051,-4.0493,-4.0341,-3.9918,-3.9411,-3.9259,-3.8819,-3.8244,-3.7787,-3.7449,-3.6958,-3.5723,-3.5487,0.0,0.0,0.0,0.0,0.0,0.0,0.0,0.0,-3.6163,-3.6874,-3.7516,-3.8244,-3.8886,-3.9343,-3.9529,-3.9834,-4.0409,-4.1018,-4.1407,-4.1407,-4.2049,-4.2286,-4.1711,-4.2033,-4.2286,-4.2286,-4.2286,-4.2339,-4.2481,-4.2568,-4.2775,-4.3048,-4.3628,-4.4248,-4.4884,-4.4633,-4.4667,-4.5186,-4.436,-4.3883,-4.3736,-4.3883,-4.3791,-4.3497,-4.3644,-4.3644,-4.3497,-4.3497,-4.3497,-4.3497,-4.3497,-4.3497,-4.3497,-4.3497,-4.3497,-4.3497,-4.3497,-4.3497,-4.3497,0.0,0.0,0.0,0.0,0.0,0.0,0.0,0.0,0.0,0.0,0.0,0.0,0.0,0.0,0.0,0.0,0.0,0.0,-2.9922,-3.1393,-3.2848,-3.4421,-3.5131,-3.5537,-3.5622,-3.5622,-3.5622,-3.5622,-3.7077,-3.7821,-3.7939,-3.9326,-4.0003,-4.0104,-4.0781,-4.1491,-4.2168,-4.2168,-4.2608,-4.3234,-4.2557,-4.2286,-4.2269,-4.21,-4.2033,-4.1965,-4.1305,-4.1018,-4.0849,-4.0189,-3.9901,-3.9935,-4.0527,-3.98,-3.8717,-3.8548,-3.7127,-3.574,-3.6265,-3.7009,-3.7635,-3.755,-3.8007,-3.8667,0.0,-4.0054,-4.0612,-4.0696,-4.1288,-4.1627,-4.1068,-4.1491,-4.1948,-4.2033,-4.2117,-4.2168,-4.2168,-4.2811,-4.3267,-4.3183,-4.2658,-4.2286,-4.2286,-4.2286,-4.2533,-4.3061,-4.3593,-4.4458,-4.5692,-4.635,-4.7031,-4.7821,-4.7128,-4.6763,-4.6856,-4.603,-4.5278,-4.458,-4.5296,-4.4874,-4.3516,-4.425,-4.4176,-4.3497,-4.3497,-4.3497,-4.3497,-4.3497,-4.3497,-4.3497,-4.3497,-4.3497,-4.3497,-4.3497,-4.3497,-4.3497,0.0,0.0,0.0,0.0,0.0,0.0,0.0,0.0,0.0,0.0,0.0,0.0,0.0,0.0,0.0,0.0,0.0,0.0,-3.0548,-3.1759,-3.3023,-3.4472,-3.4822,-3.5005,-3.5005,-3.5407,-3.5622,-3.5622,-3.7144,-3.7905,-3.7939,-3.9394,-4.0307,-4.0747,-4.1068,-4.2117,-4.3623,-4.3623,-4.4299,-4.5314,-4.4587,-4.4282,-4.4181,-4.3284,-4.2946,-4.2794,-4.1627,-4.0916,0.0,0.0,-4.007,-4.0121,-4.0443,-4.0121,-3.9462,-3.8616,-3.8294,-3.8278,-3.8616,-3.8937,-3.9276,-3.9715,-4.0375,-4.1102,-4.1863,-4.2269,-4.2625,-4.3081,-4.3403,-4.3521,-4.3234,-4.3047,-4.2946,-4.2946,-4.3318,-4.347,-4.3014,-4.3995,-4.4418,-4.3521,-4.3538,-4.3792,-4.4231,-4.4582,-4.478,-4.467,-4.4903,-4.5079,-4.5246,-4.5509,-4.597,-4.6664,-4.6229,-4.6194,-4.6575,-4.6138,-4.5736,-4.5406,-4.5736,-4.5296,-4.4213,-4.4562,-4.4268,-4.3497,-4.3497,-4.3497,-4.3497,-4.3497,-4.3497,-4.3497,-4.3497,-4.3497,-4.3497,-4.3497,-4.3497,-4.3497,0.0,0.0,0.0,0.0,0.0,0.0,0.0,0.0,0.0,0.0,0.0,0.0,0.0,0.0,0.0,0.0,0.0,0.0,0.0,-3.1537,-3.2659,-3.3973,-3.4235,0.0,-3.4592,-3.5094,-3.5415,-3.5618,-3.7146,-3.7868,-3.7901,-3.9581,-4.0679,-4.1221,-4.1644,-4.2963,-4.4891,-4.4891,-4.5737,-4.7022,-4.6075,-4.5703,-4.5534,-4.4012,-4.3284,-4.2912,-4.1424,-4.0544,0.0,0.0,-3.9478,-3.9512,-3.9715,-3.9648,-3.9276,-3.821,-3.865,-3.9563,-3.9969,-4.0375,-4.0865,-4.1627,-4.254,-4.3436,-4.4181,-4.435,-4.457,-4.5348,-4.5331,-4.5196,-4.5196,-4.4722,-4.435,-4.435,-4.4823,-4.4925,-4.4164,-4.501,-4.5145,-4.3589,-4.4058,-4.4742,-4.5314,-4.5802,-4.5925,-4.5744,-4.5654,-4.5486,-4.5123,-4.5284,-4.5648,-4.6257,-4.6158,-4.6288,-4.6762,-4.6631,-4.6452,-4.6232,-4.6452,-4.603,-4.5039,-4.5039,-4.4709,-4.414,-4.392,-4.3828,-4.3809,-4.3589,-4.3497,-4.3497,-4.3497,-4.3497,-4.3497,-4.3497,-4.3497,-4.3497,0.0,0.0,0.0,0.0,0.0,0.0,0.0,0.0,0.0,0.0,0.0,0.0,0.0,0.0,0.0,0.0,0.0,0.0,0.0,-3.0445,-3.1599,-3.2609,-3.3281,-3.3937,-3.4576,-3.4616,-3.4972,-3.5613,-3.7061,-3.7821,-3.7854,-4.0117,-4.1187,-4.1271,-4.2709,-4.4215,-4.5669,-4.5669,-4.6532,-4.775,-4.6295,-4.5703,-4.5534,-4.4012,-4.2963,-4.2134,-4.0646,0.0,0.0,0.0,-3.7973,-3.8091,-3.8802,-3.8531,-3.7973,-3.7922,-3.7939,-3.8278,-3.9698,-4.1119,-4.2405,-4.3166,-4.4485,-4.5788,-4.6532,-4.6684,-4.6904,-4.7665,-4.7242,-4.6718,-4.6718,-4.6701,-4.6684,-4.6684,-4.6718,-4.6464,-4.5737,-4.5669,-4.5145,-4.3589,-4.4009,-4.4475,-4.4648,-4.466,-4.4965,-4.5652,-4.5589,-4.5767,-4.6336,-4.6955,-4.7572,-4.821,-4.8192,-4.8231,-4.8231,-4.8251,-4.7847,-4.7095,-4.7865,-4.7407,-4.5865,-4.5865,-4.5847,-4.5773,-4.5002,-4.4672,-4.4617,-4.3809,-4.3497,-4.3497,-4.3497,-4.3497,-4.3497,-4.3497,-4.3497,-4.3497,0.0,0.0,0.0,0.0,0.0,0.0,0.0,0.0,0.0,0.0,0.0,0.0,0.0,0.0,0.0,0.0,0.0,0.0,0.0,-2.9134,-3.032,-3.1561,-3.2037,-3.2772,-3.3868,-3.4351,-3.4931,-3.5589,-3.6577,-3.7302,-3.7834,-3.964,-4.0983,-4.1999,-4.3521,-4.5026,-4.643,-4.643,-4.7276,-4.8426,-4.5957,-4.5263,-4.5432,-4.2912,-4.1796,-4.1305,0.0,0.0,0.0,0.0,-3.7905,-3.7939,-3.8193,-3.8108,-3.8007,-3.8481,-3.8988,-3.9698,-4.1153,-4.2658,-4.4113,-4.5348,-4.6413,-4.7361,-4.8088,-4.8257,-4.8325,-4.8595,-4.8054,-4.753,-4.753,-4.6735,-4.6075,-4.6075,-4.6075,-4.5805,-4.506,-4.5382,-4.4959,-4.2912,-4.3756,-4.432,-4.3826,-4.4653,-4.5306,-4.5693,-4.566,-4.5528,-4.5213,-4.5425,-4.5665,-4.585,-4.6257,-4.643,-4.643,-4.6847,-4.7155,-4.7298,-4.6907,-4.6709,-4.6673,-4.559,-4.5406,-4.5883,-4.5608,-4.5186,-4.469,-4.4415,-4.3975,-4.3497,-4.3497,-4.3497,-4.3497,-4.3497,-4.3497,-4.3497,0.0,0.0,0.0,0.0,0.0,0.0,0.0,0.0,0.0,0.0,0.0,0.0,0.0,0.0,0.0,0.0,0.0,0.0,0.0,0.0,-2.8932,-3.0127,-3.0581,-3.1415,-3.2663,-3.309,-3.3597,-3.4232,-3.5419,-3.6214,-3.6744,-3.8763,-4.0203,-4.1178,-4.2617,-4.414,-4.5589,-4.5546,-4.6279,-4.7242,-4.5043,-4.4299,-4.4248,-4.2049,-4.1204,0.0,0.0,0.0,0.0,0.0,-3.7094,-3.7094,-3.7094,-3.728,-3.7702,-3.87,-3.9715,-4.0899,-4.2625,-4.4215,-4.5669,-4.6887,-4.7953,-4.8883,-4.9627,-4.9576,-4.939,-4.939,-4.8392,-4.7445,-4.7175,-4.6126,-4.5213,-4.4925,-4.4891,-4.4722,-4.4231,-4.4587,-4.4333,-4.2861,-4.3555,-4.3961,-4.347,-4.4243,-4.4998,-4.5618,-4.5449,-4.519,-4.494,-4.4906,-4.4998,-4.5232,-4.5648,-4.5833,-4.5833,-4.6192,-4.6567,-4.697,-4.6848,-4.6893,-4.7095,-4.6342,-4.6269,-4.6746,-4.6452,-4.6049,-4.5516,-4.4947,-4.4397,-4.3901,-4.3608,-4.3497,-4.3497,-4.3497,-4.3497,-4.3497,0.0,0.0,0.0,0.0,0.0,0.0,0.0,0.0,0.0,0.0,0.0,0.0,0.0,0.0,0.0,0.0,0.0,0.0,0.0,0.0,0.0,-2.8403,-2.8971,-2.9881,-3.1144,-3.0982,-3.119,-3.1821,-3.3634,-3.4612,-3.4747,-3.7451,-3.8745,-3.89,-4.0267,-4.1805,-4.3234,-4.3191,-4.3656,-4.4451,-4.3534,-4.2757,-4.21,-4.1373,0.0,0.0,0.0,0.0,0.0,-3.6146,-3.5639,-3.5673,-3.5673,-3.6231,-3.7178,-3.8616,-4.0104,-4.1745,-4.4028,-4.5686,-4.6989,-4.7784,-4.9018,-5.0219,-5.0947,-5.0524,-4.9965,-4.9932,-4.8189,-4.6447,-4.572,-4.501,-4.4282,-4.3538,-4.3453,-4.347,-4.347,-4.347,-4.347,-4.342,-4.3487,-4.3521,-4.3487,-4.3521,-4.4164,-4.5652,-4.5026,-4.4886,-4.5477,-4.5477,-4.5732,-4.6288,-4.6336,-4.6336,-4.6336,-4.6383,-4.6354,-4.6242,-4.7594,-4.7865,-4.7205,-4.7921,-4.8251,-4.8214,-4.7443,-4.7076,-4.6874,-4.5351,-4.469,-4.4562,-4.3756,-4.3497,-4.3497,-4.3479,-4.3497,-4.3497,0.0,0.0,0.0,0.0,0.0,0.0,0.0,0.0,0.0,0.0,0.0,0.0,0.0,0.0,0.0,0.0,0.0,0.0,0.0,0.0,0.0,0.0,0.0,0.0,0.0,0.0,0.0,0.0,0.0,-3.3239,-3.4408,-3.5584,-3.6725,-3.7841,-3.9324,-4.0538,-4.1517,-4.165,-4.2196,-4.2979,0.0,-4.0503,-4.0424,0.0,0.0,0.0,0.0,0.0,0.0,-3.6315,-3.6011,-3.6485,-3.6485,-3.7381,-3.8616,-3.9529,-4.0849,-4.2523,-4.479,-4.6092,-4.7107,-4.8409,-4.9001,-4.9323,-4.9526,-4.9001,-4.8325,-4.775,-4.6312,-4.4908,-4.4147,-4.3842,-4.3656,-4.3453,-4.391,-4.4282,-4.4282,-4.4282,-4.4062,-4.3487,-4.4418,-4.4908,-4.4333,-4.479,-4.55,-4.6447,-4.5314,-4.4919,-4.5631,-4.512,-4.4906,-4.5035,-4.5035,-4.5035,-4.5035,-4.5965,-4.6371,-4.6361,-4.7066,-4.7627,-4.7994,-4.7609,-4.7425,-4.7407,-4.7205,-4.6434,-4.5296,-4.4874,-4.436,-4.3738,-4.3141,-4.3142,-4.3444,-4.305,-4.3178,-4.3497,0.0,0.0,0.0,0.0,0.0,0.0,0.0,0.0,0.0,0.0,0.0,0.0,0.0,0.0,0.0,0.0,0.0,0.0,0.0,0.0,0.0,0.0,0.0,0.0,0.0,0.0,0.0,0.0,0.0,0.0,0.0,-3.3434,-3.4257,-3.5031,-3.6479,-3.7594,-3.8456,0.0,0.0,0.0,0.0,0.0,0.0,0.0,0.0,0.0,0.0,0.0,0.0,-3.7415,-3.7381,-3.7753,-3.7753,-3.8768,-4.0104,-4.0832,-4.2117,-4.3656,-4.5263,-4.6244,-4.7073,-4.824,-4.8528,-4.8612,-4.8934,-4.8189,-4.7208,-4.6464,-4.4857,-4.3335,-4.2591,-4.2168,-4.1948,-4.1965,-4.2337,-4.2844,-4.3487,-4.3859,-4.4164,-4.4384,-4.5179,-4.5669,-4.5551,-4.5652,-4.6143,-4.7208,-4.5602,-4.4908,-4.5669,-4.4993,-4.4722,-4.506,-4.4756,-4.4587,-4.4587,-4.5545,-4.5985,-4.5899,-4.6813,-4.7414,-4.7774,-4.7414,-4.7177,-4.7075,-4.6557,-4.5769,-4.4818,-4.4189,-4.3695,-4.3204,-4.2548,-4.2501,-4.2734,-4.2422,-4.2501,-4.2772,0.0,0.0,0.0,0.0,0.0,0.0,0.0,0.0,0.0,0.0,0.0,0.0,0.0,0.0,0.0,0.0,0.0,0.0,0.0,0.0,0.0,0.0,0.0,0.0,0.0,0.0,0.0,0.0,0.0,0.0,0.0,0.0,0.0,0.0,0.0,0.0,0.0,0.0,0.0,0.0,0.0,0.0,0.0,0.0,0.0,0.0,0.0,0.0,0.0,0.0,-3.9225,-3.9174,-3.9377,-4.0375,-4.166,-4.2489,-4.3623,-4.4756,-4.5618,-4.6244,-4.6819,-4.7581,-4.7699,-4.78,-4.8426,-4.7411,-4.6143,-4.5399,-4.3606,-4.1897,-4.1068,-4.046,-4.0087,-4.0104,-4.0206,-4.0815,-4.2371,-4.3064,-4.4028,-4.5652,-4.5855,-4.6109,-4.6735,-4.6312,-4.6498,-4.7682,-4.5889,-4.506,-4.5821,-4.5043,-4.4874,-4.5534,-4.4925,-4.4587,-4.4587,-4.5178,-4.5401,-4.5282,-4.6632,-4.7168,-4.7012,-4.7205,-4.7138,-4.6791,-4.5712,-4.508,-4.4723,-4.3487,-4.2934,-4.2757,-4.1972,-4.1707,-4.181,-4.1707,-4.1707,-4.181,0.0,0.0,0.0,0.0,0.0,0.0,0.0,0.0,0.0,0.0,0.0,0.0,0.0,0.0,0.0,0.0,0.0,0.0,0.0,0.0,0.0,0.0,0.0,0.0,0.0,0.0,0.0,0.0,-2.6719,0.0,0.0,0.0,0.0,0.0,0.0,0.0,0.0,0.0,0.0,0.0,0.0,0.0,0.0,0.0,0.0,0.0,0.0,0.0,0.0,0.0,-4.0426,-4.0138,-4.1339,-4.232,-4.3301,-4.4705,-4.4857,-4.4874,-4.6227,-4.6261,-4.6075,-4.6802,-4.6532,-4.6126,-4.6244,-4.5094,-4.3792,-4.3031,-4.2083,-4.0984,-3.9631,-3.9783,-4.0104,-4.0087,-4.0612,-4.1762,-4.3876,-4.3741,-4.4215,-4.6346,-4.6599,-4.665,-4.6786,-4.7242,-4.7378,-4.7022,-4.6075,-4.5838,-4.6566,-4.5314,-4.4637,-4.4773,-4.4654,-4.4587,-4.4587,-4.5178,-4.5476,-4.5439,-4.6217,-4.6547,-4.6514,-4.6564,-4.6191,-4.5535,-4.529,-4.4493,-4.3269,-4.304,-4.2572,-4.1945,-4.1321,-4.1358,-4.175,-4.1223,-4.1358,-4.181,0.0,0.0,0.0,0.0,0.0,0.0,0.0,0.0,0.0,0.0,-2.2632,-2.2975,0.0,0.0,0.0,0.0,0.0,0.0,0.0,0.0,0.0,0.0,0.0,0.0,0.0,-2.4963,-2.5176,-2.6001,0.0,-2.618,-2.6978,-2.7257,-2.755,-2.7777,-2.8805,-2.9449,0.0,0.0,0.0,0.0,0.0,0.0,0.0,0.0,0.0,0.0,0.0,0.0,0.0,0.0,-4.0392,-4.0426,-4.2286,-4.3403,-4.4164,-4.4908,-4.4874,-4.4722,-4.5449,-4.5382,-4.5196,-4.5551,-4.5077,-4.4519,-4.4519,-4.3352,-4.2168,-4.1796,-4.1136,-4.0409,-3.9681,-3.9546,-3.9783,-4.0544,-4.0324,-4.0967,-4.3606,-4.3656,-4.4113,-4.6007,-4.6227,-4.6532,-4.731,-4.7005,-4.7107,-4.7885,-4.6549,-4.6024,-4.6752,-4.6109,-4.5382,-4.4604,-4.4959,-4.4976,-4.4587,-4.4906,-4.5178,-4.5494,-4.5783,-4.6112,-4.6383,-4.6046,-4.5673,-4.5152,-4.4515,-4.3791,-4.3034,-4.2701,-4.2396,-4.2037,-4.1744,-4.1552,-4.1449,-4.1177,-4.1016,-4.0908,0.0,0.0,0.0,0.0,0.0,0.0,0.0,-2.231,-2.231,-2.231,-2.2924,-2.3401,-2.3463,-2.4656,0.0,0.0,0.0,0.0,0.0,0.0,0.0,0.0,0.0,0.0,0.0,0.0,0.0,-2.5149,-2.5106,0.0,0.0,0.0,0.0,0.0,-2.7333,-2.7917,-2.7994,-2.9042,0.0,0.0,0.0,-3.2143,0.0,0.0,0.0,0.0,0.0,0.0,0.0,0.0,-3.9868,-4.0189,-4.2117,-4.3453,-4.4401,-4.4722,-4.4705,-4.4587,-4.4587,-4.4451,-4.4282,-4.413,-4.3504,-4.2946,-4.2946,-4.1914,-4.0967,-4.0967,-4.0493,-4.002,-3.9868,-3.9377,-3.9377,-4.0544,-3.9749,-4.0037,-4.2997,-4.342,-4.4045,-4.5737,-4.594,-4.6397,-4.7564,-4.6633,-4.6667,-4.8409,-4.6921,-4.6058,-4.6295,-4.6312,-4.5788,-4.4621,-4.5162,-4.5179,-4.4587,-4.4587,-4.4869,-4.532,-4.532,-4.5563,-4.6014,-4.5494,-4.5216,-4.5005,-4.4092,-4.3384,-4.2961,-4.2481,-4.21,-4.1813,-4.1813,-4.1457,-4.0967,-4.0967,-4.0595,-4.007,0.0,0.0,0.0,0.0,0.0,0.0,0.0,-2.231,-2.231,-2.231,-2.2895,-2.3513,-2.4058,-2.4828,0.0,0.0,0.0,0.0,0.0,0.0,0.0,0.0,0.0,0.0,0.0,0.0,0.0,-2.441,-2.42,0.0,0.0,0.0,0.0,0.0,0.0,-2.626,-2.6352,-2.702,0.0,0.0,0.0,0.0,0.0,0.0,0.0,0.0,0.0,-3.727,-3.7814,-3.8654,-3.8991,-3.9242,-4.0138,-4.1847,-4.3809,-4.5196,-4.5111,-4.4587,-4.4587,-4.4062,-4.3352,-4.2675,-4.1948,-4.1407,-4.1407,-4.0781,-4.0172,-4.0172,-4.0121,-3.9884,-3.9208,-3.9039,-3.9039,-3.9174,-3.9089,-4.0037,-4.2997,-4.342,-4.4231,-4.643,-4.6684,-4.6752,-4.6887,-4.6769,-4.6769,-4.6989,-4.6802,-4.6126,-4.4857,-4.4773,-4.4722,-4.4587,-4.4654,-4.4654,-4.4587,-4.4587,-4.4626,-4.4665,-4.4665,-4.472,-4.4759,-4.472,-4.4686,-4.4674,-4.4524,-4.3694,-4.2392,-4.2339,-4.1491,-4.0273,-4.0273,-4.024,-4.0172,-4.0172,-4.0138,-4.007,0.0,0.0,0.0,0.0,0.0,0.0,0.0,-2.2118,-2.2118,-2.2118,-2.2698,-2.336,-2.3998,-2.4596,-2.5254,0.0,0.0,0.0,0.0,0.0,0.0,0.0,0.0,0.0,0.0,0.0,-2.4426,-2.4162,-2.4463,0.0,0.0,0.0,0.0,0.0,0.0,-2.5999,-2.581,-2.6826,0.0,0.0,0.0,0.0,0.0,0.0,0.0,0.0,0.0,0.0,-3.6374,-3.7208,-3.7557,-3.7787,-3.8548,-3.9394,-4.0476,-4.2422,-4.3098,-4.3301,-4.3758,-4.3656,-4.3234,-4.2472,-4.1407,-4.0544,-4.0527,-3.9952,-3.9546,-3.9986,-4.007,-3.9986,-3.9698,-3.9292,-3.914,-3.958,-3.8903,-3.9208,-4.1728,-4.1694,-4.2236,-4.4502,-4.4756,-4.5297,-4.6667,-4.5991,-4.5466,-4.5466,-4.5889,-4.5686,-4.4637,-4.501,-4.5043,-4.4587,-4.4587,-4.4587,-4.4587,-4.4587,-4.4587,-4.4587,-4.4587,-4.4587,-4.4587,-4.4587,-4.4587,-4.4553,-4.4079,-4.3538,-4.2929,-4.2472,-4.1948,-4.1407,-4.1407,-4.1136,-4.0747,-4.0747,-4.046,-4.007,0.0,0.0,0.0,0.0,0.0,0.0,-2.1928,-2.1911,-2.1911,-2.1911,-2.2305,-2.2892,-2.3753,-2.4056,-2.458,-2.5577,0.0,0.0,0.0,0.0,0.0,0.0,0.0,0.0,0.0,0.0,-2.4549,-2.4219,-2.4609,-2.4787,0.0,0.0,-2.5561,-2.5391,0.0,0.0,0.0,0.0,0.0,0.0,0.0,0.0,0.0,0.0,0.0,0.0,0.0,0.0,0.0,0.0,0.0,-3.6535,-3.706,0.0,0.0,-3.9901,-4.1068,-4.1762,-4.2303,-4.2591,-4.2574,-4.1813,-4.0696,-3.9834,-4.0037,-3.9512,-3.9191,-3.9935,-4.007,-4.007,-4.007,-3.9665,-3.9478,0.0,0.0,-3.9174,-4.095,-4.0933,-4.1407,-4.32,-4.342,-4.4215,-4.6261,-4.572,-4.506,-4.4604,-4.528,-4.5382,-4.4621,-4.5077,-4.5128,-4.4604,-4.4587,-4.4587,-4.4587,-4.4587,-4.4587,-4.4587,-4.4587,-4.4468,-4.4248,-4.4468,-4.4333,-4.3876,-4.3555,-4.3166,-4.2726,-4.2185,-4.1847,-4.1644,-4.1644,-4.1322,-4.0865,-4.0865,-4.0544,-4.007,0.0,0.0,0.0,0.0,0.0,0.0,0.0,-2.1708,-2.1708,-2.1708,-2.165,-2.2098,-2.3387,-2.3202,-2.356,-2.498,0.0,0.0,0.0,0.0,0.0,0.0,0.0,0.0,0.0,0.0,-2.4846,-2.4498,-2.4359,-2.446,-2.4777,-2.4792,-2.5213,-2.5986,0.0,0.0,0.0,0.0,0.0,0.0,0.0,0.0,0.0,0.0,0.0,0.0,0.0,0.0,0.0,0.0,0.0,0.0,0.0,0.0,0.0,0.0,-3.9563,-4.0138,-4.0155,-4.0679,-4.1052,-4.029,-3.9546,-3.9191,-3.9918,-3.9512,-3.9191,-3.9935,-4.007,-4.007,-4.007,-4.007,-4.007,-4.007,-4.007,-4.0324,-4.1085,-4.1813,-4.2557,-4.3318,-4.342,-4.4028,-4.5568,-4.6363,-4.616,-4.4688,-4.528,-4.5382,-4.4621,-4.4587,-4.4587,-4.4587,-4.4587,-4.4587,-4.4587,-4.4587,-4.4587,-4.4587,-4.4587,-4.4181,-4.3453,-4.4231,-4.3758,-4.2354,-4.3098,-4.2591,-4.1221,-4.1221,-4.0781,-4.0104,-4.0104,-4.0104,-4.0087,-4.0087,-4.0087,-4.007,0.0,0.0,0.0,0.0,0.0,0.0,0.0,-2.1214,-2.1214,-2.1214,-2.115,-2.16,-2.2888,-2.2885,-2.3305,-2.4625,0.0,0.0,0.0,0.0,0.0,0.0,0.0,0.0,0.0,0.0,0.0,-2.4498,-2.4921,-2.5075,-2.5028,-2.5864,-2.6213,-2.6138,-2.6305,-2.6489,0.0,0.0,0.0,0.0,0.0,0.0,-3.1585,0.0,0.0,0.0,0.0,0.0,0.0,0.0,0.0,0.0,0.0,0.0,0.0,0.0,0.0,-3.8717,-3.9208,-3.9512,-3.9631,-3.9394,-3.8396,-3.7669,-3.843,-3.8413,-3.8464,-3.9191,-3.9732,-4.007,-4.007,-4.007,-4.007,-4.007,-4.007,-4.0155,-4.0409,-4.1068,-4.183,-4.2557,-4.4028,-4.4976,-4.4942,-4.5618,-4.5635,-4.4654,-4.4807,-4.484,-4.4587,-4.4587,-4.4587,-4.4587,-4.4587,-4.4587,-4.4587,-4.4587,-4.4587,-4.4587,-4.4587,-4.4451,-4.4198,-4.391,-4.3521,-4.3014,-4.2236,-4.1644,-4.117,-4.0646,-4.029,-4.007,-4.007,-4.007,-4.007,-4.007,-4.007,-4.007,0.0,0.0,0.0,0.0,0.0,0.0,0.0,-2.078,-2.078,-2.078,-2.073,-2.1198,-2.2441,-2.2502,-2.3002,-2.4302,0.0,0.0,0.0,0.0,0.0,0.0,0.0,0.0,0.0,0.0,-2.4701,-2.462,-2.5082,-2.5284,-2.5318,-2.6045,-2.6459,-2.6597,-2.6687,-2.6995,0.0,0.0,0.0,0.0,0.0,0.0,-3.1307,0.0,0.0,0.0,0.0,0.0,0.0,0.0,0.0,0.0,0.0,0.0,0.0,0.0,-3.5098,-3.6502,-3.7804,-3.8362,-3.8582,-3.8582,-3.7669,-3.6975,-3.7736,-3.7686,-3.7686,-3.843,-3.9157,-3.9665,-3.9665,-3.9884,-4.007,-4.007,-4.007,-4.007,-4.007,-4.073,-4.1474,-4.2202,-4.4062,-4.4976,-4.4215,-4.484,-4.5077,-4.4604,-4.4587,-4.4587,-4.4587,-4.4587,-4.4587,-4.4587,-4.4587,-4.4587,-4.4587,-4.4587,-4.4587,-4.4587,-4.4587,-4.4418,-4.413,-4.3639,-4.3115,-4.254,-4.161,-4.1035,0.0,-4.0273,-4.007,-4.007,-4.007,-4.007,-4.007,-4.007,-4.007,-4.007,0.0,0.0,0.0,0.0,0.0,0.0,0.0,0.0,0.0,0.0,-2.0376,-2.0802,-2.1971,-2.211,-2.2598,0.0,0.0,0.0,0.0,0.0,0.0,0.0,0.0,0.0,0.0,-2.377,-2.463,-2.4782,-2.4879,-2.5114,-2.5539,-2.547,-2.6053,-2.7118,-2.652,-2.7211,0.0,0.0,0.0,0.0,0.0,0.0,0.0,0.0,0.0,0.0,0.0,0.0,0.0,0.0,0.0,0.0,0.0,0.0,0.0,0.0,0.0,0.0,0.0,-3.7094,-3.7669,-3.7669,-3.7178,-3.6874,-3.7584,-3.7246,0.0,-3.7686,-3.8413,-3.892,-3.892,-3.9512,-4.0003,-4.0003,-4.0054,-4.007,-4.007,-4.0781,-4.1525,-4.2219,-4.3639,-4.4248,-4.342,-4.4096,-4.4553,-4.4502,-4.4553,-4.4553,-4.4502,-4.4553,-4.4587,-4.4587,-4.4587,-4.4587,-4.4587,-4.4587,-4.4587,-4.4587,-4.4587,-4.4181,-4.342,-4.3369,-4.2557,-4.1204,-4.1136,-4.073,-4.007,-4.007,-4.007,-4.007,-4.007,-4.007,-4.007,-4.007,-4.007,-4.007,0.0,0.0,0.0,0.0,0.0,0.0,0.0,0.0,0.0,0.0,0.0,-2.0365,-2.1076,-2.166,0.0,0.0,0.0,0.0,0.0,0.0,0.0,0.0,0.0,0.0,0.0,-2.3529,-2.4441,-2.458,-2.4273,-2.4445,-2.4977,-2.4869,-2.5137,-2.5826,-2.6597,0.0,0.0,0.0,0.0,0.0,0.0,0.0,0.0,0.0,0.0,0.0,-3.01,-2.9987,0.0,0.0,0.0,0.0,0.0,0.0,0.0,0.0,-3.2949,-3.3525,-3.4049,0.0,-3.5301,-3.5301,-3.5588,-3.5943,0.0,0.0,-3.6823,-3.7009,0.0,-3.8159,-3.8159,-3.8751,-3.9242,-3.9242,-3.9715,-4.007,-4.007,-4.1204,-4.21,-4.2269,-4.3639,-4.4045,-4.2692,-4.3792,-4.4333,-4.3741,-4.4248,-4.4316,-4.3724,-4.4265,-4.4587,-4.4587,-4.4587,-4.4587,-4.4587,-4.4587,-4.4587,-4.4587,-4.4587,-4.4181,-4.3403,-4.2828,-4.2066,-4.117,-4.0595,-4.024,-4.007,-4.007,-4.007,-4.007,-4.007,-4.007,-4.007,-4.007,-4.007,-4.007,0.0,0.0,0.0,0.0,0.0,0.0,0.0,0.0,0.0,0.0,0.0,0.0,0.0,0.0,0.0,0.0,0.0,0.0,0.0,0.0,0.0,0.0,0.0,0.0,0.0,-2.3077,-2.3969,-2.4498,-2.4077,-2.4052,-2.4375,-2.3983,-2.424,-2.5045,-2.6656,0.0,0.0,0.0,0.0,0.0,-2.9957,0.0,0.0,0.0,0.0,0.0,-2.942,-2.9017,0.0,-2.8467,-2.9021,-2.9772,0.0,0.0,0.0,0.0,-3.207,-3.2391,-3.2391,-3.3169,-3.3998,-3.3998,-3.4303,-3.4692,-3.503,0.0,0.0,0.0,0.0,0.0,-3.7398,-3.799,-3.8616,-3.8937,-3.9326,-3.9817,-4.0493,-4.1288,-4.2049,-4.2726,-4.3538,-4.3859,-4.3386,-4.4096,-4.4401,-4.3978,-4.4012,-4.4012,-4.3944,-4.4012,-4.4215,-4.457,-4.4587,-4.4587,-4.4587,-4.4587,-4.4587,-4.4587,-4.4215,-4.3826,-4.3386,-4.2286,-4.1576,-4.117,-4.0409,-4.007,-4.007,-4.007,-4.007,-4.007,-4.007,-4.007,-4.007,-4.007,-4.007,-4.007,0.0,0.0,0.0,0.0,0.0,0.0,0.0,0.0,0.0,0.0,0.0,0.0,0.0,0.0,0.0,0.0,0.0,0.0,0.0,0.0,0.0,0.0,0.0,0.0,-2.1633,-2.24,-2.3224,-2.4107,-2.3663,-2.3519,-2.3711,-2.3017,-2.3425,-2.4838,-2.6619,0.0,0.0,0.0,-2.947,-2.981,-3.0189,0.0,0.0,0.0,0.0,0.0,0.0,0.0,0.0,-2.7982,-2.807,-2.8345,-2.9214,0.0,0.0,0.0,0.0,0.0,-3.1157,-3.2104,-3.3102,-3.3203,-3.3322,-3.3558,-3.4184,0.0,0.0,0.0,0.0,0.0,-3.6586,-3.7313,-3.8108,-3.8717,-3.9106,-3.9851,-4.1339,-4.1542,-4.1965,-4.3115,-4.3453,-4.3758,-4.4198,-4.4434,-4.4485,-4.4248,-4.3724,-4.3606,-4.4045,-4.3656,-4.3724,-4.4384,-4.4519,-4.4587,-4.4587,-4.4587,-4.4587,-4.457,-4.3792,-4.3352,-4.32,-4.183,-4.1136,-4.1001,-4.0358,-4.007,-4.007,-4.007,-4.007,-4.007,-4.007,-4.007,-4.007,-4.007,-4.007,-4.007,0.0,0.0,0.0,0.0,0.0,0.0,0.0,0.0,0.0,0.0,0.0,0.0,0.0,0.0,0.0,0.0,0.0,0.0,0.0,0.0,0.0,0.0,0.0,-2.144,-2.0872,-2.1603,-2.2112,-2.2376,-2.1976,-2.2129,-2.2801,-2.2149,-2.3123,-2.5397,-2.6264,-2.7471,-2.8794,-2.9137,-2.9412,-2.9592,-2.993,0.0,0.0,0.0,0.0,0.0,0.0,0.0,0.0,-2.6438,-2.6693,-2.7278,-2.7599,0.0,0.0,0.0,0.0,0.0,-3.1021,-3.136,-3.1681,-3.229,-3.2933,-3.344,-3.3541,0.0,0.0,0.0,0.0,0.0,-3.5673,-3.6941,-3.7939,-3.8058,-3.9648,-4.139,-4.2861,-4.3081,-4.2929,-4.2523,-4.3606,-4.3927,-4.276,-4.3809,-4.4045,-4.2743,-4.3132,-4.2929,-4.1779,-4.2794,-4.347,-4.3589,-4.4231,-4.4587,-4.4587,-4.4587,-4.4587,-4.457,-4.3792,-4.3081,-4.2439,-4.1593,-4.0849,-4.024,-4.0121,-4.007,-4.007,-4.007,-4.007,-4.007,-4.007,-4.007,-4.007,-4.007,-4.007,-4.007,0.0,0.0,0.0,0.0,0.0,0.0,0.0,0.0,0.0,0.0,0.0,0.0,0.0,0.0,0.0,0.0,0.0,0.0,0.0,0.0,0.0,0.0,-2.1695,-2.1395,-2.0722,-2.103,-2.1437,-2.1901,-2.1423,-2.1424,-2.1895,-2.2103,-2.3157,-2.4967,-2.5944,-2.7226,-2.8604,-2.8842,-2.9167,-2.9531,0.0,0.0,0.0,0.0,0.0,0.0,0.0,0.0,0.0,0.0,-2.6167,-2.6512,-2.711,0.0,0.0,0.0,0.0,0.0,-3.0412,-3.0311,-3.0277,-3.141,-3.1952,-3.2205,-3.2205,-3.251,0.0,0.0,0.0,-3.4726,-3.547,-3.6535,-3.7686,-3.8886,-4.0273,-4.1593,-4.2658,-4.2811,-4.2828,-4.2895,-4.3521,-4.3842,-4.3555,-4.4164,-4.4282,-4.3589,-4.3453,-4.3301,-4.3047,-4.2895,-4.32,-4.4012,-4.3589,-4.3741,-4.457,-4.3758,-4.3555,-4.3944,-4.3166,-4.2422,-4.1677,-4.0933,-4.0409,-4.007,-4.007,-4.007,-4.007,-4.007,-4.007,-4.007,-4.007,-4.007,-4.007,-4.007,-4.007,-4.007,0.0,0.0,0.0,0.0,0.0,0.0,0.0,0.0,0.0,0.0,0.0,0.0,0.0,0.0,0.0,0.0,0.0,0.0,0.0,0.0,-2.2652,-2.1515,-2.147,-2.1156,-2.0483,-2.0483,-2.0745,-2.1317,-2.0933,-2.0914,-2.1337,-2.2185,-2.3336,-2.4694,-2.5795,-2.7103,-2.8396,-2.8605,-2.892,-2.9335,0.0,0.0,0.0,0.0,0.0,0.0,0.0,0.0,0.0,0.0,0.0,0.0,0.0,0.0,0.0,-2.8193,-2.8558,-2.8837,-2.9559,-2.934,-2.9175,-3.0137,0.0,-3.1021,-3.1376,-3.1884,-3.2747,-3.4421,-3.4759,-3.5047,-3.5977,-3.6772,-3.7956,-4.002,-4.0967,-4.1728,-4.2455,-4.2709,-4.3047,-4.3623,-4.369,-4.3927,-4.4519,-4.4587,-4.4502,-4.4316,-4.3758,-4.3538,-4.3775,-4.2844,-4.2743,-4.3758,-4.2811,-4.2861,-4.4028,-4.2878,-4.2675,-4.3403,-4.2489,-4.1745,-4.117,-4.0426,-4.007,-4.007,-4.007,-4.007,-4.007,-4.007,-4.007,-4.007,-4.007,-4.007,-4.007,-4.007,-4.007,-4.007,0.0,0.0,0.0,0.0,0.0,0.0,0.0,0.0,0.0,0.0,0.0,0.0,0.0,0.0,0.0,0.0,0.0,0.0,0.0,0.0,-2.1515,-2.0812,-2.0782,-2.0468,-1.9779,-1.975,-1.9779,-1.9861,-1.9852,-2.037,-2.1337,-2.2185,-2.3624,-2.5431,-2.6055,-2.7103,-2.8411,-2.8494,-2.8622,-2.8779,-2.9029,0.0,0.0,0.0,0.0,0.0,0.0,0.0,0.0,0.0,0.0,0.0,0.0,0.0,-2.6184,-2.7131,-2.7531,-2.7844,-2.8598,-2.8749,-2.8619,-2.8087,-2.907,-3.0548,-3.1901,-3.2239,-3.2899,-3.5098,-3.5537,-3.5994,-3.7466,-3.8345,-3.9326,-4.0865,-4.1728,-4.2472,-4.3234,-4.3961,-4.4434,-4.4485,-4.4485,-4.4519,-4.457,-4.4587,-4.4282,-4.3555,-4.3453,-4.2844,-4.1508,-4.1982,-4.2033,-4.1457,-4.1999,-4.2337,-4.2455,-4.2354,-4.2675,-4.3403,-4.1965,-4.1255,-4.117,-4.0426,-4.007,-4.007,-4.007,-4.007,-4.007,-4.007,-4.007,-4.007,-4.007,-4.007,-4.007,-4.007,-4.007,-4.007,0.0,0.0,0.0,0.0,0.0,0.0,0.0,0.0,0.0,0.0,0.0,0.0,0.0,0.0,0.0,0.0,0.0,0.0,0.0,0.0,-2.1395,-2.0737,-2.0722,-2.0393,-1.969,-1.969,-1.969,-1.969,-1.9762,-2.0252,-2.1118,-2.1925,-2.3132,-2.466,-2.5221,-2.6001,-2.6963,-2.7455,-2.7829,-2.8062,-2.8716,-2.9106,0.0,0.0,0.0,0.0,0.0,0.0,0.0,0.0,-2.5492,-2.5291,0.0,-2.5174,-2.5721,-2.576,-2.6203,-2.6878,-2.7537,-2.7569,-2.758,-2.8048,-2.8848,0.0,0.0,-3.1275,-3.2104,-3.388,-3.4979,-3.6231,-3.8227,-3.8802,-3.9478,-4.0967,-4.1441,-4.188,-4.2608,-4.298,-4.3149,-4.3149,-4.3572,-4.3859,-4.3859,-4.4299,-4.4451,-4.4164,-4.4147,-4.3673,-4.2642,-4.2405,-4.2168,-4.188,-4.1255,-4.1356,-4.2286,-4.1373,-4.1288,-4.2033,-4.1931,-4.139,-4.051,-4.0696,-4.0527,-4.007,-4.007,-4.007,-4.007,-4.007,-4.007,-4.007,-4.007,-4.007,-4.007,-4.007,-4.007,-4.007,0.0,0.0,0.0,0.0,0.0,0.0,0.0,0.0,0.0,0.0,0.0,0.0,0.0,0.0,0.0,0.0,0.0,0.0,0.0,0.0,-2.0857,-2.0408,-2.0393,-2.0168,-1.969,-1.969,-1.969,-1.969,-1.9762,-2.0195,-2.0985,-2.1736,-2.269,-2.3804,-2.4589,-2.5197,-2.5652,-2.6427,-2.6979,-2.7411,-2.8031,-2.842,0.0,0.0,0.0,0.0,0.0,0.0,0.0,0.0,-2.5102,0.0,0.0,0.0,0.0,-2.4671,-2.5092,-2.5757,-2.6389,-2.6395,-2.6481,-2.7492,0.0,0.0,-3.0218,-3.1223,-3.2391,-3.4117,-3.5656,-3.7229,-3.9005,-3.9157,-3.9411,-4.0646,-4.1052,-4.139,-4.188,-4.2151,-4.2286,-4.2286,-4.2743,-4.3149,-4.3403,-4.391,-4.4316,-4.4553,-4.435,-4.3876,-4.3098,-4.2354,-4.1847,-4.1593,-4.0612,-4.0561,-4.1576,-4.0578,-4.0341,-4.0849,-4.1593,-4.1288,-4.0104,-4.0612,-4.0561,-4.007,-4.007,-4.007,-4.007,-4.007,-4.007,-4.007,-4.007,-4.007,-4.007,-4.007,-4.007,-4.007,0.0,0.0,0.0,0.0,0.0,0.0,0.0,0.0,0.0,0.0,0.0,0.0,0.0,0.0,0.0,0.0,0.0,0.0,0.0,-1.969,-1.969,-1.969,-1.969,-1.969,-1.969,-1.969,-1.969,-1.969,-1.9762,-2.0158,-2.0903,-2.1652,-2.2343,-2.3041,-2.4247,-2.4776,-2.4791,-2.5515,-2.6148,-2.6766,-2.6909,-2.7162,-2.7303,0.0,0.0,0.0,0.0,0.0,0.0,0.0,-2.4328,-2.3608,0.0,0.0,0.0,-2.4015,-2.4349,-2.4531,-2.5223,-2.5301,-2.5368,-2.6014,0.0,0.0,-3.0747,-3.2419,-3.4032,-3.6315,-3.7956,-3.9208,-3.9935,-3.9478,-3.9242,-3.9969,-4.0696,-4.1187,-4.1187,-4.1813,-4.2269,-4.2269,-4.2286,-4.2574,-4.3318,-4.3403,-4.3741,-4.4502,-4.3859,-4.3098,-4.2337,-4.1593,-4.0849,-4.0104,-4.007,-4.007,-4.007,-4.007,-4.007,-4.0087,-4.0832,-4.0798,-4.007,-4.0087,-4.0087,-4.007,-4.007,-4.007,-4.007,-4.007,-4.007,-4.007,-4.007,-4.007,-4.007,-4.007,-4.007,-4.007,0.0,0.0,0.0,0.0,0.0,0.0,0.0,0.0,0.0,0.0,0.0,0.0,0.0,0.0,0.0,0.0,0.0,0.0,0.0,-1.969,-1.969,-1.969,-1.969,-1.969,-1.969,-1.969,-1.969,-1.969,-1.9726,-2.007,-2.076,-2.0978,-2.1428,-2.2074,-2.248,-2.2604,-2.272,-2.3902,-2.4505,-2.4761,-2.5849,-2.6321,-2.6398,0.0,0.0,0.0,0.0,0.0,0.0,0.0,0.0,0.0,0.0,0.0,0.0,-2.3222,-2.3565,-2.4087,-2.4682,-2.5316,-2.5843,-2.5869,-2.7274,-2.9032,-3.0323,-3.1282,-3.278,-3.6096,-3.755,-3.8616,-3.9851,-3.9901,-3.9834,-4.0037,-4.0257,-4.0409,-4.0409,-4.0595,-4.073,-4.073,-4.1204,-4.161,-4.1847,-4.2811,-4.3521,-4.3741,-4.3538,-4.3098,-4.2337,-4.1593,-4.0849,-4.0104,-4.007,-4.007,-4.007,-4.007,-4.007,-4.007,-4.0307,-4.029,-4.0104,-4.0629,-4.0578,-4.007,-4.007,-4.007,-4.007,-4.007,-4.007,-4.007,-4.007,-4.007,-4.007,-4.007,-4.007,-4.007,0.0,0.0,0.0,0.0,0.0,0.0,0.0,0.0,0.0,0.0,0.0,0.0,0.0,0.0,0.0,0.0,0.0,0.0,0.0,0.0,-1.969,-1.969,-1.969,-1.969,-1.969,-1.969,-1.969,-1.969,-1.969,-1.9899,-2.0318,-2.0587,-2.0782,-2.0917,-2.1455,-2.1545,-2.138,-2.2495,-2.3272,-2.3814,-2.4715,-2.5243,-2.55,0.0,0.0,0.0,0.0,0.0,0.0,0.0,0.0,0.0,0.0,0.0,0.0,-2.2452,-2.2776,-2.3305,-2.4163,-2.5001,-2.5695,-2.5718,-2.7406,-2.9355,-3.0461,-3.1842,-3.3761,-3.6637,-3.7584,-3.8345,-3.9817,-3.9834,-3.9732,-4.002,-4.007,-4.007,-4.007,-4.007,-4.007,-4.007,-4.0476,-4.0882,-4.117,-4.2016,-4.2658,-4.2946,-4.2692,-4.2337,-4.188,-4.1153,-4.0544,-4.0087,-4.007,-4.007,-4.007,-4.007,-4.007,-4.007,-4.007,-4.007,-4.0104,-4.0544,-4.051,-4.007,-4.007,-4.007,-4.007,-4.007,-4.007,-4.007,-4.007,-4.007,-4.007,-4.007,-4.007,-4.007,0.0,0.0,0.0,0.0,0.0,0.0,0.0,0.0,0.0,0.0,0.0,0.0,0.0,0.0,0.0,0.0,0.0,0.0,0.0,0.0,-1.969,-1.969,-1.969,-1.969,-1.969,-1.969,-1.969,-1.969,-1.969,-1.969,-1.969,-2.0318,-2.0288,-1.9735,-2.0961,-2.1186,-2.0662,-2.1321,-2.2278,-2.334,-2.34,-2.3848,-2.4506,-2.4667,0.0,0.0,0.0,0.0,0.0,0.0,0.0,0.0,-2.2149,-2.1583,-2.1296,-2.1988,-2.2156,-2.2446,-2.3727,-2.4541,-2.5167,-2.5665,-2.725,-2.914,-3.0849,-3.3345,-3.5727,-3.7191,-3.7595,-3.8166,-3.9615,-3.9378,-3.9175,-3.9952,-4.007,-4.007,-4.007,-4.007,-4.007,-4.007,-4.007,-4.0341,-4.1035,-4.117,-4.1474,-4.2151,-4.1576,-4.1204,-4.1204,-4.0493,-4.007,-4.007,-4.007,-4.007,-4.007,-4.007,-4.007,-4.007,-4.007,-4.007,-4.007,-4.007,-4.007,-4.007,-4.007,-4.007,-4.007,-4.007,-4.007,-4.007,-4.007,-4.007,-4.007,-4.007,-4.007,-4.007,0.0,0.0,0.0,0.0,0.0,0.0,0.0,0.0,0.0,0.0,0.0,0.0,0.0,0.0,0.0,0.0,0.0,0.0,0.0,0.0,-1.969,-1.969,-1.969,-1.969,-1.969,-1.969,-1.969,-1.969,-1.969,-1.969,-1.969,0.0,0.0,-1.969,0.0,-2.0034,-1.9944,-2.0632,-2.1081,-2.138,-2.1904,-2.2188,-2.2379,-2.247,-2.2778,0.0,0.0,0.0,0.0,0.0,0.0,0.0,-2.2802,-2.2501,-2.245,-2.2722,-2.2712,-2.2838,-2.3655,-2.4671,-2.5482,-2.5616,-2.7517,-2.9612,-3.0459,-3.2028,-3.3502,-3.4329,-3.5451,-3.6718,-3.8179,-3.8332,-3.862,-3.9902,-4.007,-4.007,-4.007,-4.007,-4.007,-4.007,-4.007,-4.0138,-4.0307,-4.0849,-4.1271,-4.1424,-4.1288,-4.1204,-4.1204,-4.0493,-4.007,-4.007,-4.007,-4.007,-4.007,-4.007,-4.007,-4.007,-4.007,-4.007,-4.007,-4.007,-4.007,-4.007,-4.007,-4.007,-4.007,-4.007,-4.007,-4.007,-4.007,-4.007,-4.007,-4.007,-4.007,-4.007,0.0,0.0,0.0,0.0,0.0,0.0,0.0,0.0,0.0,0.0,0.0,0.0,0.0,0.0,0.0,0.0,0.0,0.0,0.0,0.0,0.0,0.0,-1.969,-1.969,-1.969,-1.969,-1.969,-1.969,-1.969,0.0,0.0,0.0,0.0,-1.969,0.0,-1.969,-1.9705,-2.0064,-2.0423,-2.0737,-2.1081,-2.141,-2.1695,-2.1759,-2.1994,-2.2335,-2.2415,0.0,0.0,0.0,0.0,0.0,0.0,0.0,-2.2776,-2.2832,-2.2832,-2.287,-2.3516,-2.4402,-2.5332,-2.6259,-2.7573,-2.887,-2.9799,-3.061,-3.1358,-3.1958,-3.3783,-3.5727,-3.7159,-3.7446,-3.7917,-3.9328,-3.9276,-3.9276,-3.9986,-3.9783,-3.9681,-4.0037,-4.007,-4.007,-4.007,-4.0443,-4.0663,-4.0663,-4.0663,-4.0663,-4.0663,-4.029,-4.007,-4.007,-4.007,-4.007,-4.007,-4.007,-4.007,-4.007,-4.007,-4.007,-4.007,-4.007,-4.007,-4.007,-4.007,-4.007,-4.007,-4.007,-4.007,-4.007,-4.007,-4.007,-4.007,-4.007,-4.007,-4.007,0.0,0.0,0.0,0.0,0.0,0.0,0.0,0.0,0.0,0.0,0.0,0.0,0.0,0.0,0.0,0.0,0.0,0.0,0.0,0.0,0.0,0.0,-1.969,-1.969,-1.969,-1.969,-1.969,-1.969,0.0,0.0,0.0,0.0,0.0,-1.969,0.0,-1.969,-1.969,-1.969,-2.0019,-2.0543,-2.0543,-2.0857,-2.135,-2.135,-2.1449,-2.1618,-2.1618,-2.1771,-2.2046,-2.2455,0.0,0.0,0.0,0.0,-2.2532,-2.2679,-2.2724,-2.2817,-2.343,-2.4103,-2.5017,-2.6903,-2.74,-2.771,-2.8912,-2.931,-2.9564,-3.0073,-3.2315,-3.4564,-3.5994,-3.6331,-3.6918,-3.8387,-3.8246,-3.8379,-3.9698,-3.9377,-3.9259,-3.9986,-4.007,-4.007,-4.007,-4.007,-4.007,-4.007,-4.007,-4.007,-4.007,-4.007,-4.007,-4.007,-4.007,-4.007,-4.007,-4.007,-4.007,-4.007,-4.007,-4.007,-4.007,-4.007,-4.007,-4.007,-4.007,-4.007,-4.007,-4.007,-4.007,-4.007,-4.007,-4.007,-4.007,-4.007,-4.007,-4.007,0.0,0.0,0.0,0.0,0.0,0.0,0.0,0.0,0.0,0.0,0.0,0.0,0.0,0.0,0.0,0.0,0.0,0.0,-1.969,0.0,0.0,-1.969,-1.969,-1.969,-1.969,-1.969,-1.969,-1.969,0.0,0.0,0.0,0.0,0.0,-1.969,0.0,-1.969,-1.969,-1.969,-1.9735,-1.9824,-1.9824,-1.9869,-1.9959,-1.9959,-2.0318,-2.0842,-2.0842,-2.124,-2.1749,-2.1824,-2.1869,0.0,0.0,0.0,-2.1934,-2.2544,-2.2724,-2.2817,-2.343,-2.4103,-2.4941,-2.6354,-2.6744,-2.6935,-2.7695,-2.8284,-2.8757,-2.8846,-3.0508,-3.2383,-3.3841,-3.4568,-3.5428,-3.6868,-3.755,-3.8193,-3.9022,-3.9056,-3.9259,-3.9986,-4.007,-4.007,-4.007,-4.007,-4.007,-4.007,-4.007,-4.007,-4.007,-4.007,-4.007,-4.007,-4.007,-4.007,-4.007,-4.007,-4.007,-4.007,-4.007,-4.007,-4.007,-4.007,-4.007,-4.007,-4.007,-4.007,-4.007,-4.007,-4.007,-4.007,-4.007,-4.007,-4.007,-4.007,-4.007,-4.007,0.0,0.0,0.0,0.0,0.0,0.0,0.0,0.0,0.0,0.0,0.0,0.0,0.0,0.0,0.0,-1.969,-1.969,-1.969,-1.969,-1.969,-1.969,-1.969,-1.969,-1.969,-1.969,-1.969,-1.969,0.0,0.0,0.0,0.0,-1.969,-1.969,0.0,0.0,0.0,0.0,-1.969,-1.969,-1.969,-1.969,-1.969,-1.969,-1.969,-1.9869,-2.0139,-2.0139,-2.0333,-2.0632,-2.1021,-2.1141,-2.1216,-2.1575,0.0,0.0,0.0,-2.2424,-2.2817,-2.343,-2.4103,-2.4716,-2.5345,-2.6048,-2.6662,-2.6961,-2.7844,-2.8607,-2.8607,-2.9579,-3.0835,-3.2284,-3.3083,-3.3985,-3.5396,-3.5576,-3.5859,-3.7044,-3.7169,-3.7286,-3.7623,-3.8033,-3.8251,-3.8266,-3.79,-3.7998,-3.8767,-3.8438,-3.8262,-3.8262,-3.8262,-3.8239,-3.8271,-3.8254,-3.864,-3.9462,-3.9056,-3.9056,-3.9462,-3.9462,-3.9681,-4.007,-4.007,-4.007,-4.007,-4.007,-4.007,-4.007,-4.007,-4.007,-4.007,-4.007,-4.007,-4.007,-4.007,-4.007,-4.007,0.0,0.0,0.0,0.0,0.0,0.0,0.0,0.0,0.0,0.0,0.0,0.0,0.0,0.0,0.0,0.0,-1.969,-1.969,-1.969,-1.969,-1.969,-1.969,-1.969,-1.969,-1.969,-1.969,0.0,0.0,0.0,0.0,-1.969,-1.969,-1.969,0.0,-1.969,-1.969,0.0,-1.969,-1.969,-1.969,-1.969,-1.969,-1.969,-1.969,-1.969,-1.969,-1.969,-1.969,-1.9765,-2.0288,-2.0453,-2.0543,-2.1021,-2.1186,0.0,0.0,0.0,-2.2787,-2.3236,-2.3849,-2.4418,-2.4537,-2.536,-2.6183,-2.6512,-2.7365,-2.8143,-2.8308,-2.8861,-2.9636,-3.0661,-3.1504,-3.2444,-3.3514,-3.3355,-3.3585,-3.5048,-3.5207,-3.531,-3.5728,-3.6251,-3.6568,-3.658,-3.6091,-3.622,-3.7254,-3.6822,-3.6573,-3.6573,-3.6573,-3.6535,-3.6544,-3.6734,-3.7235,-3.8187,-3.7803,-3.7803,-3.8204,-3.8538,-3.8888,-3.9274,-3.963,-3.9679,-3.9558,-3.9901,-4.007,-4.007,-4.007,-4.007,-4.007,-4.007,-4.007,-4.007,-4.007,-4.007,-4.007,0.0,0.0,0.0,0.0,0.0,0.0,0.0,0.0,0.0,0.0,0.0,0.0,0.0,-1.969,-1.969,-1.969,-1.969,-1.969,-1.969,-1.969,-1.969,-1.969,-1.969,0.0,-1.969,-1.969,-1.969,0.0,0.0,0.0,-1.969,-1.969,-1.969,-1.969,-1.969,-1.969,-1.969,-1.969,-1.969,-1.969,-1.969,-1.969,-1.969,-1.969,-1.969,-1.969,-1.969,-1.969,-1.9726,-1.9735,-1.9735,-1.975,-1.9779,-1.9794,-1.9914,0.0,0.0,0.0,-2.2753,-2.3176,-2.3804,-2.4418,-2.4627,-2.5061,-2.6303,-2.6647,-2.6871,-2.755,-2.8173,-2.8667,-2.8734,-2.9791,-3.0736,-3.0818,-3.1322,-3.2192,-3.3623,-3.3799,-3.4282,-3.5626,-3.5841,-3.5841,-3.5835,-3.5803,-3.5819,-3.5883,-3.5867,-3.5835,-3.5835,-3.5835,-3.5873,-3.5841,-3.6476,-3.6544,-3.5943,-3.6571,-3.6571,-3.5959,-3.7287,-3.752,-3.7021,-3.8363,-3.858,-3.7978,-3.9454,-4.007,-4.007,-4.007,-4.007,-4.007,-4.007,-4.007,-4.007,-4.007,-4.007,-4.007,0.0,0.0,0.0,0.0,0.0,0.0,0.0,0.0,0.0,0.0,0.0,0.0,0.0,-1.8433,-1.8597,-1.9016,-1.9435,-1.969,-1.969,-1.969,-1.969,-1.969,-1.969,-1.969,-1.969,-1.969,-1.969,0.0,0.0,-1.969,-1.969,-1.969,-1.969,-1.969,-1.969,-1.969,-1.969,-1.969,-1.969,-1.969,-1.969,-1.969,-1.969,-1.969,-1.969,-1.969,-1.969,-1.969,-1.969,-1.969,-1.969,-1.969,-1.969,-1.969,-1.9824,-2.0513,-2.1051,-2.1605,-2.2484,-2.2847,-2.3161,-2.3804,-2.4298,-2.4701,-2.5226,-2.5659,-2.6153,-2.6811,-2.7141,-2.744,-2.7859,-2.9063,-2.9963,-2.9963,-3.0158,-3.0468,-3.0997,-3.1446,-3.1878,-3.2345,-3.2444,-3.2801,-3.3598,-3.2921,-3.2952,-3.4217,-3.391,-3.3664,-3.3664,-3.3664,-3.3692,-3.374,-3.3979,-3.4192,-3.4386,-3.5091,-3.5316,-3.5075,-3.5588,-3.6181,-3.6846,-3.7309,-3.7641,-3.7806,-3.8374,-3.8596,-3.8668,-3.9139,-3.9315,-3.9368,-3.9901,-4.007,-4.007,-4.007,-4.007,-4.007,0.0,0.0,0.0,0.0,0.0,0.0,0.0,0.0,0.0,0.0,0.0,0.0,0.0,0.0,-1.7951,-1.8642,-1.9301,-1.969,-1.969,-1.969,-1.969,-1.969,-1.969,-1.969,-1.969,-1.969,-1.969,0.0,0.0,0.0,0.0,-1.969,-1.969,-1.969,-1.969,-1.969,-1.969,-1.969,-1.969,-1.969,-1.969,-1.969,-1.969,-1.969,-1.969,-1.969,-1.969,-1.969,-1.969,-1.969,-1.969,-1.969,-1.969,-1.969,-1.9779,-2.0228,-2.0528,-2.0902,-2.1784,-2.2338,-2.2787,-2.3191,-2.3789,-2.4343,-2.4522,-2.4925,-2.5465,-2.6123,-2.6258,-2.6467,-2.7126,-2.7979,-2.8652,-2.8876,-2.8906,-2.8996,-2.922,-2.9629,-2.9999,-3.0173,-3.0403,-3.0799,-3.1477,-3.0911,-3.0971,-3.2093,-3.1779,-3.1614,-3.1824,-3.1839,-3.2065,-3.2602,-3.2382,-3.2571,-3.3235,-3.3716,-3.3842,-3.3623,-3.4077,-3.4657,-3.5373,-3.6058,-3.649,-3.6726,-3.7184,-3.7573,-3.7806,-3.8302,-3.8525,-3.858,-3.9102,-3.9332,-3.9332,-3.9332,-3.9332,-3.9332,0.0,0.0,0.0,0.0,0.0,0.0,0.0,0.0,0.0,0.0,0.0,0.0,0.0,0.0,0.0,-1.8642,-1.9301,-1.969,-1.969,-1.969,-1.969,-1.969,-1.969,-1.969,-1.969,-1.969,-1.969,0.0,0.0,0.0,0.0,0.0,-1.969,-1.969,-1.969,-1.969,-1.969,-1.969,-1.969,-1.969,-1.969,-1.969,-1.969,-1.969,-1.969,-1.969,-1.969,-1.969,-1.969,-1.969,-1.969,-1.969,-1.969,-1.969,-1.969,-1.969,-2.0154,-2.0692,0.0,0.0,0.0,-2.2724,-2.3131,-2.3774,-2.4403,-2.4567,-2.4761,-2.545,-2.56,-2.5809,-2.6437,-2.6557,-2.6782,-2.749,-2.761,-2.785,-2.8472,-2.8562,-2.8816,-2.9475,-3.0058,-3.0193,-2.9639,-3.0103,-3.0208,-2.9624,-2.9579,-2.9849,-3.0447,-3.0477,-3.1097,-3.2485,-3.1807,-3.1823,-3.2532,-3.2488,-3.2168,-3.1497,-3.2826,-3.311,-3.2557,-3.4603,-3.5156,-3.455,-3.5922,-3.6977,-3.7732,-3.7748,-3.7748,-3.7764,-3.7806,-3.7822,-3.7822,-3.7822,-3.7822,-3.7921,0.0,0.0,0.0,0.0,0.0,0.0,0.0,0.0,0.0,0.0,0.0,0.0,0.0,0.0,-1.8508,-1.8687,-1.9301,-1.969,-1.969,-1.969,-1.969,-1.969,-1.969,-1.969,-1.969,-1.969,-1.969,-1.969,0.0,0.0,0.0,0.0,0.0,0.0,-1.969,-1.969,-1.969,-1.969,-1.969,-1.969,-1.969,-1.969,-1.969,-1.969,-1.969,-1.969,-1.969,-1.969,-1.969,-1.969,-1.969,-1.969,-1.969,-1.969,-1.969,-1.969,-1.9824,-2.0079,-2.0572,0.0,0.0,0.0,0.0,0.0,-2.3834,-2.4268,-2.4627,-2.4821,-2.527,-2.5674,-2.5839,-2.5884,-2.6093,-2.6752,-2.726,-2.7634,-2.7829,-2.7859,-2.8113,-2.8786,-2.8592,-2.8697,-2.9505,-2.931,-2.925,-2.9564,-2.9579,-2.9654,-2.9819,-2.9834,-3.0228,-3.1026,-3.0889,-3.1129,-3.1796,-3.1762,-3.1661,-3.1482,-3.1898,-3.2228,-3.2527,-3.311,-3.3532,-3.3769,-3.418,-3.4759,-3.5477,-3.6535,-3.6904,-3.6964,-3.7573,-3.7822,-3.7822,-3.7822,-3.7822,-3.7806,0.0,0.0,0.0,0.0,0.0,0.0,0.0,0.0,0.0,0.0,0.0,0.0,0.0,0.0,0.0,-1.8702,-1.9301,-1.969,-1.969,-1.969,-1.969,-1.969,-1.969,-1.969,-1.969,-1.969,-1.969,-1.969,0.0,0.0,0.0,0.0,0.0,0.0,0.0,-1.9581,-1.9581,-1.9581,-1.9617,-1.969,-1.969,-1.969,-1.969,-1.969,-1.969,-1.969,-1.969,-1.9869,-2.0064,-1.9779,-1.969,-1.969,-1.969,-1.969,-1.969,-1.969,-1.969,-1.9779,-2.0183,-2.0976,-2.1784,-2.2173,0.0,0.0,-2.3266,-2.3729,-2.4118,-2.3864,-2.4328,-2.4866,-2.5151,-2.5196,-2.542,-2.6078,-2.6737,-2.726,-2.758,-2.7625,-2.7724,-2.8128,-2.8068,-2.8188,-2.8697,-2.8667,-2.8652,-2.8742,-2.8742,-2.8876,-2.916,-2.943,-2.9744,-3.0103,-3.0118,-3.0313,-3.0717,-3.0717,-3.0851,-3.1106,-3.1106,-3.145,-3.2108,-3.2392,-3.2721,-3.3095,-3.338,-3.3858,-3.4565,-3.5398,-3.5905,-3.6165,-3.6662,-3.6829,-3.6829,-3.6829,-3.6829,-3.689,0.0,0.0,0.0,0.0,0.0,0.0,0.0,0.0,0.0,0.0,0.0,0.0,0.0,0.0,0.0,0.0,-1.931,-1.9654,-1.9654,-1.969,0.0,-1.969,-1.969,-1.969,-1.969,-1.969,-1.969,-1.969,0.0,0.0,0.0,0.0,0.0,0.0,0.0,0.0,-1.9376,-1.9339,-1.9435,-1.9566,-1.9654,-1.9654,-1.9603,-1.969,-1.9639,-1.9603,-1.969,-2.0124,-2.0617,-2.0004,-1.975,-1.969,-1.969,-1.969,-1.969,-1.969,-1.969,-1.969,-1.969,-2.0617,-2.1605,-2.168,-2.2607,0.0,-2.2933,-2.3266,-2.3535,-2.2906,-2.3281,-2.3879,-2.4418,-2.4462,-2.4732,-2.539,-2.5989,-2.6632,-2.7365,-2.7565,-2.7625,-2.7625,-2.8113,-2.8248,-2.7685,-2.8128,-2.8233,-2.767,-2.7625,-2.7844,-2.8457,-2.9041,-2.9385,-2.9475,-2.9475,-2.9505,-2.9579,-2.9654,-2.9968,-3.0507,-3.0582,-3.0941,-3.1497,-3.2213,-3.2512,-3.2557,-3.3215,-3.3858,-3.4472,-3.4472,-3.4891,-3.5504,-3.5504,-3.5504,-3.5504,-3.5504,-3.5504,-3.5619,-1.9413,0.0,0.0,0.0,0.0,0.0,0.0,0.0,0.0,0.0,0.0,0.0,0.0,0.0,0.0,0.0,-1.9339,-1.945,-1.9376,-1.9523,0.0,-1.9611,-1.9654,-1.969,-1.969,-1.969,-1.969,-1.969,0.0,0.0,0.0,0.0,0.0,0.0,0.0,0.0,-1.9139,-1.9026,-1.8936,-1.886,-1.9413,-1.9384,-1.9095,-1.953,-1.9442,-1.9132,-1.9566,-2.0124,-2.0692,-2.0557,-2.0154,-1.969,-1.969,-1.969,-1.969,-1.969,-1.969,-1.969,-1.969,-2.0288,-2.1036,-2.156,-2.2278,0.0,-2.3325,-2.3939,-2.4238,-2.3565,-2.3954,-2.4298,-2.3879,-2.3804,-2.4029,-2.4717,-2.4881,-2.542,-2.6617,-2.7245,-2.7625,-2.7625,-2.7745,-2.7724,-2.7625,-2.7694,-2.7724,-2.7625,-2.7625,-2.7685,-2.7769,-2.794,-2.8218,-2.8771,-2.8801,-2.9041,-2.9579,-3.0073,-3.0387,-3.0507,-3.1061,-3.1347,-3.1497,-3.2213,-3.2512,-3.2557,-3.3215,-3.3858,-3.4472,-3.4472,-3.4891,-3.5504,-3.5504,-3.5504,-3.5504,-3.5504,-3.5504,-3.5504,-1.9228,0.0,0.0,0.0,0.0,0.0,0.0,0.0,0.0,0.0,0.0,0.0,0.0,0.0,0.0,0.0,0.0,0.0,0.0,-1.9265,-1.9376,-1.9465,-1.956,-1.9632,-1.9545,-1.9632,-1.9632,-1.9545,0.0,0.0,0.0,0.0,0.0,0.0,0.0,0.0,-1.8644,-1.8567,-1.8475,-1.8408,-1.886,-1.8846,-1.8535,-1.8817,-1.8893,-1.893,-1.9207,-1.9886,-2.0812,-2.147,-2.1246,-2.0692,-2.0692,-2.0692,-2.0617,-2.0303,-2.0198,-2.0124,-1.9779,-2.0183,-2.0872,-2.153,-2.2188,0.0,0.0,-2.364,-2.3924,-2.3266,-2.3655,-2.4014,-2.367,-2.3595,-2.3714,-2.4059,-2.4403,-2.4971,-2.5959,-2.6378,-2.6841,-2.755,-2.7275,-2.7215,-2.7595,-2.7625,-2.7625,-2.7625,-2.7625,-2.7625,-2.7625,-2.7625,-2.7724,-2.8068,-2.8083,-2.8248,-2.8577,-2.8891,-2.9385,-3.0043,-3.0387,-3.0911,-3.1497,-3.2213,-3.2512,-3.2557,-3.3215,-3.3858,-3.4472,-3.4472,-3.4891,-3.5504,-3.5504,-3.5504,-3.5504,-3.5504,-3.5504,-3.5504,-1.9026,0.0,0.0,0.0,0.0,0.0,0.0,0.0,0.0,0.0,0.0,0.0,-1.7732,-1.8337,-1.8707,-1.8669,0.0,0.0,-1.8707,-1.8898,-1.9064,-1.9228,-1.9413,-1.9501,-1.9413,-1.9501,-1.9501,-1.9413,0.0,0.0,0.0,0.0,0.0,0.0,0.0,0.0,-1.8069,-1.8029,-1.8002,-1.7907,-1.8094,-1.8094,-1.7947,-1.8066,-1.8302,-1.864,-1.9128,-1.9888,-2.0917,-2.2233,-2.2158,-2.15,-2.1476,-2.141,-2.1201,-2.0677,-2.0513,-2.0393,-1.9839,-2.0094,-2.0707,-2.15,-2.2099,-2.2547,0.0,0.0,0.0,-2.2951,-2.3251,-2.3595,-2.3595,-2.3595,-2.3595,-2.3595,-2.4059,-2.4702,-2.5495,-2.5495,-2.6004,-2.7575,-2.7081,-2.6901,-2.7694,-2.7769,-2.7724,-2.7625,-2.7694,-2.776,-2.7625,-2.7625,-2.7625,-2.7625,-2.7625,-2.7625,-2.7625,-2.7709,-2.8382,-2.9579,-2.9699,-3.0387,-3.1497,-3.2213,-3.2587,-3.2736,-3.3395,-3.4068,-3.4666,-3.4666,-3.4996,-3.5504,-3.5504,-3.5504,-3.5504,-3.5504,-3.5504,-3.5504,-1.8673,-1.8386,0.0,0.0,0.0,0.0,0.0,0.0,0.0,0.0,0.0,-1.6583,-1.7044,-1.771,-1.8028,-1.7828,-1.7868,-1.7948,-1.8068,-1.8383,-1.8721,-1.9031,-1.9242,-1.9339,-1.9413,-1.9413,-1.9413,-1.9413,0.0,0.0,0.0,0.0,0.0,0.0,-1.7868,-1.772,-1.757,-1.7529,-1.7338,-1.7105,-1.7102,-1.7214,-1.7422,-1.7907,-1.7827,-1.7773,-1.989,-2.0665,-2.0878,-2.2096,-2.1764,-2.0789,-2.0659,-2.0318,-1.9899,-1.9824,-1.9794,-1.9794,-1.9705,-1.975,-2.0109,-2.138,-2.1754,-2.2099,-2.3236,0.0,-2.358,-2.3505,0.0,-2.3595,-2.3595,0.0,0.0,-2.3595,-2.367,-2.4163,-2.5435,-2.5106,-2.5674,-2.8188,-2.7365,-2.7096,-2.8353,-2.8487,-2.8233,-2.767,-2.8143,-2.8218,-2.7655,-2.7625,-2.7625,-2.7625,-2.7625,-2.7625,-2.7625,-2.8173,-2.8846,-2.9594,-3.0133,-3.0791,-3.1497,-3.2213,-3.2826,-3.3425,-3.4083,-3.4756,-3.5385,-3.5385,-3.5429,-3.5504,-3.5504,-3.5504,-3.5504,-3.5504,-3.5504,-3.5504,-1.8644,-1.8293,0.0,0.0,0.0,0.0,0.0,0.0,0.0,0.0,-1.5434,-1.6059,-1.6661,-1.7277,-1.7639,-1.7516,-1.7475,-1.7516,-1.7639,-1.7908,-1.8201,-1.8411,-1.8798,-1.8988,-1.9003,-1.9153,-1.9176,0.0,-1.9026,0.0,0.0,0.0,0.0,0.0,-1.7406,-1.724,-1.7157,-1.7115,-1.6989,-1.682,-1.6791,-1.6778,-1.6879,-1.7076,-1.7229,-1.7581,-1.9614,-2.0088,-1.9964,-2.1155,-2.121,-2.087,-2.1211,-2.1089,-2.0857,-2.0857,-2.0587,-2.0198,-1.9794,-1.969,-2.0004,-2.1365,-2.1695,-2.2024,-2.331,-2.3595,-2.3595,-2.3595,0.0,0.0,0.0,0.0,0.0,0.0,-2.3595,-2.4029,-2.5312,-2.4893,-2.5371,-2.7739,-2.716,-2.6819,-2.739,-2.778,-2.7743,-2.7066,-2.7993,-2.8308,-2.7655,-2.7625,-2.7625,-2.7625,-2.7625,-2.7625,-2.7625,-2.7859,-2.8353,-2.9026,-2.9669,-3.0313,-3.0971,-3.2033,-3.2662,-3.2976,-3.4023,-3.4637,-3.4906,-3.4906,-3.4906,-3.4906,-3.4906,-3.516,-3.5504,-3.5504,-3.5504,-3.5504,-1.8784,0.0,0.0,0.0,0.0,0.0,0.0,0.0,-1.4195,-1.4822,-1.5385,-1.5918,-1.6479,-1.695,-1.7199,-1.7144,-1.706,-1.7073,-1.724,-1.7462,-1.7666,-1.7868,-1.8305,-1.8567,-1.8556,-1.8851,-1.8912,0.0,0.0,0.0,0.0,0.0,0.0,0.0,-1.7015,-1.6876,-1.6791,-1.6791,-1.6748,-1.6633,-1.6633,-1.6577,-1.6522,-1.6522,-1.6837,-1.7472,-1.894,-1.9292,-1.9253,-2.0291,-2.0641,-2.0691,-2.1152,-2.138,-2.1395,-2.1201,-2.0946,-2.0557,-1.9869,-1.9824,-2.0206,-2.1356,-2.1789,-2.2207,-2.3313,-2.361,-2.3595,-2.3595,-2.3595,0.0,0.0,0.0,-2.3595,-2.3595,0.0,-2.3984,-2.503,-2.4698,-2.5201,-2.7503,-2.7345,-2.698,-2.6831,-2.734,-2.7282,-2.6341,-2.7307,-2.7617,-2.6784,-2.6973,-2.7128,-2.7291,-2.7509,-2.7625,-2.7625,-2.7625,-2.7919,-2.8607,-2.9086,-2.9729,-3.0537,-3.1524,-3.2168,-3.2557,-3.3529,-3.4038,-3.4203,-3.4203,-3.4203,-3.4203,-3.4203,-3.4517,-3.4996,-3.537,-3.5504,-3.5474,-1.895,-1.8305,0.0,-1.7128,-1.6414,0.0,0.0,-1.4993,-1.5209,-1.5875,-1.5964,-1.6153,-1.6629,-1.6718,-1.6663,-1.6522,-1.6522,-1.665,-1.6876,-1.6964,-1.716,-1.7516,-1.7828,-1.8095,-1.8202,-1.8556,-1.8634,-1.8517,0.0,0.0,0.0,0.0,0.0,0.0,-1.6761,-1.6633,-1.6522,-1.6522,-1.6522,-1.6522,-1.6522,-1.6522,-1.6522,-1.6522,-1.6837,-1.7391,-1.8113,-1.8682,-1.9183,-1.9749,-1.9922,-1.9915,-1.981,-2.0221,-2.0617,-1.9944,-2.0213,-2.0557,-1.9869,-2.0094,-2.0635,-2.1342,-2.1995,-2.2676,-2.336,-2.3566,-2.3595,-2.3595,-2.3595,-2.3595,-2.3595,-2.3595,-2.3595,-2.3595,-2.3595,0.0,0.0,-2.4417,-2.5265,-2.7904,-2.8135,-2.7951,-2.7423,-2.7704,-2.7221,-2.5583,-2.5934,-2.5795,-2.4674,-2.5369,-2.598,-2.6549,-2.7255,-2.7625,-2.7625,-2.7625,-2.7919,-2.8607,-2.8622,-2.9295,-3.0507,-3.0552,-3.1285,-3.2512,-3.2557,-3.2946,-3.3529,-3.3529,-3.3529,-3.3529,-3.3529,-3.3544,-3.3724,-3.5026,-3.5504,-3.5415,-1.8988,0.0,-1.7909,-1.7365,-1.6876,-1.6319,-1.5585,-1.5142,-1.5143,-1.5711,-1.5787,-1.6002,-1.6514,-1.6577,-1.6534,-1.6522,-1.6522,-1.6522,-1.665,-1.682,-1.6989,-1.7115,-1.7434,-1.7639,-1.7733,-1.7975,-1.8095,-1.8083,-1.7962,0.0,0.0,0.0,0.0,0.0,-1.662,-1.6522,-1.6522,-1.6522,-1.6522,-1.6522,-1.6522,-1.6522,-1.6522,-1.6522,-1.6595,-1.6871,-1.7491,-1.757,-1.7453,-1.8052,-1.8468,-1.882,-1.9201,-1.9377,-1.9632,-2.0193,-1.9961,-1.9641,-2.022,-2.0175,-2.0358,-2.1691,-2.1872,-2.196,-2.2892,-2.3113,-2.3201,-2.3348,-2.326,-2.3201,-2.3494,-2.3392,-2.3304,-2.3524,-2.3553,-2.3701,0.0,-2.4408,-2.4912,-2.6183,-2.6486,-2.6499,-2.6163,-2.6119,-2.5684,-2.4581,-2.4938,-2.5017,-2.4512,-2.4777,-2.5191,-2.5769,-2.6,-2.6162,-2.6162,-2.6162,-2.6275,-2.6489,-2.7422,-2.8075,-2.8569,-2.9882,-3.0746,-3.124,-3.2123,-3.2647,-3.2841,-3.2841,-3.2841,-3.2841,-3.2841,-3.2841,-3.2961,-3.3844,-3.4173,-3.4083,-1.9026,-1.8528,-1.8029,-1.7475,-1.7031,-1.6579,-1.6045,-1.568,-1.558,-1.5944,-1.5982,-1.612,-1.6471,-1.6522,-1.6522,-1.6522,-1.6522,-1.6522,-1.6522,-1.665,-1.6748,-1.6748,-1.7073,-1.724,-1.7282,-1.7516,-1.7652,-1.7666,-1.757,-1.7406,0.0,0.0,0.0,0.0,-1.6522,-1.6522,-1.6522,-1.6522,-1.6522,-1.6522,-1.6522,-1.6522,-1.6522,-1.6522,-1.6522,-1.6572,-1.6936,-1.6974,-1.6886,-1.725,-1.7894,-1.8508,-1.8742,-1.9,-1.9349,-1.9908,-1.967,-1.9405,-2.0163,-2.0091,-2.0094,-2.1383,-2.1393,-2.1324,-2.2218,-2.2452,-2.2529,-2.268,-2.2694,-2.2694,-2.2934,-2.2979,-2.3038,-2.326,-2.3319,-2.3408,0.0,-2.3795,-2.4026,-2.4272,-2.5,-2.537,-2.5247,-2.5019,-2.4374,-2.3252,-2.3382,-2.3404,-2.3175,-2.3393,-2.3811,-2.4409,-2.464,-2.49,-2.5066,-2.5066,-2.5177,-2.5412,-2.63,-2.7011,-2.7544,-2.8562,-2.9599,-3.0552,-3.1174,-3.1679,-3.2168,-3.2168,-3.2168,-3.2168,-3.2168,-3.2168,-3.2273,-3.3155,-3.335,-3.308,-1.9139,-1.8567,-1.7989,-1.7475,-1.6892,-1.6522,-1.6522,-1.6522,-1.6522,-1.6522,-1.6522,-1.6522,-1.6522,-1.6522,-1.6522,-1.6522,-1.6547,-1.6547,-1.6522,-1.6547,-1.6547,-1.6522,-1.6748,-1.6876,-1.6876,-1.7225,-1.7337,-1.7199,-1.7225,-1.7099,0.0,0.0,0.0,0.0,-1.6522,-1.6522,-1.6522,-1.6522,-1.6522,-1.6522,-1.6522,-1.6522,-1.6522,-1.6522,-1.6522,-1.6522,-1.6547,-1.6911,-1.7388,-1.7413,-1.8131,-1.8891,-1.8398,-1.8997,-1.9745,-1.9139,-1.9373,-1.9869,-1.9853,-1.9823,-1.9915,-2.047,-2.0639,-2.0822,-2.1424,-2.1629,-2.1663,-2.1697,-2.1866,-2.2035,-2.2081,-2.2374,-2.268,-2.2847,-2.2995,-2.2951,-2.26,-2.2744,-2.2692,-2.2306,-2.3677,-2.4641,-2.4669,-2.4309,-2.3375,-2.1641,-2.1419,-2.1146,-2.0695,-2.135,-2.1962,-2.2551,-2.3223,-2.381,-2.435,-2.435,-2.4653,-2.5204,-2.5246,-2.5966,-2.7291,-2.6638,-2.7811,-3.0291,-2.9652,-3.009,-3.1377,-3.1407,-3.1407,-3.1377,-3.1452,-3.1482,-3.1616,-3.2931,-3.3006,-3.2467,-1.9026,-1.824,-1.7488,-1.7086,-1.6735,-1.6522,-1.6522,-1.6522,-1.6522,-1.6522,-1.6522,-1.6522,-1.6522,-1.6522,-1.6522,-1.6522,-1.6911,-1.6974,-1.6547,-1.6923,-1.6974,-1.6534,-1.6565,-1.6663,-1.6761,-1.7229,-1.7316,-1.696,-1.7273,-1.7186,-1.6761,0.0,0.0,0.0,-1.6522,-1.6522,-1.6522,-1.6522,-1.6522,-1.6522,-1.6522,-1.6522,-1.6522,-1.6522,-1.6522,-1.6572,-1.6999,-1.725,-1.7451,-1.7852,-1.845,-1.8976,-1.8836,-1.9019,-1.9274,-1.9482,-1.9407,-1.943,-2.0302,-1.99,-1.9538,-2.086,-2.0529,-2.0096,-2.0957,-2.1175,-2.1224,-2.1452,-2.1355,-2.1417,-2.1779,-2.1874,-2.1969,-2.2328,-2.2477,-2.2498,-2.2171,-2.2024,-2.1974,-2.1997,-2.2219,-2.255,-2.3166,-2.2557,-2.1721,-2.072,-2.0348,-2.0156,-2.0054,-2.0629,-2.1248,-2.1789,-2.1951,-2.2148,-2.2269,-2.2269,-2.2347,-2.2502,-2.3082,-2.3702,-2.4503,-2.5329,-2.6358,-2.7471,-2.8325,-2.8856,-2.9287,-3.0327,-3.0492,-3.0178,-3.115,-3.1482,-3.1511,-3.1913,-3.1928,-3.1735,-1.895,-1.8068,-1.7282,-1.6876,-1.6663,-1.6522,-1.6522,-1.6522,-1.6522,-1.6522,-1.6522,-1.6522,-1.6522,-1.6522,-1.6522,-1.6522,-1.6823,-1.6974,-1.6898,-1.72,-1.7237,-1.6911,-1.6898,-1.6829,-1.6633,-1.691,-1.6954,-1.6748,-1.6954,-1.691,-1.662,0.0,0.0,0.0,-1.6522,-1.6522,-1.6522,-1.6522,-1.6522,-1.6522,-1.6522,-1.6522,0.0,-1.6522,-1.6522,-1.6597,-1.7174,-1.7539,-1.7827,-1.838,-1.892,-1.9334,-1.9046,-1.8983,-1.9069,-1.9351,-1.9253,-1.9218,-2.0083,-1.9713,-1.9294,-2.0403,-2.0031,-1.9541,-2.0317,-2.0497,-2.0547,-2.0683,-2.0646,-2.0759,-2.1055,-2.1381,-2.1798,-2.2155,-2.2269,-2.2217,-2.1704,-2.1387,-2.1179,-2.1172,-2.0957,-2.1003,-2.139,-2.13,-2.0875,-2.0156,-1.993,-1.9801,-1.9825,-2.0143,-2.0449,-2.0737,-2.0999,-2.1167,-2.1132,-2.1403,-2.1493,-2.1493,-2.1898,-2.2437,-2.308,-2.3761,-2.4799,-2.6022,-2.6733,-2.7479,-2.8351,-2.8901,-2.9258,-2.9569,-3.038,-3.0687,-3.0687,-3.0687,-3.0851,-3.1046,-1.8874,-1.8028,-1.724,-1.6803,-1.662,-1.6522,-1.6522,-1.6522,-1.6522,-1.6522,-1.6522,-1.6522,-1.6522,-1.6522,-1.6522,-1.6522,-1.6584,-1.681,-1.7237,-1.7338,-1.735,-1.7275,-1.7262,-1.7036,-1.6522,-1.6597,-1.6597,-1.6522,-1.6672,-1.666,0.0,0.0,0.0,0.0,-1.6522,-1.6522,-1.6522,-1.6522,-1.6522,-1.6522,-1.6522,-1.6522,-1.6522,-1.6522,-1.6522,-1.6597,-1.7174,-1.7739,-1.8292,-1.8844,-1.9371,-1.9723,-1.9271,-1.9083,-1.8995,-1.9058,-1.9083,-1.9145,-1.966,-1.9422,-1.9145,-1.9673,-1.9409,-1.9171,-1.9685,-1.9798,-1.9798,-1.9798,-1.9965,-2.0169,-2.0182,-2.0914,-2.1676,-2.2069,-2.2155,-2.1916,-2.1175,-2.0848,-2.0536,-2.0243,-2.0042,0.0,-1.9811,-2.0412,-2.0438,-1.9734,-1.9847,-1.984,-1.9609,-1.9798,-1.9875,-1.9709,-2.0282,-2.0602,-2.0719,-2.1062,-2.1305,-2.138,-2.1305,-2.1665,-2.2378,-2.2196,-2.3189,-2.5094,-2.4998,-2.5975,-2.7644,-2.7294,-2.7947,-2.9189,-2.9307,-2.943,-2.9564,-2.9385,-2.9714,-3.0193,-1.8464,-1.7733,-1.7157,-1.6918,-1.665,-1.6522,-1.6522,-1.6522,-1.6522,-1.6522,-1.6522,-1.6522,-1.6522,-1.6522,-1.6522,-1.6522,-1.6961,-1.7074,-1.6685,-1.7112,-1.7162,-1.6685,-1.6672,-1.6622,-1.6522,-1.6986,-1.6999,-1.6522,-1.7451,-1.7426,0.0,0.0,0.0,0.0,-1.6522,-1.6522,-1.6522,-1.6522,-1.6522,-1.6522,-1.6522,-1.6522,-1.6522,-1.6522,-1.6522,-1.6597,-1.7174,-1.7739,-1.8292,-1.8844,-1.9371,-1.9786,-1.9698,-1.9371,-1.912,-1.9547,-1.9359,-1.9145,-1.966,-1.9422,-1.9145,-1.9673,-1.9409,-1.9171,-1.9685,-1.9798,-1.9798,-1.9798,-1.985,-1.9901,-1.9991,-2.0363,-2.0841,-2.1502,-2.1622,-2.1394,-2.0641,-2.0913,-2.0875,-2.0144,-2.0016,-1.9964,-1.9811,-1.99,-1.9786,-1.9189,-1.9991,-1.9927,-1.8573,-1.9798,-2.0091,-1.9189,-1.9668,-2.0188,-2.0709,-2.0275,-2.0338,-2.0803,-2.0326,-2.0444,-2.1018,-2.1012,-2.166,-2.2885,-2.3476,-2.4195,-2.5047,-2.6123,-2.7328,-2.851,-2.8106,-2.8659,-2.9445,-2.8389,-2.8353,-2.8996,-1.8135,-1.757,-1.7115,-1.6846,-1.6607,-1.6522,-1.6522,-1.6522,-1.6522,-1.6522,-1.6522,-1.6522,-1.6522,-1.6522,-1.6522,-1.6522,-1.6773,-1.6936,-1.6974,-1.7225,-1.7262,-1.6974,-1.6974,-1.6823,-1.6522,-1.6785,-1.6936,-1.6974,-1.7513,-1.7652,0.0,-1.7677,-1.7501,-1.6948,-1.666,-1.6522,-1.6522,-1.6522,-1.6522,-1.6522,-1.6522,-1.6522,-1.6522,-1.6522,-1.6522,-1.6559,-1.6835,-1.73,-1.7865,-1.8417,-1.8769,-1.897,-1.897,-1.8807,-1.8706,-1.9246,-1.9221,-1.9145,-1.966,-1.9623,-1.9497,-1.9748,-1.961,-1.9497,-1.9748,-1.9798,-1.9798,-1.9798,-1.9798,-1.9939,-2.0271,-2.0731,-2.1094,-2.1201,-2.1434,-2.1288,-2.0341,-2.037,-2.0245,-1.9544,-1.9467,-1.9455,-1.9379,-1.9379,-1.9278,-1.9025,-1.9786,-1.9617,-1.826,-1.9258,-1.9558,-1.9,-1.9531,-1.9957,-2.0237,-1.9941,-1.9803,-1.9813,-1.9258,-1.9271,-1.9823,-2.01,-2.0828,-2.1895,-2.2559,-2.3347,-2.4245,-2.5269,-2.5745,-2.58,-2.593,-2.6404,-2.6934,-2.6638,-2.6946,-2.7615,-1.7988,-1.7475,-1.7044,-1.6761,-1.6577,-1.6522,-1.6522,-1.6522,-1.6522,-1.6522,-1.6522,-1.6522,-1.6522,-1.6522,-1.6522,-1.6522,-1.6522,-1.671,-1.7162,-1.72,-1.72,-1.72,-1.72,-1.6986,-1.6522,-1.6522,-1.6735,-1.72,-1.7438,-1.7714,-1.8028,-1.8267,-1.8028,-1.735,-1.6773,-1.6522,-1.6522,-1.6522,-1.6522,-1.6522,-1.6522,-1.6522,-1.6522,-1.6522,-1.6522,-1.6522,-1.6522,-1.681,-1.7262,-1.7702,-1.8003,-1.8204,-1.8204,-1.8129,-1.8141,-1.8694,-1.8857,-1.897,-1.9497,-1.971,-1.9798,-1.9798,-1.9798,-1.9798,-1.9798,-1.9798,-1.9798,-1.9798,-1.9798,-1.9977,-2.0605,-2.1062,-2.1194,-2.089,-2.1207,-2.11,-2.0111,-2.0,-1.9722,-1.9101,-1.912,-1.9095,-1.8846,-1.9018,-1.9101,-1.8848,-1.9447,-1.9307,-1.8275,-1.894,-1.9248,-1.8983,-1.9547,-1.9875,-1.9989,-1.9625,-1.9334,-1.8965,-1.845,-1.849,-1.8995,-1.9447,-2.025,-2.1343,-2.1895,-2.2711,-2.3689,-2.4307,-2.4041,-2.3307,-2.4053,-2.4318,-2.4424,-2.4995,-2.5492,-2.6002,-1.8145,-1.7449,-1.6876,-1.6718,-1.6577,-1.6522,-1.6522,-1.6522,-1.6522,-1.6522,-1.6522,-1.6522,-1.6522,-1.6522,-1.6522,-1.6522,-1.6522,-1.6547,-1.6597,-1.6597,-1.6597,-1.6597,-1.6597,-1.6572,-1.6522,-1.6522,-1.6547,-1.6597,-1.7626,-1.7903,-1.7488,-1.848,-1.8392,-1.735,-1.6773,-1.6522,-1.6522,-1.6522,-1.6522,-1.6522,-1.6522,-1.6522,-1.6522,-1.6522,-1.6522,-1.6522,-1.6522,-1.6559,-1.6609,-1.666,-1.735,-1.8204,-1.8204,-1.7865,-1.7564,-1.8129,-1.8279,-1.8405,-1.8945,-1.9447,-1.9798,-1.9798,-1.9798,-1.9798,-1.9798,-1.9798,-1.9798,-1.9798,-1.9798,-1.9977,-2.0605,-2.0322,-2.013,-2.0653,-2.0754,-2.059,-1.992,-2.0283,-2.0233,-1.9113,-1.9441,-1.9361,-1.8381,-1.9137,-1.9302,-1.8358,-1.9204,-1.9337,-1.8275,-1.9675,-2.0073,-1.9037,-1.9526,-2.0066,-2.0605,-1.9098,-1.8568,-1.8965,-1.8474,-1.8481,-1.8983,-1.9033,-1.9698,-2.0819,-2.133,-2.1907,-2.248,-2.2724,-2.275,-2.2764,-2.3475,-2.3784,-2.3784,-2.3835,-2.3928,-2.4156,-1.7666,-1.7214,-1.6846,-1.6718,-1.6577,-1.6522,-1.6522,-1.6522,-1.6522,-1.6522,-1.6522,-1.6522,-1.6522,-1.6522,-1.6522,-1.6522,-1.6522,-1.6522,-1.6522,-1.6522,-1.6522,-1.6522,-1.6522,-1.6522,-1.6522,-1.6522,-1.6685,-1.7036,-1.7488,-1.794,-1.8367,-1.848,-1.8129,-1.735,-1.6773,-1.6522,-1.6522,-1.6522,-1.6522,-1.6522,-1.6522,-1.6522,-1.6522,-1.6522,-1.6522,-1.6522,-1.6522,-1.6522,-1.6522,-1.6522,-1.6823,-1.7187,-1.7187,-1.7036,-1.6974,-1.7539,-1.7714,-1.784,-1.838,-1.8671,-1.8821,-1.8821,-1.9057,-1.9302,-1.9302,-1.9556,-1.9798,-1.9798,-1.9798,-1.9888,-2.0143,-2.0245,-2.028,-2.0177,-2.0467,-2.0502,-1.9888,-1.9722,-1.9379,-1.8609,-1.8418,-1.82,-1.7736,-1.8103,-1.8465,-1.8675,-1.9393,-1.9309,-1.8261,-1.8831,-1.9298,-1.9458,-1.8753,-1.894,-2.0134,-1.8549,-1.7844,-1.8029,-1.7473,-1.7479,-1.804,-1.8369,-1.9321,-2.0756,-2.1255,-2.1606,-2.1807,-2.189,-2.1761,-2.1506,-2.1799,-2.1904,-2.1957,-2.2412,-2.3002,-2.377,-1.7353,-1.7005,-1.6748,-1.6663,-1.6565,-1.6522,-1.6522,-1.6522,-1.6522,-1.6522,-1.6522,-1.6522,-1.6522,-1.6522,-1.6522,-1.6522,-1.6522,-1.6522,-1.6522,-1.6522,-1.6522,-1.6522,-1.6522,-1.6522,-1.6522,-1.6522,-1.6722,-1.7137,-1.73,-1.7777,-1.853,-1.8141,-1.7752,-1.735,-1.6773,-1.6522,-1.6522,-1.6522,-1.6522,-1.6522,-1.6522,-1.6522,-1.6522,-1.6522,-1.6522,-1.6522,-1.6522,-1.6522,-1.6522,-1.6522,-1.6522,-1.6522,-1.6522,-1.6522,-1.6597,-1.7011,-1.725,-1.7463,-1.7852,-1.8086,-1.8215,-1.8215,-1.845,-1.8744,-1.8775,-1.9037,-1.9354,-1.9354,-1.9455,-1.9544,-1.9544,-2.0054,-2.0322,-1.9888,-2.0156,-2.0271,-1.9875,-1.9354,-1.8867,-1.8487,-1.8093,-1.776,-1.7412,-1.7675,-1.8035,-1.8485,-1.9183,-1.9195,-1.8234,-1.8358,-1.8717,-1.9321,-1.8236,-1.8196,-1.9328,-1.7886,-1.7132,-1.7132,-1.6683,-1.682,-1.7415,-1.8109,-1.9269,-2.0731,-2.0891,-2.1091,-2.123,-2.1054,-2.0765,-2.0413,-2.0413,-2.0413,-2.0507,-2.1004,-2.1769,-2.2607,-1.7394,-1.6879,-1.6522,-1.6522,-1.6522,-1.6522,-1.6522,-1.6522,-1.6522,-1.6522,-1.6522,-1.6522,-1.6522,-1.6522,-1.6522,-1.6522,-1.6522,-1.6522,-1.6522,-1.6522,-1.6522,-1.6522,-1.6522,-1.6522,-1.6522,-1.6522,-1.6522,-1.6522,-1.7099,-1.7388,-1.74,-1.74,-1.7388,-1.735,-1.6773,-1.6522,-1.6522,-1.6522,-1.6522,-1.6522,-1.6522,-1.6522,-1.6522,-1.6522,-1.6522,-1.6522,-1.6522,-1.6522,-1.6522,-1.6522,-1.6522,-1.6522,-1.6522,-1.6522,-1.6522,-1.6522,-1.6936,-1.7388,-1.7388,-1.78,-1.8215,-1.8215,-1.8211,-1.8188,-1.8205,-1.8195,-1.8207,-1.8207,-1.8621,-1.9025,-1.9025,-1.9455,-1.9811,-1.9798,-1.9811,-1.9811,-1.9798,-1.9354,-1.8995,-1.901,-1.8965,-1.8548,-1.7484,-1.8382,-1.8548,-1.7484,-1.8409,-1.8761,-1.8235,-1.8724,-1.8733,-1.8222,-1.8224,-1.8208,-1.8243,-1.7063,-1.6522,-1.6522,-1.6522,-1.682,-1.7441,-1.8474,-1.9651,-2.0693,-2.0075,-2.015,-2.068,-2.0062,-1.9823,-1.9811,-1.9811,-1.9811,-1.9811,-1.9811,-1.9811,-2.0054,-1.6795,-1.6637,-1.6522,-1.6522,-1.6522,-1.6522,-1.6522,-1.6522,-1.6522,-1.6522,-1.6522,-1.6522,-1.6522,-1.6522,-1.6522,-1.6522,-1.6522,-1.6522,-1.6522,-1.6522,-1.6522,-1.6522,-1.6522,-1.6522,-1.6522,-1.6522,-1.6522,-1.6522,-1.6697,-1.6798,-1.681,-1.72,-1.7174,-1.6785,-1.6609,-1.6522,-1.6522,-1.6522,-1.6522,-1.6522,-1.6522,-1.6238,-1.5908,-1.5908,-1.5908,-1.5908,-1.5908,-1.6139,-1.6522,-1.6522,-1.6522,-1.6522,-1.6522,-1.6522,-1.6522,-1.6522,-1.6647,-1.6798,-1.6798,-1.6929,-1.706,-1.706,-1.7359,-1.7632,-1.7655,-1.7956,-1.8195,-1.8195,-1.8617,-1.9011,-1.9006,-1.9443,-1.9798,-1.9798,-1.9467,-1.9265,-1.9265,-1.8509,-1.7921,-1.7926,-1.7542,-1.7157,-1.6844,-1.7107,-1.7652,-1.8438,-1.8453,-1.8387,-1.8199,-1.871,-1.9083,-1.9287,-1.8228,-1.8025,-1.8728,-1.7269,-1.6522,-1.6522,-1.6522,-1.682,-1.7415,-1.8125,-1.8859,-1.9537,-1.9708,-1.9911,-2.0062,-1.9874,-1.9798,-1.9798,-1.9798,-1.9798,-1.9798,-1.9798,-2.0079,-2.0527,-1.6552,-1.6522,-1.6522,-1.6522,-1.6522,-1.6522,-1.6522,-1.6522,-1.6522,-1.6522,-1.6522,-1.6522,-1.6522,-1.6522,-1.6522,-1.6522,-1.6522,-1.6522,-1.6522,-1.6522,-1.6522,-1.6522,-1.6522,-1.6522,-1.6522,-1.6522,-1.6522,-1.6522,-1.6522,-1.6522,-1.6522,-1.6886,-1.6861,-1.6522,-1.6522,-1.6522,-1.6479,-1.6238,-1.6151,-1.6139,-1.5932,-1.5599,-1.5276,-1.5276,-1.5276,-1.5276,-1.5543,-1.582,-1.6194,-1.6423,-1.6522,-1.6522,-1.6522,-1.6522,-1.6522,-1.6522,-1.6522,-1.6522,-1.6522,-1.6522,-1.6522,-1.6522,-1.6764,-1.705,-1.705,-1.7338,-1.7652,-1.783,-1.8312,-1.8777,-1.897,-1.9443,-1.9722,-1.9531,-1.9202,-1.8918,-1.8755,-1.7933,-1.7454,-1.7683,-1.7193,-1.6835,-1.6835,-1.6823,-1.7188,-1.7982,-1.815,-1.8089,-1.7922,-1.8603,-1.9047,-1.9186,-1.8004,-1.774,-1.8382,-1.7132,-1.6522,-1.6522,-1.6522,-1.682,-1.7446,-1.7958,-1.8478,-1.9025,-1.9556,-1.9798,-1.9798,-1.9798,-1.9798,-1.9798,-1.9798,-1.9798,-1.9798,-1.9798,-2.0066,-2.0425,-1.6645,-1.6547,-1.6522,-1.6572,-1.6547,-1.6522,-1.6522,-1.6522,-1.6522,-1.6522,-1.6522,-1.6522,-1.6522,-1.6522,-1.6522,-1.6522,-1.6522,-1.6522,-1.6522,-1.6522,-1.6522,-1.6522,-1.6522,-1.6522,-1.6522,-1.6522,-1.6522,-1.6522,-1.6522,-1.6522,-1.6522,-1.6522,-1.6522,-1.6522,-1.6522,-1.6522,-1.6479,-1.5864,-1.5588,-1.5543,-1.4926,-1.4652,-1.4652,-1.4652,-1.4652,-1.4698,-1.5276,-1.5543,-1.5676,-1.6238,-1.6466,-1.6522,-1.6522,-1.6522,-1.6522,-1.6522,-1.6522,-1.6522,-1.6522,-1.6522,-1.6522,-1.6522,-1.6522,-1.6522,-1.6522,-1.6522,-1.667,-1.7213,-1.7796,-1.8338,-1.8844,-1.9379,-1.9633,-1.9125,-1.899,-1.877,-1.8271,-1.7721,-1.7514,-1.8038,-1.7652,-1.7351,-1.7351,-1.7351,-1.7132,-1.667,-1.7558,-1.7978,-1.7566,-1.849,-1.8747,-1.8211,-1.7709,-1.7448,-1.739,-1.682,-1.6522,-1.6522,-1.6522,-1.682,-1.742,-1.7912,-1.8459,-1.9025,-1.9531,-1.9786,-1.9798,-1.9798,-1.9798,-1.9798,-1.9798,-1.9798,-1.9722,-1.9722,-1.9722,-1.9722,-1.7131,-1.6823,-1.666,-1.7099,-1.681,-1.6522,-1.6522,-1.6522,-1.6522,-1.6522,-1.6522,-1.6522,-1.6522,-1.6522,-1.6522,-1.6522,-1.6522,-1.6522,-1.6522,-1.6522,-1.6522,-1.6522,-1.6522,-1.6522,-1.6522,-1.6522,-1.6522,-1.6522,-1.6522,-1.6522,-1.6522,-1.6522,-1.6522,-1.6522,-1.6522,-1.6522,-1.6479,-1.5864,-1.5588,-1.5543,-1.4926,-1.4422,-1.4003,-1.4003,-1.4003,-1.405,-1.4179,-1.4812,-1.5632,-1.5764,-1.6139,-1.6522,-1.6522,-1.6522,-1.6522,-1.6522,-1.6522,-1.6522,-1.6522,-1.6522,-1.6522,-1.6522,-1.6522,-1.6522,-1.6522,-1.6522,-1.6534,-1.6683,-1.7483,-1.8263,-1.8362,-1.9177,-1.9786,-1.9633,-1.8907,-1.8362,-1.8213,-1.7351,-1.6751,-1.6901,-1.6807,-1.6696,-1.6696,-1.6696,-1.6995,-1.7735,-1.7667,-1.8091,-1.9152,-1.9058,-1.8759,-1.8247,-1.8096,-1.7837,-1.739,-1.682,-1.6522,-1.6522,-1.6522,-1.682,-1.742,-1.7514,-1.8122,-1.9025,-1.9113,-1.9443,-1.9798,-1.9798,-1.9798,-1.9798,-1.9798,-1.9544,-1.9189,-1.9189,-1.9189,-1.9189,-1.6923,-1.6735,-1.6609,-1.6936,-1.6722,-1.6522,-1.6522,-1.6522,-1.6522,-1.6522,-1.6522,-1.6522,-1.6522,-1.6522,-1.6522,-1.6522,-1.6522,-1.6522,-1.6522,-1.6522,-1.6522,-1.6522,-1.6522,-1.6522,-1.6522,-1.6522,-1.6522,-1.6522,-1.6522,-1.6522,-1.6522,-1.6522,-1.6522,-1.6522,-1.6522,-1.6522,-1.6423,-1.5555,-1.5186,-1.5096,-1.4247,-1.3705,-1.3372,-1.3372,-1.3372,-1.342,-1.3684,-1.4226,-1.4824,-1.5096,-1.5599,-1.6095,-1.6095,-1.6281,-1.6522,-1.6522,-1.6522,-1.6522,-1.6522,-1.6522,-1.6522,-1.6522,-1.6522,-1.659,-1.6832,-1.6683,-1.6739,-1.7488,-1.7951,-1.836,-1.8841,-1.9379,-1.9633,-1.9125,-1.856,-1.8012,-1.7506,-1.6901,-1.6522,-1.6522,-1.6522,-1.6522,-1.6522,-1.6522,-1.6751,-1.7364,-1.7652,-1.8143,-1.8999,-1.9258,-1.9214,-1.8937,-1.8486,-1.8206,-1.8133,-1.7338,-1.6901,-1.6901,-1.6615,-1.682,-1.7402,-1.7647,-1.8213,-1.9015,-1.9271,-1.9531,-1.9798,-1.9798,-1.9798,-1.9798,-1.9798,-1.962,-1.9356,-1.9361,-1.9383,-1.9365,-1.6635,-1.6572,-1.6547,-1.6635,-1.6572,-1.6522,-1.6522,-1.6522,-1.6522,-1.6522,-1.6522,-1.6522,-1.6522,-1.6522,-1.6522,-1.6522,-1.6522,-1.6522,-1.6522,-1.6522,-1.6522,-1.6522,-1.6522,-1.6522,-1.6522,-1.6522,-1.6522,-1.6522,-1.6522,-1.6522,-1.6522,-1.6522,-1.6522,-1.6522,-1.6522,-1.6522,-1.6423,-1.5287,-1.4789,-1.4606,-1.3478,-1.2968,-1.2881,-1.2881,-1.2881,-1.2978,-1.3457,-1.3732,-1.3862,-1.4376,-1.4971,-1.5499,-1.5588,-1.5964,-1.638,-1.6466,-1.6522,-1.6522,-1.6522,-1.6522,-1.6522,-1.6522,-1.659,-1.6764,-1.7282,-1.7086,-1.7156,-1.8602,-1.8578,-1.8617,-1.9535,-1.9734,-1.9531,-1.8697,-1.843,-1.7995,-1.7017,-1.6751,-1.6602,-1.6522,-1.6522,-1.6522,-1.6522,-1.6522,-1.6534,-1.6615,-1.7514,-1.814,-1.8328,-1.919,-1.9722,-1.9798,-1.8827,-1.8508,-1.8901,-1.7963,-1.7534,-1.7501,-1.6982,-1.7063,-1.7661,-1.8056,-1.8535,-1.9133,-1.9519,-1.9722,-1.9798,-1.9798,-1.9798,-1.9798,-1.9798,-1.9709,-1.9572,-1.9674,-1.9605,-1.9562,-1.7149,-1.6861,-1.6672,-1.7162,-1.6848,-1.6522,-1.6522,-1.6522,-1.6522,-1.6522,-1.6522,-1.6522,-1.6522,-1.6522,-1.6522,-1.6522,-1.6522,-1.6522,-1.6522,-1.6522,-1.6522,-1.6522,-1.6522,-1.6522,-1.6522,-1.6522,-1.6522,-1.6522,-1.6522,-1.6522,-1.6522,-1.6522,-1.6522,-1.6522,-1.6522,-1.6522,-1.6466,-1.5776,-1.5186,-1.4652,-1.392,-1.3324,-1.2881,-1.2881,-1.2881,-1.2929,-1.3017,-1.3372,-1.3815,-1.3909,-1.4329,-1.4926,-1.5454,-1.5676,-1.582,-1.6337,-1.6522,-1.6522,-1.6522,-1.6522,-1.6522,-1.6522,-1.6888,-1.7282,-1.7364,-1.7666,-1.802,-1.8249,-1.8644,-1.8907,-1.9064,-1.9467,-1.99,-2.0245,-1.9504,-1.8808,-1.8658,-1.7817,-1.7063,-1.6547,-1.6522,-1.6522,-1.6522,-1.6522,-1.6696,-1.7213,-1.742,-1.7939,-1.8846,-1.9017,-1.9354,-1.9798,-1.9207,-1.8696,-1.8349,-1.8137,-1.8064,-1.8064,-1.7982,-1.8216,-1.8755,-1.8387,-1.8753,-1.9661,-1.9294,-1.9379,-1.9798,-1.9798,-1.9798,-1.9798,-1.9798,-1.9265,-1.8485,-1.8982,-1.8858,-1.8509,-1.6861,-1.6697,-1.6609,-1.6873,-1.6697,-1.6522,-1.6522,-1.6522,-1.6522,-1.6522,-1.6522,-1.6522,-1.6522,-1.6522,-1.6522,-1.6522,-1.6522,-1.6522,-1.6522,-1.6522,-1.6522,-1.6522,-1.6522,-1.6522,-1.6522,-1.6522,-1.6522,-1.6522,-1.6522,-1.6522,-1.6522,-1.6522,-1.6522,-1.6522,-1.6522,-1.6337,-1.5964,-1.5365,-1.4789,-1.4143,-1.3552,-1.3152,-1.2881,-1.2881,-1.2881,-1.2881,-1.2881,-1.3055,-1.3334,-1.3334,-1.3742,-1.4283,-1.4549,-1.4869,-1.5186,-1.5466,-1.5976,-1.6522,-1.6522,-1.6522,-1.6522,-1.6522,-1.6969,-1.7465,-1.7775,-1.8006,-1.8343,-1.8923,-1.9021,-1.9101,-1.9379,-1.9633,-1.9798,-1.9798,-1.9349,-1.8902,-1.8614,-1.8138,-1.7735,-1.7433,-1.742,-1.742,-1.742,-1.742,-1.7514,-1.7817,-1.8091,-1.8485,-1.8976,-1.9278,-1.9544,-1.9798,-1.9544,-1.9189,-1.8621,-1.8609,-1.8621,-1.8621,-1.8364,-1.8462,-1.899,-1.8746,-1.9037,-1.9798,-1.9544,-1.9556,-1.9798,-1.9467,-1.9366,-1.9354,-1.9037,-1.8785,-1.8651,-1.8897,-1.9029,-1.9101,-1.6522,-1.6522,-1.6522,-1.6522,-1.6522,-1.6522,-1.6522,-1.6522,-1.6522,-1.6522,-1.6522,-1.6522,-1.6522,-1.6522,-1.6522,-1.6522,-1.6522,-1.6522,-1.6522,-1.6522,-1.6522,-1.6522,-1.6522,-1.6423,-1.6281,-1.6281,-1.6281,-1.6281,-1.6281,-1.638,-1.6522,-1.638,-1.6281,-1.6281,-1.6151,-1.582,-1.5365,-1.488,-1.4329,-1.3779,-1.3286,-1.3017,-1.2881,-1.2881,-1.2881,-1.2881,-1.2881,-1.2881,-1.2881,-1.2881,-1.319,-1.3637,-1.3779,-1.4097,-1.4514,-1.4663,-1.5344,-1.6151,-1.6423,-1.6386,-1.6318,-1.6454,-1.705,-1.7708,-1.8125,-1.837,-1.8785,-1.9633,-1.9455,-1.929,-1.9722,-1.9798,-1.9709,-1.9443,-1.927,-1.9033,-1.865,-1.844,-1.8332,-1.8222,-1.8222,-1.8222,-1.8222,-1.8222,-1.8235,-1.839,-1.877,-1.9037,-1.9189,-1.9556,-1.9798,-1.9798,-1.9798,-1.962,-1.9189,-1.9189,-1.9189,-1.9189,-1.8773,-1.8785,-1.9189,-1.9189,-1.9379,-1.9798,-1.9798,-1.9798,-1.9786,-1.9202,-1.8993,-1.8958,-1.8388,-1.845,-1.8808,-1.8832,-1.9175,-1.962,-1.6522,-1.6522,-1.6522,-1.6522,-1.6522,-1.6522,-1.6522,-1.6522,-1.6522,-1.6522,-1.6522,-1.6522,-1.6522,-1.6522,-1.6522,-1.6522,-1.6522,-1.6522,-1.6522,-1.6522,-1.6522,-1.6522,-1.6522,-1.6238,-1.5676,-1.5676,-1.5676,-1.5676,-1.5676,-1.5964,-1.6479,-1.5908,-1.5676,-1.5632,-1.5062,-1.4789,-1.4744,-1.4709,-1.4329,-1.3815,-1.3732,-1.342,-1.2881,-1.2881,-1.2881,-1.2881,-1.2881,-1.2881,-1.2881,-1.2881,-1.2929,-1.3055,-1.3637,-1.3815,-1.3956,-1.4514,-1.4744,-1.5062,-1.6207,-1.6089,-1.5807,-1.6373,-1.7338,-1.8169,-1.82,-1.8949,-1.9709,-1.9798,-1.9786,-1.9734,-1.9798,-1.9798,-1.9977,-2.0502,-2.0116,-1.9731,-1.967,-1.9242,-1.878,-1.828,-1.8205,-1.8205,-1.8205,-1.8205,-1.8391,-1.888,-1.9002,-1.9202,-1.9709,-1.9798,-1.9798,-1.9798,-1.9798,-1.9798,-1.9722,-1.9722,-1.9722,-1.9722,-1.9709,-1.9709,-1.9722,-1.9722,-1.9786,-1.9798,-1.9798,-1.9798,-1.9786,-1.9202,-1.9012,-1.8957,-1.8398,-1.8232,-1.8244,-1.8277,-1.8627,-1.9037,-1.6522,-1.6522,-1.6522,-1.6522,-1.6522,-1.6522,-1.6522,-1.6522,-1.6522,-1.6522,-1.6522,-1.6522,-1.6522,-1.6522,-1.6522,-1.6522,-1.6522,-1.6522,-1.6522,-1.6522,-1.6522,-1.6522,-1.6522,-1.638,-1.6139,-1.5776,-1.5588,-1.5588,-1.5231,-1.5152,-1.5389,-1.5152,-1.505,-1.5005,-1.4789,-1.4468,-1.4143,-1.4143,-1.3779,-1.3238,-1.3238,-1.3104,-1.2881,-1.2881,-1.2881,-1.2881,-1.2881,-1.2881,-1.2881,-1.2881,-1.2881,-1.2929,-1.3152,-1.3238,-1.3382,-1.3956,-1.3884,-1.3873,-1.506,-1.5481,-1.5712,-1.6299,-1.7338,-1.8278,-1.8621,-1.9278,-1.9798,-1.9798,-1.9798,-1.9798,-1.9798,-1.9798,-1.9888,-2.0079,-1.9964,-1.9798,-1.9798,-1.962,-1.9443,-1.9202,-1.9189,-1.9189,-1.9189,-1.9189,-1.9278,-1.9467,-1.9519,-1.9608,-1.9798,-1.9798,-1.9798,-1.9798,-1.9798,-1.9798,-1.9798,-1.9798,-1.9798,-1.9798,-1.9798,-1.9798,-1.9798,-1.9798,-1.9798,-1.9798,-1.9798,-1.9798,-1.9722,-1.8861,-1.8505,-1.8395,-1.7501,-1.7364,-1.7704,-1.7688,-1.8032,-1.8533,-1.6522,-1.6522,-1.6522,-1.6522,-1.6522,-1.6522,-1.6522,-1.6522,-1.6522,-1.6522,-1.6522,-1.6522,-1.6522,-1.6522,-1.6522,-1.6522,-1.6522,-1.6423,-1.6238,-1.6064,-1.6107,-1.6466,-1.6337,-1.6238,-1.6238,-1.5644,-1.541,-1.5588,-1.5186,-1.4937,-1.4788,-1.4609,-1.4351,-1.4027,-1.3954,-1.3708,-1.3299,-1.3443,-1.3286,-1.2881,-1.2881,-1.2881,-1.2881,-1.2881,-1.2881,-1.2881,-1.2881,-1.2881,-1.2881,-1.2881,-1.2881,-1.2881,-1.2881,-1.2881,-1.2968,-1.342,-1.3238,-1.3094,-1.3928,-1.4584,-1.5198,-1.5898,-1.682,-1.7708,-1.8212,-1.8697,-1.9113,-1.9113,-1.9113,-1.9113,-1.9113,-1.929,-1.9455,-1.9455,-1.9633,-1.9888,-2.0066,-2.0079,-2.0079,-2.0079,-2.0233,-2.0168,-1.9811,-1.9977,-1.9989,-1.9811,-1.9798,-1.9798,-1.9798,-1.9798,-1.9798,-1.9798,-1.9798,-1.9798,-1.9798,-1.9798,-1.9798,-1.9798,-1.9798,-1.9798,-1.9798,-1.9798,-1.9798,-1.9798,-1.962,-1.9544,-1.9455,-1.837,-1.7944,-1.783,-1.6888,-1.6888,-1.7393,-1.7193,-1.7588,-1.8218,-1.6522,-1.6522,-1.6522,-1.6522,-1.6522,-1.6522,-1.6522,-1.6522,-1.6522,-1.6522,-1.6522,-1.6522,-1.6522,-1.6522,-1.6522,-1.6466,-1.6466,-1.6238,-1.5632,-1.5005,-1.5242,-1.6423,-1.5908,-1.5588,-1.5588,-1.5005,-1.4971,-1.5588,-1.5588,-1.537,-1.4953,-1.437,-1.3498,-1.2468,-1.2293,-1.218,-1.2209,-1.2695,-1.2881,-1.2881,-1.2881,-1.2881,-1.2881,-1.2881,-1.2881,-1.2881,-1.2881,-1.2881,-1.2881,-1.2881,-1.2881,-1.2881,-1.2881,-1.2881,-1.2881,-1.2881,-1.2881,-1.2881,-1.2881,-1.333,-1.4015,-1.504,-1.5752,-1.63,-1.6715,-1.7237,-1.7622,-1.7622,-1.7622,-1.7622,-1.7622,-1.8207,-1.8697,-1.8697,-1.9302,-1.9989,-2.0605,-2.0708,-2.0708,-2.0708,-2.1159,-2.1056,-1.9913,-2.0348,-2.0438,-1.9875,-1.9798,-1.9798,-1.9798,-1.9798,-1.9798,-1.9798,-1.9798,-1.9798,-1.9798,-1.9798,-1.9798,-1.9798,-1.9798,-1.9798,-1.9798,-1.9798,-1.9798,-1.9786,-1.9214,-1.9013,-1.8912,-1.7836,-1.7388,-1.7351,-1.6751,-1.6888,-1.7338,-1.6739,-1.7213,-1.812,-1.6522,-1.6522,-1.6522,-1.6522,-1.6522,-1.6522,-1.6522,-1.6522,-1.6522,-1.6522,-1.6522,-1.6522,-1.6522,-1.6522,-1.6324,-1.5908,-1.5864,-1.5599,-1.5017,-1.4801,-1.4834,-1.5203,-1.5061,-1.4971,-1.4971,-1.4376,-1.4143,-1.4318,-1.3581,-1.3142,-1.3052,-1.2552,-1.2195,-1.1867,-1.1832,-1.1934,-1.219,-1.2363,-1.2607,-1.2881,-1.2881,-1.2881,-1.2881,-1.2881,-1.2881,-1.2881,-1.2881,-1.2881,-1.2881,-1.2881,-1.2881,-1.2881,-1.2881,-1.2881,-1.2881,-1.2881,-1.2881,-1.2881,-1.2881,-1.3008,-1.3456,-1.4533,-1.5516,-1.6315,-1.6841,-1.7298,-1.7622,-1.7622,-1.7622,-1.779,-1.8295,-1.8554,-1.8885,-1.9386,-1.9645,-1.9875,-2.0054,-2.0061,-2.0074,-2.0074,-2.0217,-2.0154,-1.9839,-1.9986,-1.9989,-1.9811,-1.9798,-1.9798,-1.9798,-1.929,-1.9025,-1.9025,-1.8521,-1.8271,-1.8271,-1.9278,-1.9798,-1.9798,-1.9798,-1.9798,-1.9798,-1.9798,-1.9608,-1.9214,-1.9101,-1.8771,-1.8371,-1.7667,-1.7416,-1.7351,-1.6751,-1.6602,-1.6751,-1.659,-1.6739,-1.705,-1.6522,-1.6522,-1.6522,-1.6522,-1.6522,-1.6522,-1.6522,-1.6522,-1.6522,-1.6522,-1.6522,-1.6522,-1.6522,-1.6522,-1.6337,-1.6008,-1.5511,-1.5005,-1.4376,-1.4136,-1.4,-1.4,-1.3788,-1.3968,-1.4463,-1.368,-1.3403,-1.3628,-1.3005,-1.2487,-1.2095,-1.1812,-1.1506,-1.1106,-1.1273,-1.1455,-1.1728,-1.2034,-1.2383,-1.2637,-1.2812,-1.2881,-1.2881,-1.2881,-1.2881,-1.2881,-1.2881,-1.2881,-1.2881,-1.2881,-1.2881,-1.2881,-1.2881,-1.2881,-1.2881,-1.2881,-1.2881,-1.2881,-1.2881,-1.2881,-1.3066,-1.3744,-1.4642,-1.5457,-1.5797,-1.6191,-1.6516,-1.6516,-1.6516,-1.6684,-1.726,-1.7641,-1.7963,-1.8426,-1.8761,-1.9113,-1.9633,-1.9709,-1.971,-1.971,-2.0172,-2.017,-1.9409,-1.9863,-2.0066,-1.9811,-1.9798,-1.9798,-1.9798,-1.9101,-1.8722,-1.8689,-1.797,-1.7616,-1.7616,-1.8468,-1.9071,-1.9366,-1.9645,-1.9798,-1.9798,-1.9798,-1.9531,-1.8976,-1.8536,-1.8004,-1.7433,-1.667,-1.6318,-1.6318,-1.6182,-1.6157,-1.617,-1.6398,-1.6522,-1.6534,-1.6522,-1.6522,-1.6522,-1.6522,-1.6522,-1.6522,-1.6522,-1.6522,-1.6522,-1.6522,-1.6522,-1.6522,-1.6522,-1.6522,-1.6466,-1.6423,-1.5389,-1.4422,-1.3862,-1.3296,-1.2949,-1.2881,-1.2425,-1.2669,-1.3835,-1.2925,-1.2678,-1.3249,-1.3197,-1.2718,-1.1802,-1.177,-1.1242,-1.0303,-1.0684,-1.0879,-1.0967,-1.1807,-1.2187,-1.2219,-1.2705,-1.2881,-1.2881,-1.2881,-1.2881,-1.2881,-1.2881,-1.2881,-1.2881,-1.2881,-1.2881,-1.2881,-1.2881,-1.2881,-1.2881,-1.2881,-1.2881,-1.2881,-1.2881,-1.2881,-1.2881,-1.2881,-1.3468,-1.4063,-1.4053,-1.4456,-1.4802,-1.4735,-1.4763,-1.4877,-1.5332,-1.5938,-1.6417,-1.6491,-1.7099,-1.7984,-1.9181,-1.9389,-1.9443,-1.9443,-2.0488,-2.0591,-1.8873,-1.9875,-2.0412,-1.9823,-1.9722,-1.9709,-1.9709,-1.8937,-1.8501,-1.848,-1.777,-1.7419,-1.7419,-1.7498,-1.7879,-1.8609,-1.9366,-1.9709,-1.9709,-1.9786,-1.9455,-1.8814,-1.7738,-1.6896,-1.6151,-1.5144,-1.4688,-1.4743,-1.529,-1.5512,-1.5593,-1.6157,-1.6318,-1.6373,-1.6522,-1.6522,-1.6522,-1.6522,-1.6522,-1.6522,-1.6522,-1.6522,-1.6522,-1.6522,-1.6522,-1.6522,-1.6522,-1.6522,-1.6293,-1.582,-1.5107,-1.4446,-1.3846,-1.3676,-1.3399,-1.2939,-1.2164,-1.1842,-1.2127,-1.19,-1.1863,-1.1996,-1.1642,-1.1334,-1.1104,-1.0805,-1.0527,-1.0283,-1.0381,-1.0605,-1.0947,-1.1475,-1.1904,-1.2219,-1.2705,-1.2881,-1.2881,-1.2881,-1.2881,-1.2881,-1.2881,-1.2881,-1.2881,-1.2881,-1.2881,-1.2881,-1.2881,-1.2881,-1.2881,-1.2881,-1.2881,-1.2881,-1.2881,-1.2881,-1.2881,-1.2881,-1.3272,-1.3651,-1.3621,-1.4237,-1.4674,-1.4317,-1.426,-1.4424,-1.5109,-1.5359,-1.5709,-1.6337,-1.6825,-1.7226,-1.754,-1.7821,-1.8033,-1.8033,-1.8787,-1.9136,-1.873,-1.9467,-1.9964,-1.9811,-1.9278,-1.8937,-1.8937,-1.7697,-1.6957,-1.6969,-1.628,-1.5888,-1.5888,-1.6448,-1.7134,-1.7859,-1.8597,-1.8937,-1.8949,-1.9544,-1.9025,-1.7667,-1.7405,-1.6443,-1.5074,-1.4807,-1.4726,-1.4726,-1.4865,-1.4903,-1.4912,-1.5045,-1.5112,-1.5124,-1.6522,-1.6522,-1.6522,-1.6522,-1.6522,-1.6522,-1.6522,-1.6522,-1.6522,-1.6522,-1.6522,-1.6522,-1.6522,-1.6058,-1.5404,-1.4506,-1.4337,-1.4007,-1.3416,-1.3162,-1.2881,-1.256,-1.1731,-1.1278,-1.1277,-1.1095,-1.0981,-1.0994,-1.0732,-1.0693,-1.0875,-1.0489,-1.039,-1.0585,-1.038,-1.0518,-1.0937,-1.142,-1.1816,-1.2219,-1.2705,-1.2881,-1.2881,-1.2881,-1.2881,-1.2881,-1.2881,-1.2881,-1.2881,-1.2881,-1.2881,-1.2881,-1.2881,-1.2881,-1.2881,-1.2881,-1.2881,-1.2881,-1.2881,-1.2881,-1.2881,-1.2881,-1.3203,-1.345,-1.3265,-1.3685,-1.4129,-1.3862,-1.3797,-1.399,-1.4566,-1.4703,-1.4787,-1.5221,-1.5668,-1.6069,-1.6403,-1.681,-1.6994,-1.683,-1.7899,-1.8714,-1.869,-1.8709,-1.8761,-1.8761,-1.837,-1.8189,-1.8185,-1.7082,-1.6528,-1.6506,-1.58,-1.541,-1.541,-1.58,-1.6177,-1.6536,-1.7643,-1.817,-1.8195,-1.8597,-1.8033,-1.6763,-1.6433,-1.552,-1.4268,-1.3941,-1.3862,-1.3872,-1.4139,-1.4253,-1.4325,-1.4596,-1.4721,-1.4732,-1.6522,-1.6522,-1.6522,-1.6522,-1.6522,-1.6522,-1.6522,-1.6423,-1.6337,-1.6337,-1.625,-1.6194,-1.6194,-1.5405,-1.4413,-1.3352,-1.3531,-1.3481,-1.2982,-1.2502,-1.2244,-1.2186,-1.1387,-1.0883,-1.0891,-1.0488,-1.0283,-1.0283,-1.0283,-1.0478,-1.0801,-1.0528,-1.0577,-1.0899,-1.0537,-1.0636,-1.1038,-1.1439,-1.1816,-1.2219,-1.2705,-1.2881,-1.2881,-1.2881,-1.2881,-1.2881,-1.2881,-1.2881,-1.2881,-1.2881,-1.2881,-1.2881,-1.2881,-1.2881,-1.2881,-1.2881,-1.2881,-1.2881,-1.2881,-1.2881,-1.2881,-1.2881,-1.3135,-1.3312,-1.3001,-1.3199,-1.3468,-1.3399,-1.3399,-1.3527,-1.3813,-1.3872,-1.3931,-1.4,-1.4408,-1.4932,-1.5628,-1.6045,-1.6201,-1.5878,-1.7305,-1.8373,-1.8519,-1.7944,-1.7606,-1.7606,-1.7466,-1.742,-1.7434,-1.6694,-1.629,-1.629,-1.5722,-1.542,-1.5498,-1.542,-1.542,-1.5498,-1.6684,-1.7309,-1.7379,-1.7455,-1.6969,-1.5996,-1.5389,-1.4548,-1.3606,-1.3125,-1.2881,-1.2939,-1.3458,-1.3675,-1.3803,-1.4338,-1.4488,-1.4488,-1.6522,-1.6522,-1.6522,-1.6522,-1.6522,-1.6522,-1.6522,-1.6051,-1.572,-1.572,-1.5287,-1.4926,-1.4926,-1.4494,-1.4147,-1.3982,-1.3651,-1.3345,-1.3075,-1.2707,-1.2393,-1.2214,-1.1388,-1.0895,-1.0909,-1.0488,-1.0283,-1.0283,-1.0283,-1.0332,-1.04,-1.0698,-1.0864,-1.0909,-1.085,-1.1075,-1.1526,-1.1551,-1.1816,-1.2219,-1.2705,-1.2881,-1.2881,-1.2881,-1.2881,-1.2881,-1.2881,-1.2881,-1.2881,-1.2881,-1.2881,-1.2881,-1.2881,-1.2881,-1.2881,-1.2881,-1.2881,-1.2881,-1.2881,-1.2881,-1.2881,-1.2881,-1.2939,-1.2988,-1.2907,-1.3234,-1.3399,-1.3066,-1.2998,-1.3008,-1.3066,-1.3066,-1.3193,-1.3527,-1.3931,-1.4369,-1.4878,-1.5332,-1.5498,-1.5488,-1.6231,-1.7066,-1.7707,-1.7647,-1.7568,-1.7568,-1.6995,-1.6655,-1.6663,-1.5956,-1.5566,-1.5566,-1.542,-1.5576,-1.5976,-1.5576,-1.5576,-1.5976,-1.58,-1.6032,-1.666,-1.6973,-1.6425,-1.5318,-1.4871,-1.4059,-1.3008,-1.2939,-1.2881,-1.2929,-1.2998,-1.3213,-1.3537,-1.3606,-1.3665,-1.3606,-1.6522,-1.6522,-1.6522,-1.6522,-1.6522,-1.6522,-1.6522,-1.6008,-1.5588,-1.5588,-1.505,-1.4597,-1.4373,-1.3674,-1.2968,-1.2366,-1.2377,-1.2351,-1.2263,-1.1843,-1.1577,-1.1467,-1.0899,-1.0546,-1.0546,-1.038,-1.0283,-1.0283,-1.0283,-1.0429,-1.0644,-1.0604,-1.0658,-1.0909,-1.0685,-1.0818,-1.1227,-1.1194,-1.147,-1.1875,-1.2106,-1.2194,-1.2214,-1.2422,-1.2359,-1.2173,-1.2425,-1.2492,-1.255,-1.2813,-1.2881,-1.2881,-1.2881,-1.2881,-1.2881,-1.2881,-1.2881,-1.2881,-1.2881,-1.2881,-1.2881,-1.2881,-1.2881,-1.2881,-1.2881,-1.3066,-1.3125,-1.2939,-1.2881,-1.2881,-1.2881,-1.3076,-1.3272,-1.3468,-1.4081,-1.4561,-1.4773,-1.4954,-1.5196,-1.5644,-1.5399,-1.566,-1.6869,-1.6605,-1.6369,-1.6369,-1.6055,-1.5888,-1.5888,-1.5576,-1.541,-1.541,-1.541,-1.5498,-1.5722,-1.5486,-1.5486,-1.5722,-1.5498,-1.5566,-1.5888,-1.6045,-1.5568,-1.4588,-1.4647,-1.4011,-1.2939,-1.3135,-1.3076,-1.2881,-1.2881,-1.2995,-1.3167,-1.3167,-1.3143,-1.3135]}]]